[[{"header":{"parameterUnit":"m.s-1","parameterCategory":1,"la1":30.6,"la2":29.2853,"lo1":-89.7004,"lo2":-87.6739,"dy":0.0162,"dx":0.0183,"nx":112,"ny":82,"refTime":"2023-04-09T00:00:00:Z","depth":0,"parameterNumber":2,"parameterNumberName":"U-component_of_WINDS"},"data":[0.0,0.0,0.0,0.0,0.0,0.0,0.0,0.0,0.0,0.0,0.0,0.0,0.0,0.0,0.0,0.0,0.0,0.0,0.0,0.0,0.0,0.0,0.0,0.0,0.0,0.0,0.0,0.0,0.0,0.0,0.0,0.0,0.0,0.0,0.0,0.0,0.0,0.0,0.0,0.0,0.0,0.0,0.0,0.0,0.0,0.0,0.0,0.0,0.0,0.0,0.0,0.0,0.0,0.0,0.0,0.0,0.0,0.0,0.0,0.0,0.0,0.0,0.0,0.0,0.0,0.0,0.0,0.0,0.0,0.0,0.0,0.0,0.0,0.0,0.0,0.0,0.0,0.0,0.0,0.0,0.0,0.0,0.0,0.0,0.0,0.0,0.0,0.0,0.0,0.0,0.0,6.7379,6.9778,7.0856,6.9887,6.8962,6.6581,6.2364,0.0,0.0,0.0,0.0,0.0,0.0,0.0,0.0,0.0,0.0,0.0,0.0,0.0,0.0,0.0,0.0,0.0,0.0,0.0,0.0,0.0,0.0,0.0,0.0,0.0,0.0,0.0,0.0,0.0,0.0,0.0,0.0,0.0,0.0,0.0,0.0,0.0,0.0,0.0,0.0,0.0,0.0,0.0,0.0,0.0,0.0,0.0,0.0,0.0,0.0,0.0,0.0,0.0,0.0,0.0,0.0,0.0,0.0,0.0,0.0,0.0,0.0,0.0,0.0,0.0,0.0,0.0,0.0,0.0,0.0,0.0,0.0,0.0,0.0,0.0,0.0,0.0,0.0,0.0,0.0,0.0,0.0,0.0,0.0,0.0,0.0,0.0,0.0,0.0,0.0,0.0,0.0,0.0,0.0,0.0,0.0,0.0,0.0,0.0,0.0,0.0,0.0,0.0,0.0,6.688,7.0684,7.2034,7.228,7.1286,6.9794,6.6971,6.2298,0.0,0.0,0.0,0.0,0.0,0.0,0.0,0.0,0.0,0.0,0.0,0.0,0.0,0.0,0.0,0.0,0.0,0.0,0.0,0.0,0.0,0.0,0.0,0.0,0.0,0.0,0.0,0.0,0.0,0.0,0.0,0.0,0.0,0.0,0.0,0.0,0.0,0.0,0.0,0.0,0.0,0.0,0.0,0.0,0.0,0.0,0.0,0.0,0.0,0.0,0.0,0.0,0.0,0.0,0.0,0.0,0.0,0.0,0.0,0.0,0.0,0.0,0.0,0.0,0.0,0.0,0.0,0.0,0.0,0.0,0.0,0.0,0.0,0.0,0.0,0.0,0.0,0.0,0.0,0.0,0.0,0.0,0.0,0.0,0.0,0.0,0.0,0.0,0.0,0.0,0.0,0.0,0.0,0.0,0.0,0.0,0.0,0.0,0.0,0.0,0.0,0.0,0.0,6.6603,6.9043,7.2288,7.2869,7.2595,7.1582,7.0403,6.7863,6.3456,5.9546,0.0,0.0,0.0,0.0,0.0,0.0,0.0,0.0,0.0,0.0,0.0,0.0,0.0,0.0,0.0,0.0,0.0,0.0,0.0,0.0,0.0,0.0,0.0,0.0,0.0,0.0,0.0,0.0,0.0,0.0,0.0,0.0,0.0,0.0,0.0,0.0,0.0,0.0,0.0,0.0,0.0,0.0,0.0,0.0,0.0,0.0,0.0,0.0,0.0,0.0,0.0,0.0,0.0,0.0,0.0,0.0,0.0,0.0,0.0,0.0,0.0,0.0,0.0,0.0,0.0,0.0,0.0,0.0,0.0,0.0,0.0,0.0,0.0,0.0,0.0,0.0,0.0,0.0,0.0,0.0,0.0,0.0,0.0,0.0,0.0,0.0,0.0,0.0,0.0,0.0,0.0,0.0,0.0,0.0,0.0,0.0,0.0,0.0,0.0,0.0,0.0,0.0,6.9743,7.1194,7.3182,7.3517,7.3093,7.2022,7.0938,6.8489,6.4217,6.0507,0.0,0.0,0.0,0.0,0.0,0.0,0.0,0.0,0.0,0.0,0.0,0.0,0.0,0.0,0.0,0.0,0.0,0.0,0.0,0.0,0.0,0.0,0.0,0.0,0.0,0.0,0.0,0.0,0.0,0.0,0.0,0.0,0.0,0.0,0.0,0.0,0.0,0.0,0.0,0.0,0.0,0.0,0.0,0.0,0.0,0.0,0.0,0.0,0.0,0.0,0.0,0.0,0.0,0.0,0.0,0.0,0.0,0.0,0.0,0.0,0.0,0.0,0.0,0.0,0.0,0.0,0.0,0.0,0.0,0.0,0.0,0.0,0.0,0.0,0.0,0.0,0.0,0.0,0.0,0.0,0.0,0.0,0.0,0.0,0.0,0.0,0.0,0.0,0.0,0.0,0.0,0.0,0.0,0.0,0.0,0.0,0.0,0.0,0.0,0.0,0.0,0.0,7.0415,7.2629,7.3998,7.4679,7.4559,7.3457,7.1488,6.8268,6.3456,6.0425,0.0,0.0,0.0,0.0,0.0,0.0,0.0,0.0,0.0,0.0,0.0,0.0,0.0,0.0,0.0,0.0,0.0,0.0,0.0,0.0,0.0,0.0,0.0,0.0,0.0,0.0,0.0,0.0,0.0,0.0,0.0,0.0,0.0,0.0,0.0,0.0,0.0,0.0,0.0,0.0,0.0,0.0,0.0,0.0,0.0,0.0,0.0,0.0,0.0,0.0,0.0,0.0,0.0,0.0,0.0,0.0,0.0,0.0,0.0,0.0,0.0,0.0,0.0,0.0,0.0,0.0,0.0,0.0,0.0,0.0,0.0,0.0,0.0,0.0,0.0,0.0,0.0,0.0,0.0,0.0,0.0,0.0,0.0,0.0,0.0,0.0,0.0,0.0,0.0,0.0,0.0,0.0,0.0,0.0,0.0,0.0,0.0,0.0,0.0,0.0,0.0,0.0,7.138,7.3347,0.0,7.5027,7.4801,7.3722,7.1945,6.8951,6.4205,0.0,0.0,0.0,0.0,0.0,0.0,0.0,0.0,0.0,0.0,0.0,0.0,0.0,0.0,0.0,0.0,0.0,0.0,0.0,0.0,0.0,0.0,0.0,0.0,0.0,0.0,0.0,0.0,0.0,0.0,0.0,0.0,0.0,0.0,0.0,0.0,0.0,0.0,0.0,0.0,0.0,0.0,0.0,0.0,0.0,0.0,0.0,0.0,0.0,0.0,0.0,0.0,0.0,0.0,0.0,0.0,0.0,0.0,0.0,0.0,0.0,0.0,0.0,0.0,0.0,0.0,0.0,0.0,0.0,0.0,0.0,0.0,0.0,0.0,0.0,0.0,0.0,0.0,0.0,0.0,0.0,0.0,0.0,0.0,0.0,0.0,0.0,0.0,0.0,0.0,0.0,0.0,0.0,0.0,0.0,0.0,0.0,0.0,0.0,0.0,0.0,0.0,6.9723,7.2346,7.433,0.0,7.5721,7.5308,7.4029,7.249,6.9541,6.4648,0.0,0.0,0.0,0.0,0.0,0.0,0.0,0.0,0.0,0.0,0.0,0.0,0.0,0.0,0.0,0.0,0.0,0.0,0.0,0.0,0.0,0.0,0.0,0.0,0.0,0.0,0.0,0.0,0.0,0.0,0.0,0.0,0.0,0.0,0.0,0.0,0.0,0.0,0.0,0.0,0.0,0.0,0.0,0.0,0.0,0.0,0.0,0.0,0.0,0.0,0.0,0.0,0.0,0.0,0.0,0.0,0.0,0.0,0.0,0.0,0.0,0.0,0.0,0.0,0.0,0.0,0.0,0.0,0.0,0.0,0.0,0.0,0.0,0.0,0.0,0.0,0.0,0.0,0.0,0.0,0.0,0.0,0.0,0.0,0.0,0.0,0.0,0.0,0.0,0.0,0.0,0.0,0.0,0.0,0.0,0.0,0.0,0.0,0.0,0.0,0.0,0.0,6.9798,7.3209,7.5601,7.608,7.6827,7.6521,7.454,7.3057,6.9961,0.0,0.0,0.0,0.0,0.0,0.0,0.0,0.0,0.0,0.0,0.0,0.0,0.0,0.0,0.0,0.0,0.0,0.0,0.0,0.0,0.0,0.0,0.0,0.0,0.0,0.0,0.0,0.0,0.0,0.0,0.0,0.0,0.0,0.0,0.0,0.0,0.0,0.0,0.0,0.0,0.0,0.0,0.0,0.0,0.0,0.0,0.0,0.0,0.0,0.0,0.0,0.0,0.0,0.0,0.0,0.0,0.0,0.0,0.0,0.0,0.0,0.0,0.0,0.0,0.0,0.0,0.0,0.0,0.0,0.0,0.0,0.0,0.0,0.0,0.0,0.0,0.0,0.0,0.0,0.0,0.0,0.0,0.0,0.0,0.0,0.0,0.0,0.0,0.0,0.0,0.0,0.0,0.0,0.0,0.0,0.0,0.0,0.0,0.0,0.0,0.0,0.0,0.0,7.0385,7.333,7.5669,7.6827,7.7157,7.6582,7.4909,7.3726,7.1317,6.7126,0.0,0.0,0.0,0.0,0.0,0.0,0.0,0.0,0.0,0.0,0.0,0.0,0.0,0.0,0.0,0.0,0.0,0.0,0.0,0.0,0.0,0.0,0.0,0.0,0.0,0.0,0.0,0.0,0.0,0.0,0.0,0.0,0.0,0.0,0.0,0.0,0.0,0.0,0.0,0.0,0.0,0.0,0.0,0.0,0.0,0.0,0.0,0.0,0.0,0.0,0.0,0.0,0.0,0.0,0.0,0.0,0.0,0.0,0.0,0.0,0.0,0.0,0.0,0.0,0.0,0.0,0.0,0.0,0.0,0.0,0.0,0.0,0.0,0.0,0.0,0.0,0.0,0.0,0.0,0.0,0.0,0.0,0.0,0.0,0.0,0.0,0.0,0.0,0.0,0.0,0.0,0.0,0.0,0.0,0.0,0.0,0.0,0.0,0.0,0.0,0.0,0.0,7.066,7.3665,7.5933,7.7009,7.7118,7.6544,7.5201,7.4299,7.2204,6.8475,0.0,0.0,0.0,0.0,0.0,0.0,0.0,0.0,0.0,0.0,0.0,0.0,0.0,0.0,0.0,0.0,0.0,0.0,0.0,0.0,0.0,0.0,0.0,0.0,0.0,0.0,0.0,0.0,0.0,0.0,0.0,0.0,0.0,0.0,0.0,0.0,0.0,0.0,0.0,0.0,0.0,0.0,0.0,0.0,0.0,0.0,0.0,0.0,0.0,0.0,0.0,0.0,0.0,0.0,0.0,0.0,0.0,0.0,0.0,0.0,0.0,0.0,0.0,0.0,0.0,0.0,0.0,0.0,0.0,0.0,0.0,0.0,0.0,0.0,0.0,0.0,0.0,0.0,0.0,0.0,0.0,0.0,0.0,0.0,0.0,0.0,0.0,0.0,0.0,0.0,0.0,0.0,0.0,0.0,0.0,0.0,0.0,0.0,0.0,0.0,0.0,0.0,7.0685,7.3997,7.6301,7.6793,7.6801,7.6445,7.5516,7.4651,7.2765,6.9338,0.0,0.0,0.0,0.0,0.0,0.0,0.0,0.0,0.0,0.0,0.0,0.0,0.0,0.0,0.0,0.0,0.0,0.0,0.0,0.0,0.0,0.0,0.0,0.0,0.0,0.0,0.0,0.0,0.0,0.0,0.0,0.0,0.0,0.0,0.0,0.0,0.0,0.0,0.0,0.0,0.0,0.0,0.0,0.0,0.0,0.0,0.0,0.0,0.0,0.0,0.0,0.0,0.0,0.0,0.0,0.0,0.0,0.0,0.0,0.0,4.5233,0.0,0.0,0.0,0.0,0.0,0.0,0.0,0.0,0.0,0.0,0.0,0.0,0.0,0.0,0.0,0.0,0.0,0.0,0.0,0.0,0.0,0.0,0.0,0.0,0.0,0.0,0.0,0.0,0.0,0.0,0.0,0.0,0.0,0.0,0.0,0.0,0.0,0.0,0.0,0.0,0.0,7.0549,7.3828,7.6214,7.6956,7.6773,7.6316,7.5644,7.4715,7.3395,7.1677,0.0,0.0,0.0,0.0,0.0,0.0,0.0,0.0,0.0,0.0,0.0,0.0,0.0,0.0,0.0,0.0,0.0,0.0,0.0,0.0,0.0,0.0,0.0,0.0,0.0,0.0,0.0,0.0,0.0,0.0,0.0,0.0,0.0,0.0,0.0,0.0,0.0,0.0,0.0,0.0,0.0,0.0,0.0,0.0,0.0,0.0,0.0,0.0,0.0,0.0,0.0,0.0,0.0,0.0,0.0,0.0,0.0,0.0,0.0,0.0,0.0,4.8475,0.0,0.0,0.0,0.0,0.0,0.0,0.0,0.0,0.0,0.0,0.0,0.0,0.0,0.0,0.0,0.0,0.0,0.0,0.0,0.0,0.0,0.0,0.0,0.0,0.0,0.0,0.0,0.0,0.0,0.0,0.0,0.0,0.0,0.0,0.0,0.0,0.0,0.0,0.0,0.0,7.165,7.4948,7.7285,7.8025,7.7575,7.7014,7.6541,7.5152,7.3858,7.2778,6.9754,0.0,0.0,0.0,0.0,0.0,0.0,0.0,0.0,0.0,0.0,0.0,0.0,0.0,0.0,0.0,0.0,0.0,0.0,0.0,0.0,0.0,0.0,0.0,0.0,0.0,0.0,0.0,0.0,0.0,0.0,0.0,0.0,0.0,0.0,0.0,0.0,0.0,0.0,0.0,0.0,0.0,0.0,0.0,0.0,0.0,0.0,0.0,0.0,0.0,0.0,0.0,0.0,0.0,0.0,5.6889,5.8058,5.8063,5.8445,5.895,5.6263,5.4278,5.2762,0.0,0.0,0.0,0.0,0.0,0.0,0.0,0.0,0.0,0.0,0.0,0.0,0.0,0.0,0.0,0.0,0.0,0.0,0.0,0.0,0.0,0.0,0.0,0.0,0.0,5.9329,6.0052,0.0,0.0,0.0,0.0,0.0,0.0,0.0,0.0,0.0,0.0,0.0,0.0,7.286,7.6089,7.8382,7.9099,7.8171,7.7565,7.747,7.5669,7.4296,7.364,7.0866,6.8715,0.0,0.0,0.0,0.0,0.0,0.0,0.0,0.0,0.0,0.0,0.0,0.0,0.0,0.0,0.0,0.0,0.0,0.0,0.0,0.0,0.0,0.0,0.0,0.0,0.0,0.0,0.0,0.0,0.0,0.0,0.0,0.0,4.4339,4.64,0.0,0.0,0.0,0.0,0.0,0.0,0.0,0.0,0.0,0.0,0.0,0.0,0.0,0.0,5.6479,5.8558,5.9776,6.0013,6.0738,6.1172,6.139,6.2078,6.244,6.2549,6.1984,0.0,5.5065,5.3432,0.0,0.0,0.0,0.0,0.0,0.0,0.0,0.0,0.0,0.0,0.0,0.0,0.0,0.0,0.0,0.0,0.0,0.0,0.0,0.0,0.0,0.0,5.9401,6.1379,6.209,6.2341,0.0,6.0953,5.9419,5.953,0.0,0.0,0.0,0.0,0.0,0.0,0.0,0.0,7.2667,7.5492,7.776,7.9026,7.7595,7.6746,7.7434,7.6148,7.5261,7.5243,7.3094,7.1443,7.0584,6.864,0.0,0.0,0.0,0.0,0.0,0.0,0.0,0.0,0.0,0.0,0.0,0.0,0.0,0.0,0.0,0.0,0.0,0.0,0.0,0.0,0.0,0.0,0.0,0.0,0.0,0.0,0.0,0.0,0.0,4.4929,4.6613,4.7615,4.7088,4.6649,0.0,0.0,0.0,0.0,0.0,0.0,0.0,0.0,0.0,5.6709,5.805,5.9377,6.0663,6.2132,6.2747,6.2635,6.3429,6.361,6.3062,6.3423,6.382,6.4216,6.3667,6.1897,5.9327,5.737,5.5897,5.4676,0.0,0.0,0.0,0.0,0.0,4.9718,5.053,0.0,0.0,0.0,0.0,0.0,0.0,0.0,0.0,0.0,0.0,0.0,0.0,0.0,0.0,6.4465,6.4939,6.5153,6.5939,6.5179,6.3981,0.0,6.3268,6.359,6.264,0.0,0.0,0.0,0.0,0.0,7.5215,7.7573,7.9165,7.9792,7.8509,7.7615,7.7507,7.6191,7.5415,7.5443,7.3373,7.1998,7.1633,6.9409,6.6919,0.0,0.0,0.0,0.0,0.0,0.0,0.0,0.0,0.0,0.0,0.0,0.0,0.0,0.0,0.0,0.0,0.0,0.0,0.0,0.0,0.0,0.0,0.0,0.0,0.0,0.0,0.0,0.0,4.7629,4.8923,4.9079,4.922,4.9117,0.0,0.0,0.0,0.0,0.0,0.0,5.62,5.7688,5.9232,6.0917,6.1607,6.2638,6.4013,6.4903,6.5243,6.5032,6.5922,6.5935,6.5274,6.4999,6.5215,6.5718,6.4506,6.3657,6.2904,6.0633,5.8948,5.7639,5.6151,5.4948,5.4101,5.3821,5.4107,5.4701,5.5107,5.6306,5.749,5.6423,0.0,5.6044,5.3682,0.0,0.0,0.0,0.0,5.9365,6.2329,0.0,6.493,6.6637,6.7034,6.7176,6.7714,6.7998,6.7544,0.0,6.6474,6.7249,6.6366,0.0,0.0,0.0,0.0,7.4457,7.7179,7.9059,8.0193,8.0344,7.913,7.8089,7.7474,7.6306,7.564,7.564,7.3723,7.2474,7.2292,7.0201,6.8016,6.5767,0.0,0.0,0.0,0.0,0.0,0.0,0.0,0.0,0.0,0.0,0.0,0.0,0.0,0.0,0.0,0.0,0.0,0.0,0.0,0.0,0.0,0.0,0.0,0.0,0.0,0.0,0.0,0.0,0.0,5.1874,5.2018,0.0,0.0,0.0,0.0,5.3458,5.568,5.7724,5.9289,6.0611,6.2197,6.4106,6.473,6.5501,6.6332,6.7342,6.774,6.7522,6.8536,6.8959,6.8923,6.7908,6.7522,6.7486,6.5607,6.4803,6.4588,6.201,5.9572,5.7406,5.8045,5.7391,5.6253,5.7619,5.8303,5.8574,5.9602,5.9953,6.0078,6.1183,6.066,5.9289,5.7833,5.7705,0.0,0.0,6.1774,6.3264,6.5646,6.6665,6.7211,6.7838,6.7785,6.7652,6.7824,6.8596,6.8929,0.0,6.8037,6.8531,6.8457,0.0,7.0761,7.1305,7.3516,7.5669,7.6972,7.839,7.9506,8.0103,7.8415,7.7266,7.723,7.6642,7.6239,7.6239,7.5006,7.3895,7.3006,7.1683,6.9754,6.7137,6.7268,0.0,0.0,0.0,0.0,0.0,0.0,0.0,0.0,0.0,0.0,0.0,0.0,0.0,0.0,0.0,0.0,0.0,0.0,0.0,0.0,0.0,0.0,0.0,0.0,0.0,0.0,0.0,0.0,5.2673,5.372,0.0,0.0,5.4255,5.5571,5.7216,5.873,6.0394,6.2305,6.348,6.4874,6.6487,6.6848,6.7391,6.8064,6.892,6.8687,6.7393,6.8786,6.8894,6.7797,6.7819,6.7862,6.7761,6.7094,6.6274,6.524,6.4322,6.2835,6.1138,6.1544,6.1294,6.0867,6.1437,6.2057,6.2545,6.187,6.1963,6.2182,6.1257,6.0421,5.9744,5.9376,6.0156,6.1494,6.2995,6.4455,6.6119,6.8904,6.9346,6.9376,7.0157,7.0025,6.9706,6.992,7.0414,7.0832,7.1134,7.1286,7.1331,7.0997,7.2753,7.4396,7.5125,7.6948,7.8504,7.9288,8.0217,8.0417,7.9485,7.8698,7.7695,7.6509,7.6321,7.6094,7.5551,7.5139,7.4296,7.3052,7.2085,7.0433,6.8013,6.7231,6.5206,0.0,0.0,0.0,0.0,0.0,0.0,0.0,0.0,0.0,0.0,0.0,0.0,0.0,0.0,0.0,0.0,0.0,0.0,0.0,0.0,0.0,0.0,0.0,0.0,0.0,0.0,5.4168,5.4184,5.5737,5.6525,5.5836,5.7021,5.8464,5.9979,6.1368,6.2753,6.4255,6.5143,6.6307,6.7605,6.7389,6.7786,6.8706,6.9309,6.9101,6.812,6.9448,6.949,6.8421,6.8378,6.835,6.835,6.8034,6.7323,6.6327,6.6261,6.5592,6.4427,6.3243,6.2773,6.2737,6.2551,6.3066,6.3831,6.3005,6.3482,6.4043,6.2091,6.1675,6.1917,6.1876,6.2883,6.4415,6.5688,6.691,6.8392,7.0872,7.0897,7.0485,7.1232,7.1053,7.0726,7.0806,7.1375,7.2084,7.2648,7.2893,7.3042,7.3104,7.4665,7.6214,7.7212,7.8719,7.9961,8.0308,8.0968,8.083,7.9384,7.8847,7.802,7.6509,7.6068,7.5484,7.4754,7.4464,7.3724,7.2376,7.1478,7.0142,6.8274,6.679,6.4609,6.1513,0.0,0.0,0.0,0.0,0.0,0.0,0.0,0.0,0.0,0.0,0.0,0.0,0.0,0.0,0.0,0.0,0.0,0.0,0.0,0.0,0.0,0.0,0.0,5.2901,5.5114,5.6671,5.6653,5.8214,5.8915,5.8161,6.0172,6.1537,6.1573,6.3609,6.4936,6.513,6.5636,6.6423,6.7528,6.6585,6.6881,6.8457,6.8686,6.911,6.9793,7.0584,7.1045,7.1139,6.9859,6.9269,6.9233,6.8386,6.7895,6.7895,6.7654,6.7481,6.6918,6.3181,6.1636,6.163,6.098,6.1503,6.2541,6.3326,6.4669,6.5635,6.4152,6.4784,6.6006,6.5499,6.6141,6.7306,6.8607,6.9229,6.989,7.143,7.1187,7.059,7.1019,7.0832,7.0508,7.0345,7.1482,7.2513,7.2355,7.2705,7.3333,7.4627,7.5284,7.6061,7.7321,7.8847,0.0,7.9648,8.0478,8.0731,7.9684,7.889,7.8097,7.7266,7.5751,7.4555,7.3957,7.3197,7.2227,7.1107,7.0186,6.9096,6.7847,6.6243,6.3947,6.1003,0.0,0.0,0.0,0.0,0.0,0.0,0.0,0.0,0.0,0.0,0.0,0.0,0.0,0.0,0.0,0.0,0.0,0.0,0.0,0.0,0.0,0.0,5.4676,5.4943,5.6455,5.771,5.8283,5.9271,5.9988,6.0382,6.1552,6.2772,6.3678,6.5079,6.5985,6.6239,6.7247,6.7976,6.8355,6.8614,6.901,6.9441,6.9986,6.9961,6.9435,6.9649,6.9689,6.9622,6.9136,6.9141,6.9495,6.9212,6.8894,6.8573,6.8187,6.7693,6.6989,6.5759,6.5303,6.5268,6.5128,6.5093,6.5408,6.6174,6.6225,6.5807,6.5393,6.5683,6.611,6.616,6.6668,6.7376,6.7933,6.8444,6.9024,7.0289,7.0825,7.1161,7.1375,7.1865,7.2191,7.2282,7.2639,7.3279,7.4464,7.4619,7.4723,7.5538,7.6755,7.7945,7.8992,0.0,0.0,8.0478,8.084,8.0731,7.9684,7.9032,7.8237,7.7266,7.6393,7.5303,7.3993,7.4247,7.3615,7.1684,7.1878,7.093,6.8586,6.5345,6.3405,0.0,0.0,0.0,0.0,0.0,0.0,0.0,0.0,0.0,0.0,0.0,0.0,0.0,0.0,0.0,0.0,0.0,0.0,0.0,0.0,0.0,0.0,5.5293,5.7048,5.7567,5.8554,5.9716,6.0827,6.127,6.164,6.2105,6.2892,6.3893,6.5019,6.5967,6.6689,6.7278,6.8005,6.845,6.855,6.8916,6.9275,6.9699,7.0002,7.0257,7.0368,7.03,7.0341,7.0486,7.0203,6.9985,0.0,6.9945,6.9522,6.8891,6.86,6.8456,0.0,0.0,0.0,0.0,0.0,6.6279,6.682,6.6537,6.6588,6.6773,6.6385,6.6773,6.7523,6.7711,6.8299,6.8954,6.9282,6.9636,7.0196,7.1118,7.1552,7.1764,7.2011,7.2418,7.2788,7.274,7.3199,7.394,7.513,0.0,0.0,7.6657,7.7559,7.8423,7.9215,8.0007,8.0546,0.0,8.0582,8.0442,7.954,7.8962,7.8237,7.7405,7.6321,0.0,0.0,0.0,7.3052,7.0908,7.0821,0.0,0.0,0.0,6.4832,0.0,0.0,0.0,0.0,6.0301,5.9859,0.0,0.0,0.0,0.0,0.0,0.0,0.0,0.0,0.0,0.0,0.0,0.0,0.0,0.0,0.0,0.0,5.7509,5.9366,6.0339,6.1163,6.2129,6.3406,6.35,6.3448,6.3627,6.4215,6.4999,6.5918,6.6672,6.7318,6.8195,0.0,0.0,0.0,0.0,6.8868,6.9747,6.9689,7.0475,7.1971,7.1797,7.1944,7.244,7.1968,7.1242,7.0336,7.0488,7.0068,6.9252,6.9177,6.9443,6.9593,6.6959,6.5882,6.5743,6.5266,6.6206,0.0,0.0,0.0,0.0,6.7226,6.8062,6.9474,6.9634,7.0253,7.102,7.1406,7.1713,7.2115,7.2674,7.2462,7.2324,7.2654,7.2816,7.2823,7.2498,7.3376,7.4399,7.4846,7.5218,7.605,7.7877,7.7921,7.7976,7.8686,7.9435,0.0,7.9899,8.013,8.0032,7.9537,0.0,0.0,7.7688,7.5995,7.4766,7.4333,7.3204,7.1621,6.9721,6.864,6.741,6.5856,6.7337,6.7405,6.5897,6.73,6.7998,6.8031,6.4217,6.3696,0.0,0.0,0.0,0.0,0.0,0.0,0.0,0.0,0.0,0.0,0.0,0.0,0.0,0.0,0.0,5.6736,5.9152,6.1306,6.2797,6.3571,6.3653,6.2688,6.302,6.3912,6.5197,6.5482,6.6096,6.739,6.8275,6.8809,6.8884,6.9626,0.0,6.9388,7.0404,7.0832,7.0499,7.1547,7.2263,7.2618,0.0,0.0,7.2038,7.1511,7.1216,7.1105,7.1105,7.1,7.0783,7.0347,6.9968,6.9707,6.9532,6.9451,6.9347,6.8665,6.8621,6.8784,6.7851,6.8152,6.9015,6.8877,6.9463,7.0234,7.0395,7.0523,0.0,7.0785,7.0841,7.0804,7.0876,7.1552,7.2218,7.2286,7.3082,7.3729,7.3667,7.3878,7.444,7.575,7.6022,7.67,7.8412,7.8221,7.8133,7.923,7.9594,7.97,7.9899,8.0207,8.0397,8.0292,7.9287,7.856,7.8484,7.7,7.5732,7.4935,7.3523,7.2155,7.1158,7.0459,6.9982,6.9712,6.9592,6.943,6.921,6.9486,6.9633,6.9614,6.6198,6.5345,0.0,0.0,0.0,0.0,0.0,0.0,0.0,0.0,0.0,0.0,0.0,5.1203,0.0,0.0,5.7457,5.8503,6.0415,6.2069,6.2892,6.3939,6.4483,6.4179,6.4439,6.509,6.6268,6.631,6.6886,6.8489,6.8952,6.9379,6.9771,7.0232,7.0368,7.0176,7.1118,7.1547,7.1323,7.2297,7.3012,7.3405,7.3048,7.2866,7.29,7.2776,7.2219,7.1399,7.1673,7.1385,7.0878,7.0972,7.0781,7.0648,7.1277,7.1125,7.0511,6.9873,6.9838,6.9962,6.9336,6.9336,6.9714,6.968,7.0278,7.0946,7.111,7.1434,7.1822,7.2442,7.2331,7.218,7.2643,7.2882,7.3123,7.3123,7.3569,7.4115,7.4466,7.4537,7.4993,7.6573,7.6854,7.7287,7.8694,7.8588,7.8645,7.9471,7.97,7.9743,7.9899,8.0054,8.0139,7.9969,7.936,7.8745,7.8159,7.7,7.5882,7.4921,7.4224,7.3559,7.2726,7.1816,7.132,7.132,7.0814,7.0401,6.9998,7.0457,7.0697,7.066,6.8641,6.7961,0.0,0.0,0.0,0.0,0.0,0.0,0.0,0.0,4.8812,5.0163,5.1741,5.3498,5.5704,5.787,5.9474,6.0237,6.17,6.2735,6.2735,6.3948,6.5126,6.6002,6.6082,6.641,6.7338,6.7314,6.7883,6.9444,6.9415,6.97,7.0478,7.0657,7.0725,7.0682,7.1618,7.2118,7.2078,7.2869,7.3583,7.4261,7.4261,7.4106,7.394,7.4209,7.3466,7.1822,7.2151,7.1758,7.0795,7.138,7.1621,7.169,7.2345,7.1953,7.0874,7.0496,7.0599,7.0721,7.034,7.0285,7.034,7.0388,7.1056,7.1946,7.1946,7.2666,7.3525,7.426,7.4298,7.4297,7.4913,7.4642,7.4256,7.4396,7.4326,7.4431,7.5168,7.5309,7.573,7.7135,7.7415,7.7744,7.8764,7.8987,7.915,7.9507,7.9665,7.9822,7.9899,7.9899,7.9804,7.9535,7.9393,7.8891,7.7651,7.6891,7.5995,7.4785,7.4916,7.4754,7.3957,7.2907,7.2376,7.2314,7.1911,7.1354,7.0637,7.1264,7.1615,7.1762,7.1101,7.068,4.9297,4.9627,5.0175,4.982,4.9815,5.0125,0.0,0.0,5.2126,5.3426,5.4847,5.6402,5.8192,5.9666,6.0938,6.1878,6.3341,6.4341,6.4341,6.5126,6.5882,6.6536,6.6773,6.7445,6.8908,6.8984,6.9408,7.03,7.0371,7.0407,7.0478,7.1192,7.1228,7.0514,7.262,7.3405,7.2691,7.419,7.4975,7.5082,7.5082,7.4638,7.394,7.4364,7.3905,7.2866,7.27,7.2414,7.2056,7.2159,7.2108,7.1969,7.2038,7.183,7.145,7.1385,7.1095,7.0806,7.0471,7.0678,7.1095,7.1311,7.236,7.3533,7.3533,7.4256,7.4911,7.4287,7.4865,7.5545,7.4951,7.4868,7.5133,7.5871,7.5484,7.5204,7.5976,7.6152,7.6397,7.724,7.7615,7.8024,7.8764,7.9266,7.9507,7.9621,7.9427,7.9391,7.9822,7.9899,8.0018,8.0326,7.99,7.9034,7.7651,7.7434,7.671,7.5158,7.505,7.4754,7.3957,7.374,7.3824,7.4077,7.3337,7.3081,7.3303,7.2679,7.2716,7.3413,7.334,7.2532,5.1793,5.1899,0.0,0.0,5.2061,5.2581,5.3315,5.3842,5.4583,5.5937,5.7402,5.8631,5.9331,6.1058,6.2317,0.0,6.3591,6.4626,6.4626,6.5304,6.6025,6.6612,6.7212,6.7923,6.8991,6.8774,6.9023,7.0407,7.0514,7.0693,7.1156,7.1513,7.1871,7.2371,7.326,7.3792,7.3677,7.4574,7.4968,7.4819,7.5042,7.4709,7.394,7.4252,7.3896,7.3005,7.2755,7.2671,7.2501,7.2501,7.2501,7.2416,7.2416,7.2159,7.1864,7.1782,7.1507,7.1124,7.1388,7.149,7.1575,7.2365,7.3121,7.374,7.424,7.4844,7.5326,7.5601,7.5819,7.5999,7.6269,7.6035,7.5871,7.6222,7.6046,7.6011,7.6784,7.6959,7.717,7.7942,7.8248,7.8599,7.8998,7.9347,7.9621,7.9743,7.9665,7.9665,7.9899,7.9899,8.0054,8.0433,7.9756,7.8919,7.8092,7.7362,7.6663,7.5841,7.5871,7.5858,7.5625,7.5252,7.5061,7.5087,7.4031,7.3553,7.3707,7.2957,7.2794,7.3125,7.3603,7.3141,5.3439,0.0,0.0,5.3709,5.4407,5.5124,5.5353,5.5917,5.6779,5.7953,5.9015,5.9977,6.0713,6.221,6.3315,6.327,6.4198,6.4947,6.4947,6.5447,6.6025,6.6612,6.7038,6.7646,6.868,6.8641,6.9062,7.0339,7.0693,7.1085,7.1656,7.2014,7.2513,7.3257,7.3645,7.3885,7.3892,7.4487,7.4669,7.4593,7.4744,7.4482,7.394,7.3861,7.3542,7.3088,7.2838,7.2671,7.2671,7.2671,7.2671,7.2671,7.2586,7.2331,7.1985,7.2072,7.181,7.1457,7.2159,7.2261,7.2185,7.3205,7.386,7.4219,7.4998,7.5483,7.5898,7.6418,7.6536,7.6615,7.7097,7.6947,7.6643,7.6889,7.6748,7.6819,7.7591,7.7731,7.7907,7.8469,7.8741,7.8952,7.915,7.9427,7.97,7.9822,7.9899,7.9828,7.9614,7.9655,7.988,8.0508,7.979,7.9094,7.8562,7.757,7.6766,7.6378,7.6512,7.6643,7.6801,7.6355,7.5917,7.5598,7.4775,7.4198,7.4001,7.3403,7.3221,7.3423,7.3754,7.3492,0.0,0.0,5.545,5.5982,5.7166,5.8208,5.7944,5.8283,5.8788,5.9526,5.9526,6.0175,6.2666,6.3164,6.376,6.5447,6.5732,6.5768,6.5768,6.5768,6.6025,6.6612,6.6043,6.6203,0.0,6.9318,7.0166,7.0202,7.1123,7.1656,7.1692,7.2724,7.3,7.2257,7.3593,7.3822,7.2851,7.3822,7.4441,7.4593,7.4174,7.394,7.3826,7.3053,7.2922,7.3252,7.2838,7.2671,7.2671,7.2671,7.2671,7.2671,7.2416,7.2159,7.1985,7.2245,7.1951,7.1688,7.2416,7.2897,7.3167,7.3602,7.46,7.566,7.5962,7.6568,7.7016,7.6292,7.6955,7.7684,7.6954,7.7083,7.7556,7.8328,7.7942,7.7591,7.8363,7.8539,7.8574,7.8574,7.8741,7.8952,7.915,7.9427,7.97,7.9822,7.9899,7.9614,7.8829,7.8874,7.9461,8.0658,8.0225,7.9641,7.9049,7.8213,7.7413,7.665,7.6614,7.6643,7.6801,7.6643,7.6243,7.5598,7.5786,7.5471,7.4845,7.4421,7.4514,7.508,7.427,7.3844,0.0,0.0,5.7447,5.7601,5.83,5.8988,5.9327,5.9424,5.9737,6.0463,6.0854,6.1254,6.1722,6.3101,6.4171,6.4198,6.509,6.5804,6.5804,6.5804,6.5746,6.5569,6.5646,0.0,0.0,0.0,0.0,6.9707,7.0168,7.0806,7.2014,7.2674,7.3041,7.3132,7.358,7.3562,7.2951,7.3562,7.3782,7.3737,7.3702,7.3622,7.3461,7.3252,7.3005,7.2922,7.2922,7.2755,7.2416,7.2416,7.2331,7.2245,7.2331,7.2159,7.2072,7.2416,7.2331,7.2227,7.2914,7.3171,7.3338,7.4596,7.5372,7.5887,7.6582,7.714,7.7456,7.7213,7.7667,7.8116,7.7872,7.7937,7.8258,7.8539,7.8363,7.8258,7.8539,7.8574,7.8574,7.8574,7.8741,7.8952,7.915,7.9427,7.97,7.9822,7.9899,7.9614,7.8793,7.8914,7.9171,7.9571,7.9216,7.871,7.8279,7.7803,7.7212,7.628,7.6445,7.6643,7.6801,7.6227,7.589,7.5823,7.4799,7.4602,7.5211,7.3997,7.3795,7.4551,7.4256,7.3681,0.0,5.836,5.9051,5.9579,5.9908,6.0136,6.0583,6.0425,6.0333,6.0927,6.1305,6.16,6.1793,6.2888,6.3877,6.4198,6.4876,6.5482,6.5768,6.5804,6.5782,6.5703,6.5646,6.5724,0.0,0.0,0.0,6.9516,6.9874,7.0726,7.2317,7.2781,7.3133,7.3507,7.3461,7.3217,7.2922,7.3217,7.3299,7.3088,7.338,7.338,7.317,7.317,7.3088,7.2838,7.2922,7.2755,7.2416,7.2331,7.2245,7.2245,7.2331,7.2245,7.2159,7.2586,7.2501,7.2434,7.3275,7.3635,7.3871,7.5406,7.5991,7.6265,7.7085,7.7402,7.749,7.7667,7.7928,7.8186,7.8272,7.8525,7.8741,7.8741,7.8741,7.8741,7.8741,7.8741,7.8657,7.8574,7.8823,7.9069,7.915,7.9507,7.9743,7.9899,7.965,7.94,7.915,7.8767,7.8666,7.9028,7.8387,7.7739,7.7523,7.716,7.6718,7.6039,7.6311,7.6578,7.6801,7.6291,7.5953,7.5823,7.5153,7.5139,7.5653,7.4735,7.4533,7.4994,7.4403,7.3681,5.9479,5.9983,6.028,6.1752,6.1856,6.1595,6.1666,6.1283,6.0854,6.0854,6.0854,6.1316,0.0,0.0,6.3092,6.5304,6.5126,6.4947,6.5697,6.5804,6.6089,0.0,0.0,0.0,0.0,0.0,0.0,6.9497,0.0,7.1317,7.2641,7.3043,7.3252,7.3252,7.3088,7.2922,7.2671,7.2957,7.2957,7.2671,7.3122,7.3205,7.3005,7.3005,7.3005,7.3005,7.3005,7.2838,7.2671,7.2416,7.2416,7.2586,7.2416,7.2331,7.2331,7.2586,7.2501,7.2434,7.3447,7.4119,7.4822,7.5824,7.6424,7.685,7.7402,7.7402,7.7244,7.7685,7.7858,7.798,7.8151,7.8574,7.887,7.887,7.887,7.887,7.887,7.887,7.8823,7.8657,7.887,7.916,7.916,7.9594,7.9864,7.9899,7.9221,7.8936,7.9685,7.8401,7.7873,7.8996,7.7811,7.6841,7.6876,7.6334,7.6039,7.5934,7.614,7.6409,7.6737,7.6765,7.6364,7.5561,7.6569,7.6754,7.5983,7.628,7.6375,7.6221,7.4638,7.3844,6.1002,6.1444,6.1678,6.3249,6.2515,6.1709,6.2892,6.2378,6.1707,6.1889,6.1925,6.1914,0.0,0.0,0.0,6.4133,6.4939,0.0,6.5768,6.5804,0.0,6.651,0.0,6.5826,6.6989,6.6283,0.0,0.0,6.9575,7.0419,7.1637,7.2441,7.2838,7.2838,7.2838,7.2755,7.2671,7.3307,7.3307,7.2671,7.3476,7.3525,7.2755,7.3088,7.3088,7.2755,7.2922,7.2671,7.2159,7.2072,7.1985,7.1864,7.2072,7.2159,7.2331,7.2416,7.2331,7.2434,7.331,7.4153,7.5066,7.6499,7.6582,7.641,7.7051,7.6844,7.6484,7.6712,7.7303,7.784,7.7488,7.8153,7.887,7.887,7.8952,7.9069,7.8987,7.887,7.887,7.8823,7.8655,7.8662,7.8817,7.9048,7.9415,8.0023,7.945,7.8695,7.8151,7.7259,7.6833,7.7086,7.6764,7.6441,7.6292,7.6408,7.6267,7.5657,7.5865,7.6208,7.668,7.6098,7.5498,7.4945,7.4604,7.4492,7.4543,7.4564,7.4622,7.4601,7.4122,7.355,6.1749,6.2005,6.2037,6.2939,6.2242,6.1472,6.2068,6.1962,6.1604,6.1485,6.1699,6.1748,6.1458,6.2103,0.0,0.0,0.0,0.0,6.5697,6.5804,6.6132,0.0,6.6421,0.0,6.7417,6.7099,6.7225,0.0,6.8646,6.9713,7.126,7.1918,7.2326,7.2671,7.2671,7.2671,7.2671,7.3084,7.3084,7.2671,7.3253,7.3253,7.2671,7.3005,7.3005,7.2671,0.0,7.2755,7.2245,7.2072,7.1985,7.1864,7.1985,7.2159,7.2331,7.2331,7.2331,7.2434,7.3102,7.3738,7.4463,7.5755,7.5947,7.5671,7.6348,7.6175,7.5933,7.664,7.7143,7.7577,7.7727,7.8424,7.9069,7.9069,7.9231,7.9311,7.9231,7.9231,7.9125,7.8851,7.8299,7.8064,7.8691,7.8914,7.935,8.025,7.9279,7.8308,7.7694,7.6941,7.6402,7.6402,7.6081,7.5793,7.5569,7.5867,7.5656,7.4869,7.5152,7.5422,7.5429,7.5415,7.527,7.4714,7.4665,7.4565,7.4375,7.4338,7.4338,7.4375,7.397,7.3566,6.2059,6.2078,6.1856,6.2073,6.1702,6.1243,6.0839,6.1006,6.114,6.0639,6.1106,6.1588,6.1702,6.1659,6.2175,6.3657,0.0,6.426,6.559,6.5804,6.6339,6.7766,6.7145,6.6917,6.7823,6.8179,6.8029,6.723,6.7973,6.9288,7.1304,7.1429,7.1843,7.2636,7.2671,7.2671,7.2671,7.2774,7.2774,7.2671,7.2774,7.2774,7.2671,7.2922,7.2838,7.2671,0.0,0.0,7.2533,7.221,7.209,7.2193,7.2124,7.2159,7.2331,7.2331,7.2245,7.2313,7.279,7.3152,7.3463,7.455,7.4843,7.4861,7.5393,7.5358,7.5342,7.6677,7.7027,7.7258,7.8069,7.8682,7.915,7.915,7.9427,7.9621,7.9507,7.9515,7.9238,7.8467,7.7749,7.7571,7.8702,7.8917,7.9315,8.0256,7.8923,7.7771,7.7663,7.6836,7.6224,7.6224,7.5617,7.5116,7.4968,7.5116,7.4903,7.419,7.4438,7.4528,7.4247,7.507,7.5286,7.4921,7.5592,7.5542,7.4735,7.4845,7.4808,7.4588,7.3964,7.3634,6.264,6.2512,6.2276,6.3444,6.2738,6.1816,6.2206,6.2364,0.0,6.143,6.2161,6.2851,6.2738,6.3243,6.3905,6.4699,6.5259,6.5636,6.5768,6.5895,6.6316,0.0,6.7291,6.7552,0.0,0.0,0.0,0.0,0.0,0.0,7.0707,7.1235,7.1843,7.2636,7.2671,7.2671,7.2671,7.3291,7.3291,7.2671,7.3291,7.3257,7.2671,7.2755,7.2755,7.2671,0.0,0.0,7.169,7.2056,7.2038,7.169,7.209,7.2416,7.2586,7.2159,7.2159,7.2245,7.2209,7.2364,7.2743,7.4377,7.455,7.4426,7.5338,7.5011,7.4441,7.4865,7.5889,7.676,7.6524,7.7709,7.8987,7.8987,7.9231,7.9507,7.9311,7.8895,7.8164,7.6707,7.7001,7.7619,7.8206,7.8707,7.9099,7.9465,7.8528,7.7482,7.6726,7.5903,7.5403,7.5403,7.5296,7.5225,7.5116,7.5189,7.5153,7.501,7.4865,7.5097,7.5768,7.517,7.5178,7.5812,7.5395,7.4698,7.3891,7.4588,7.4221,7.2936,7.345,7.3398,6.2875,6.2566,6.2057,6.2759,6.2017,6.1168,6.1528,0.0,0.0,6.1262,6.195,6.2585,6.2658,6.293,6.347,6.441,6.4435,6.4649,6.5689,6.5475,6.5832,6.7374,6.7777,6.8113,0.0,0.0,0.0,0.0,0.0,0.0,6.99,7.0959,7.1843,7.2636,7.2671,7.2671,7.2671,7.3015,7.3015,7.2671,7.305,7.3015,7.2671,7.2671,7.2671,7.2671,7.2671,0.0,7.1567,7.2072,7.1884,7.1435,7.2022,7.2416,7.2416,7.2072,7.2159,7.2245,7.1898,7.2159,7.2689,7.3583,7.3753,7.3594,7.4226,7.4169,7.4042,7.4624,7.565,7.6607,7.6724,7.7896,7.9069,7.9069,7.9072,7.9138,7.8946,7.8176,7.7259,7.6509,7.6405,7.6839,7.8027,7.835,7.8635,7.936,7.8529,7.752,7.6621,7.5762,7.5116,7.5042,7.5116,7.4973,7.4472,7.451,7.4404,7.3976,7.3936,7.4208,7.5008,7.5043,7.5176,7.5469,7.5506,7.4918,7.3707,7.4074,7.367,7.2496,7.2899,7.292,6.2983,6.2566,6.1804,6.1568,6.1007,6.0447,6.0377,6.043,6.0648,6.0933,6.1587,6.2258,6.2615,6.2546,6.2858,0.0,6.3675,6.3801,6.5395,6.5367,6.5732,6.7308,6.7986,0.0,6.8635,0.0,0.0,0.0,0.0,0.0,6.9302,7.067,7.1774,7.2395,7.2602,7.2671,7.2671,7.2671,7.2671,7.2671,7.2671,7.2671,7.2671,7.2671,7.2671,7.2671,7.2671,0.0,0.0,7.1916,7.1626,7.0987,7.1626,7.2004,7.2056,7.1919,7.2108,7.2331,7.1951,7.221,7.2755,7.2922,7.3005,7.3088,7.3334,7.3496,7.3832,7.4728,7.5579,7.6386,7.7205,7.8224,7.915,7.9231,7.8946,7.8574,7.8472,7.7515,7.6696,7.6696,7.6374,7.6518,7.8134,7.8243,7.8277,7.8927,7.817,7.7196,7.6444,7.5655,7.5116,7.4894,7.49,7.4543,7.3756,7.3724,7.3511,7.3012,7.3116,7.3532,7.426,7.4849,7.5233,7.5372,7.5873,7.5469,7.4221,7.4037,7.3523,7.2753,7.2511,7.2438,6.2983,6.2621,6.1806,6.0937,6.0775,6.0575,5.9709,0.0,6.0933,6.0986,6.1813,6.272,6.3345,6.3491,6.3657,6.4251,6.473,6.4999,6.4911,6.6128,6.6582,6.5627,0.0,0.0,6.6834,0.0,0.0,0.0,0.0,0.0,0.0,7.067,7.1532,7.1601,7.2291,7.2671,7.2671,7.2671,7.2671,7.2671,7.2671,7.2671,7.2671,7.2671,7.2671,7.2671,0.0,0.0,0.0,7.1373,7.0856,6.9807,7.0372,7.1015,7.1518,7.1301,7.1832,7.2671,7.2586,7.2755,7.3005,7.3005,7.317,7.3334,7.3577,7.3496,7.3473,7.4356,7.5288,7.6257,7.7205,7.8142,7.9069,7.9427,7.8982,7.8277,7.7758,7.7122,7.6696,7.6696,7.7343,7.7955,7.8314,7.871,7.849,7.7308,7.6804,7.6224,7.5403,7.526,7.5116,7.4894,7.4254,7.3792,7.3721,7.3081,7.3011,7.3543,7.3402,7.3964,7.5472,7.4849,7.526,7.6836,7.6399,7.6019,7.5873,7.5139,7.4368,7.356,7.2746,7.2358,6.2894,6.2621,6.177,6.0919,6.0033,5.9398,5.9526,0.0,5.9147,6.018,6.1171,6.2128,6.2984,6.2727,6.2683,6.362,6.3184,6.2908,6.3477,6.4434,6.518,6.5374,6.7114,0.0,0.0,0.0,0.0,0.0,0.0,0.0,0.0,7.0084,7.0522,7.0972,7.165,7.2064,7.2112,7.2513,7.2671,7.2671,7.2671,7.2671,7.2671,7.2188,7.2222,7.2636,0.0,0.0,0.0,7.0742,7.0233,6.9176,7.0073,7.0567,7.0877,7.111,7.1572,7.2015,7.2329,7.2671,7.3005,7.3005,7.3088,7.317,7.3252,7.3415,7.3566,7.3961,7.459,7.5522,7.6456,7.7872,7.9125,7.906,7.839,7.7683,7.7009,7.6444,7.6267,7.6769,7.6875,7.7196,7.8382,7.8135,7.7559,7.6984,7.6769,7.6374,7.5296,7.4869,7.4547,7.4183,7.3972,7.3689,7.3046,7.2442,7.2228,7.2442,7.2797,7.3649,7.4971,7.5339,7.5952,7.6929,7.6888,7.635,7.5395,7.5065,7.4258,7.2973,7.2585,7.2416,6.2586,6.244,6.1824,6.1027,5.976,5.8891,5.9522,5.8682,5.825,5.9748,6.0614,6.1385,6.2242,6.1998,6.1862,6.2619,6.1877,6.1552,6.2529,6.3131,6.3957,6.5267,0.0,0.0,0.0,0.0,0.0,0.0,0.0,0.0,0.0,6.954,6.9767,7.0337,7.1018,7.1317,7.1399,7.1871,7.2202,7.2326,7.2084,7.2202,7.2375,7.1532,7.1546,7.2277,0.0,0.0,0.0,7.0218,6.955,6.8454,6.9347,6.9842,7.0118,7.0423,7.0815,7.1339,7.1725,7.2285,7.2823,7.2741,7.2996,7.317,7.3088,7.3252,7.3647,7.3856,7.4647,7.5509,7.6313,7.755,7.854,7.8396,7.7758,7.7045,7.6583,7.6159,7.6013,7.6803,7.6656,7.6863,7.8159,7.7521,7.684,7.6589,7.6518,7.6087,7.526,7.4655,7.4083,7.3794,7.3511,7.3012,7.2264,7.1623,7.1372,7.1692,7.237,7.3189,7.4147,7.5462,7.6233,7.6409,7.6946,7.6582,7.5249,7.5028,7.4221,7.2863,7.249,7.2263,6.1986,6.215,6.1824,6.1027,6.0194,5.9631,5.9771,5.927,5.9054,5.9993,6.0323,6.0676,6.1447,6.1594,6.1495,6.1281,6.148,6.1909,6.2601,6.2888,6.3512,0.0,0.0,0.0,0.0,0.0,0.0,0.0,0.0,0.0,0.0,6.9227,6.9275,6.9575,7.054,7.0798,7.0394,7.0638,7.1018,7.1498,7.0774,7.0856,7.1792,7.0821,7.0718,0.0,0.0,0.0,0.0,6.9497,6.8752,6.7551,6.7964,6.8601,6.9291,6.9014,6.9658,7.0718,7.0718,7.1479,7.2459,7.23,7.2903,7.3612,7.317,7.317,7.3473,7.4239,7.5498,7.6658,7.6851,7.7086,7.7317,7.7433,7.6937,7.6476,7.6696,7.6195,7.612,7.698,7.7333,7.747,7.7507,7.7194,7.6625,7.5941,7.5442,7.5225,7.5225,7.4511,7.4011,7.4011,7.262,7.1658,7.1446,7.07,7.0627,7.1656,7.237,7.2869,7.3114,7.4968,7.5846,7.5378,7.6564,7.6752,7.6093,7.5285,7.4478,7.367,7.2533,7.1805,6.0522,6.109,6.1111,5.9662,5.9169,5.8892,5.8296,5.7729,5.7543,5.8396,5.9113,5.9685,5.9905,6.0419,6.0738,6.0541,6.0996,6.1352,6.126,0.0,0.0,6.4392,6.6145,0.0,0.0,0.0,0.0,0.0,0.0,0.0,0.0,6.9433,6.9182,6.8976,6.9697,7.0,6.9876,7.028,7.0661,7.0984,7.0742,7.0742,7.103,7.0347,0.0,0.0,0.0,0.0,0.0,6.8927,6.8258,6.7225,6.7834,6.8176,6.8372,6.8969,6.9313,6.9589,7.0269,7.0857,7.1225,7.0984,7.1399,7.1917,7.2151,7.2753,7.345,7.3972,7.4967,7.5882,7.6228,7.6737,7.7139,7.6791,7.6693,7.6444,7.598,7.5941,7.6187,7.705,7.6899,7.6855,7.7261,7.6725,7.6153,7.5657,7.5585,7.5514,7.5225,7.4119,7.3332,7.3191,7.1799,7.1121,7.1586,7.0873,7.0552,7.0871,7.2084,7.2584,7.2154,7.4611,7.5422,7.4218,7.5434,7.553,7.4299,7.4042,7.353,7.2724,7.2134,7.178,5.8921,5.9917,6.0486,5.9415,5.8992,5.8677,5.8117,5.7533,5.7125,5.7344,5.7914,5.8447,5.8694,5.8992,5.9457,6.0079,6.0238,0.0,0.0,0.0,0.0,6.4062,0.0,0.0,0.0,0.0,0.0,0.0,0.0,0.0,0.0,0.0,6.8967,6.8628,6.9115,6.9315,6.908,6.9451,6.9831,7.0188,6.9911,6.9991,7.0392,6.9628,0.0,0.0,0.0,0.0,0.0,6.8543,6.8049,6.7221,6.7757,6.7959,6.7994,6.8429,6.8567,6.8716,6.9279,6.9865,7.0337,7.0534,7.126,7.2056,7.2579,7.3067,7.3577,7.3975,7.4562,7.507,7.5565,7.5996,7.6285,7.6119,7.6158,7.6159,7.5799,7.5865,7.6148,7.6653,7.6433,7.6252,7.655,7.6085,7.5513,7.5013,7.4869,7.4726,7.4332,7.3261,7.244,7.237,7.1264,7.0693,7.1192,7.08,7.0514,7.0514,7.1692,7.2049,7.1264,7.368,7.4456,7.3224,7.447,7.4566,7.3507,7.3214,7.2715,7.2144,7.1939,7.1755,0.0,5.8628,5.9771,5.9771,5.9187,5.8689,5.8835,5.826,0.0,5.6895,5.6875,5.7177,5.7822,5.7558,5.7923,5.981,0.0,0.0,0.0,6.14,0.0,0.0,0.0,0.0,0.0,0.0,0.0,0.0,0.0,0.0,0.0,0.0,6.8628,6.8397,6.8816,6.874,6.8083,6.8319,6.8665,6.9198,6.8507,6.87,6.9791,6.8864,0.0,0.0,0.0,0.0,0.0,6.8246,6.803,6.7551,6.7729,6.7959,6.8039,6.7638,6.7799,6.8083,6.8083,6.8759,6.9792,7.0758,7.2206,7.3667,7.3905,7.3861,7.3852,7.4209,7.4364,7.4441,7.4819,7.4968,7.5042,7.5406,7.5478,7.5621,7.5865,7.5967,7.5931,7.6003,7.5862,7.5721,7.5442,7.5227,7.4796,7.4011,7.3614,7.3183,7.2834,7.1979,7.1446,7.1692,7.0978,7.0514,7.0514,7.0514,7.0514,7.0514,7.1264,7.1335,7.055,7.2358,7.306,7.2431,7.3597,7.3946,7.3397,7.2665,7.2144,7.1964,7.1842,7.1656,5.4987,0.0,5.7574,5.7574,5.7474,5.7418,0.0,5.6846,5.6264,5.6073,5.6602,5.7081,5.7087,5.724,5.7826,0.0,0.0,0.0,0.0,0.0,0.0,0.0,0.0,0.0,0.0,0.0,0.0,0.0,0.0,0.0,0.0,0.0,6.8551,6.8162,6.8397,6.8397,6.8083,6.8162,6.8223,6.8224,6.8454,6.8572,6.8632,6.8793,0.0,0.0,0.0,0.0,6.7924,6.78,6.7655,6.7551,6.7886,6.7925,6.7879,6.7959,6.7959,6.7879,6.8039,6.8759,6.9792,7.1035,7.2177,7.3062,7.3446,7.3793,7.4209,7.4669,7.4744,7.4819,7.5042,7.5262,7.5334,7.5262,7.5621,7.5796,7.5691,7.5364,7.5285,7.576,7.4685,7.39,7.4297,7.3725,7.3118,7.294,7.2687,7.2543,7.2655,7.1944,7.1375,7.1481,7.0909,7.0514,7.0514,7.0514,7.0514,7.0514,7.1264,7.1335,7.055,7.2358,7.2741,7.1369,7.2154,7.2462,7.234,7.2157,7.2024,7.1842,7.1656,7.1593,5.3125,5.5073,5.6801,5.6434,5.6706,5.694,5.6528,5.6166,5.576,5.5349,5.5945,5.6455,5.636,5.6875,5.7704,0.0,5.9184,0.0,0.0,0.0,0.0,0.0,0.0,0.0,0.0,0.0,0.0,0.0,0.0,0.0,0.0,0.0,6.8319,6.8083,6.8162,6.8241,6.8083,6.8083,6.8033,6.7961,6.8343,6.8496,6.8264,6.8717,0.0,0.0,0.0,0.0,6.7926,6.7614,6.7572,6.7808,6.7945,6.7959,6.7959,6.7959,6.7879,6.7799,6.8004,6.8838,6.9949,7.107,7.1938,7.2513,7.3058,7.3385,7.3602,7.418,7.415,7.3974,7.419,7.4333,7.4403,7.4474,7.4614,7.4647,7.4683,7.4428,7.4248,7.4402,7.3617,7.3011,7.3081,7.2687,7.2224,7.1869,7.1652,7.1619,7.1517,7.1091,7.0912,7.0982,7.0695,7.0514,7.0514,7.0514,7.0514,7.0514,7.0907,7.0942,7.0514,7.1641,7.2047,7.1404,7.1718,7.1964,7.1988,7.1964,7.1842,7.1816,7.1593,7.1494,5.1805,5.4239,5.6301,5.5601,5.5981,5.6319,5.5697,5.5502,5.5275,5.47,5.5133,5.5718,5.5785,5.6364,0.0,0.0,0.0,0.0,0.0,0.0,0.0,0.0,0.0,0.0,0.0,0.0,0.0,0.0,0.0,0.0,0.0,0.0,0.0,6.8083,6.8083,6.8083,6.8083,6.8083,6.8049,6.799,6.825,6.8327,6.8301,6.8559,0.0,0.0,0.0,0.0,6.8049,6.7557,6.7584,6.8083,6.7959,6.7959,6.8083,6.7925,6.7959,6.7959,6.8221,6.9099,7.0105,7.114,7.1693,7.2101,7.2736,7.2681,7.2405,7.3079,7.3011,7.2869,7.3187,7.3186,7.3288,7.3704,7.3496,7.3252,7.356,7.3384,7.3108,7.2833,7.2549,7.2264,7.1932,7.1713,7.1396,7.0726,7.062,7.0519,7.0238,7.0202,7.0272,7.0445,7.0514,7.0514,7.0514,7.0514,7.0514,7.0514,7.0514,7.0514,7.0547,7.074,7.1095,7.1635,7.1635,7.166,7.1805,7.1805,7.1816,7.1718,7.1448,7.1313,5.1614,5.2982,5.3949,5.3801,5.3838,5.3875,5.385,5.385,5.385,5.3859,5.4489,5.5184,5.5718,5.5229,5.5677,0.0,0.0,0.0,0.0,0.0,0.0,0.0,0.0,0.0,0.0,0.0,0.0,0.0,0.0,0.0,0.0,0.0,0.0,6.8083,6.8083,6.8083,6.8083,6.8083,6.793,6.7579,6.8162,6.8239,6.795,6.8274,6.8397,0.0,0.0,6.7661,6.8049,6.7557,6.7584,6.8083,6.8118,6.8162,6.8319,6.8319,6.8397,6.8656,6.9393,6.9861,7.0336,7.1301,7.1774,7.207,7.236,7.1903,7.1338,7.1479,7.2121,7.2941,7.3654,7.3615,7.35,7.4113,7.3892,7.356,7.3252,7.2681,7.2326,7.2726,7.1446,7.0558,7.1159,7.0444,6.9839,7.0026,6.9846,6.9883,7.0132,7.0202,7.0202,7.0272,7.041,7.0514,7.0514,7.0514,7.0514,7.0514,7.0514,7.0615,7.0913,7.0303,7.0265,7.0762,7.0762,7.0762,7.0823,7.1453,7.1718,7.1557,7.0842,7.0553,5.0294,5.1069,5.1477,5.1915,5.2982,5.3834,5.3392,5.3277,5.3235,5.3359,5.3902,5.462,5.5339,0.0,5.7478,0.0,0.0,0.0,0.0,0.0,0.0,0.0,0.0,0.0,0.0,0.0,0.0,0.0,0.0,0.0,0.0,0.0,0.0,0.0,6.7876,6.8083,6.8083,6.8083,6.799,6.78,6.8223,6.8223,6.7989,6.8258,6.8397,6.8362,0.0,6.7661,6.8206,6.7557,6.7584,6.8083,6.8083,6.8241,6.8397,6.8397,6.8397,6.8431,6.889,6.9262,6.952,7.0517,7.082,7.0761,7.1219,7.0943,7.0451,7.0307,7.0913,7.1656,7.2083,7.2179,7.2202,7.2695,7.2449,7.2063,7.196,7.1574,7.1225,7.1338,7.0664,7.0168,7.038,6.9952,6.9633,6.9849,6.9813,6.9885,7.0132,6.9916,6.97,6.97,6.9412,6.9194,6.9194,6.9194,6.9586,7.0443,7.0086,6.9971,7.0368,6.9613,6.9408,6.9842,6.9903,6.9903,6.9842,7.0266,7.0447,7.0227,6.9901,6.9502,4.8676,4.9229,4.9522,5.0328,5.2206,5.3718,0.0,0.0,0.0,5.3157,0.0,0.0,0.0,5.7279,0.0,0.0,0.0,0.0,0.0,0.0,0.0,0.0,0.0,0.0,0.0,0.0,0.0,0.0,0.0,0.0,0.0,0.0,0.0,0.0,6.7713,6.792,6.7999,6.7826,6.7817,6.8162,6.8146,6.8077,6.792,6.7869,6.7981,6.8042,6.7488,6.7661,6.8284,6.7808,6.7757,6.8083,6.8162,6.8319,6.8474,6.8474,6.8397,6.8431,6.8474,6.874,6.8962,6.9742,6.9832,6.9666,7.0117,7.0053,6.9777,6.9633,6.992,7.0481,7.0761,7.0924,7.1051,7.1492,7.1159,7.0852,7.0949,7.0682,7.041,7.0272,7.0202,7.0132,6.9991,6.9742,6.967,6.9885,6.9885,6.9956,7.0202,6.9842,6.9515,6.9337,6.8766,6.8302,6.8123,6.8088,6.8623,6.9872,6.9372,6.9149,6.9477,6.8822,6.8516,6.8826,6.9007,6.9007,6.8947,6.9225,6.9298,6.9237,6.8875,6.8416,4.7058,4.7789,4.8519,4.9368,5.0956,5.225,5.2128,5.2601,0.0,5.3277,0.0,0.0,0.0,5.7606,0.0,0.0,0.0,0.0,0.0,0.0,0.0,0.0,0.0,0.0,0.0,0.0,0.0,0.0,0.0,0.0,0.0,0.0,0.0,0.0,0.0,6.7468,6.762,6.689,6.7162,6.8397,6.7738,6.7392,6.7323,6.663,6.6547,6.7083,6.7014,6.7428,6.8162,6.8284,6.8206,6.8083,6.8319,6.8474,6.8705,6.8705,6.8967,6.9302,6.9078,6.9153,6.9376,6.9446,6.9411,6.9376,6.9446,6.9484,6.9449,6.9449,6.9633,7.0133,7.1091,7.1049,7.0965,7.1713,7.1287,7.0785,7.0785,7.065,7.0514,7.0514,7.0341,7.0202,7.0202,6.9849,6.967,6.9885,6.9885,6.9956,7.0202,7.0305,7.0122,6.9408,6.9265,6.8908,6.8159,6.8088,6.8159,6.8266,6.823,6.8261,6.8457,6.7932,6.7626,6.7836,6.7994,6.815,6.8291,6.8935,6.9298,6.9322,6.7715,6.7329,4.614,4.691,4.7864,4.9301,5.0441,5.1357,5.1784,5.2754,5.3535,5.349,5.41,0.0,0.0,0.0,0.0,0.0,0.0,0.0,0.0,0.0,0.0,0.0,0.0,0.0,0.0,0.0,0.0,0.0,0.0,0.0,0.0,0.0,0.0,0.0,0.0,6.682,6.686,6.6582,6.6721,6.7352,6.6809,6.656,6.656,6.6283,6.6318,6.6705,6.667,6.7162,6.7968,6.7968,6.7892,6.7815,6.8044,6.8287,6.8705,6.8892,6.8967,6.8967,6.8892,6.8967,6.9227,6.9227,6.9302,6.9376,6.9376,6.9376,6.9376,6.9376,6.9633,7.0062,7.0487,7.0728,7.0857,7.1242,7.1032,7.0821,7.0821,7.065,7.0514,7.0514,7.0445,7.0341,7.0202,7.0062,6.9991,7.0062,6.9991,6.9814,6.9664,6.9201,6.8631,6.7945,6.741,6.7046,6.6789,6.6753,6.6753,6.6753,6.7189,6.7475,6.7633,6.7168,6.692,6.6945,6.7339,6.7455,6.7316,6.7665,6.7556,6.7026,6.6763,6.6017,4.5368,4.614,4.702,4.8567,4.9853,5.0835,5.1422,5.2704,5.3872,5.3743,5.4472,5.5677,0.0,0.0,0.0,0.0,0.0,0.0,0.0,0.0,0.0,0.0,0.0,0.0,0.0,0.0,0.0,0.0,0.0,0.0,0.0,0.0,0.0,0.0,0.0,0.0,6.6206,6.5962,6.5929,6.6073,6.5468,6.5461,6.5912,6.5669,6.5777,6.6129,6.6094,6.6586,6.7392,6.7318,6.7318,6.7352,6.7671,6.8089,6.8467,6.8787,6.8967,6.8932,6.8613,6.8758,6.9192,6.8873,6.9091,6.9376,6.9376,6.9376,6.9376,6.9376,6.956,6.9778,6.9708,7.0163,7.0718,7.0817,7.075,7.0647,7.0396,7.0225,7.005,6.98,6.9943,7.0053,6.9916,7.0024,7.0202,7.0202,7.0062,6.9778,6.9272,6.8635,6.7959,6.7088,6.6268,6.5867,6.5958,6.5958,6.5958,6.5958,6.6368,6.6653,6.6781,6.6557,6.6452,6.6452,6.6867,6.6983,6.6845,6.6649,6.6359,6.6011,6.5619,6.4874,4.4697,4.5368,4.6067,4.7059,0.0,0.0,5.0885,5.2511,5.4045,5.4009,5.5003,5.6464,5.8682,0.0,0.0,0.0,0.0,0.0,0.0,0.0,0.0,0.0,0.0,0.0,0.0,0.0,0.0,0.0,0.0,0.0,0.0,0.0,0.0,0.0,0.0,0.0,6.5865,6.5092,6.4706,6.4706,6.3763,6.4114,6.5547,6.4743,6.4742,6.5294,6.5294,6.5712,6.6408,6.6628,6.67,6.6805,6.7352,6.7666,6.792,6.8502,6.9008,6.9235,6.8243,6.8562,6.9235,6.8463,6.8744,6.9376,6.9376,6.9376,6.9376,6.9376,6.9487,6.9421,6.8681,6.9494,7.0514,7.0478,7.0478,7.0264,6.9479,6.9301,6.9087,6.8266,6.8766,6.9337,6.9337,6.9842,7.0202,7.0202,7.0026,6.9672,6.9031,6.8993,6.8457,6.7124,6.6268,6.5804,6.5804,6.5804,6.5804,6.5804,6.5804,6.5804,6.5804,6.6083,6.6269,6.6269,6.6608,6.6845,6.7019,6.6047,6.6047,6.691,6.4266,6.3841,4.3162,4.4452,0.0,4.7607,0.0,0.0,0.0,5.3535,0.0,0.0,5.6181,5.676,5.8107,0.0,0.0,0.0,0.0,0.0,0.0,0.0,0.0,0.0,0.0,0.0,0.0,0.0,0.0,0.0,0.0,0.0,0.0,0.0,0.0,0.0,0.0,0.0,6.5057,6.4846,6.4706,6.4706,6.4427,6.4532,6.4953,6.4043,6.4044,6.4848,6.4848,6.5303,6.6074,6.6145,6.6461,6.6917,6.653,6.674,6.7338,6.7476,6.7618,6.769,6.7373,6.7829,6.8533,6.8287,6.8357,6.8568,6.8568,6.8147,6.7725,6.7725,6.8256,6.8646,6.787,6.8859,6.9848,6.8919,6.9062,6.9382,6.9305,6.9301,6.9408,6.9729,6.9979,7.0089,6.9916,7.0198,7.0163,6.9455,6.9315,6.8818,6.7572,6.7029,6.6595,6.6196,6.5946,6.5867,6.5958,6.6083,6.6083,6.5958,6.6146,6.6146,6.5804,6.6207,6.6452,6.6452,6.6786,6.6961,6.7019,6.5989,6.5352,6.5141,6.413,6.3387,4.3272,4.4597,0.0,4.8226,4.961,5.1019,5.3017,0.0,0.0,0.0,0.0,0.0,0.0,0.0,0.0,0.0,0.0,0.0,0.0,0.0,0.0,0.0,0.0,0.0,0.0,0.0,0.0,0.0,0.0,0.0,0.0,0.0,0.0,0.0,0.0,0.0,6.4775,6.4706,6.4566,6.425,6.3934,6.3861,6.3995,6.39,6.4147,6.4706,6.4706,6.4987,6.5408,6.5408,6.5689,6.6075,6.5935,6.6145,6.6602,6.6883,6.7023,6.6953,6.6672,6.7093,6.769,6.7374,6.748,6.7725,6.7725,6.7374,6.7023,6.7023,6.7446,6.7693,6.6989,6.7764,6.8682,6.8359,6.8854,6.942,6.9237,6.9233,6.9265,6.9122,6.9622,6.9768,6.9059,6.9554,6.9697,6.8809,6.835,6.7817,6.6825,6.6138,6.5804,6.5804,6.5804,6.5867,6.5895,6.6021,6.6083,6.5985,6.6207,6.6146,6.5895,6.6366,6.6608,6.6608,6.6577,6.651,6.651,6.5192,6.4483,6.4396,6.3517,6.281,4.4217,4.5219,4.6359,4.8663,5.0085,0.0,5.3828,5.4783,5.5499,0.0,0.0,0.0,0.0,0.0,0.0,0.0,0.0,0.0,0.0,0.0,0.0,0.0,0.0,0.0,0.0,0.0,0.0,0.0,0.0,0.0,0.0,0.0,0.0,0.0,0.0,0.0,6.4662,6.4597,6.4248,0.0,6.2877,6.2692,6.3052,6.3964,6.4495,6.4601,6.4671,6.4706,6.4706,6.4706,6.4706,6.4776,6.5514,6.5759,6.5865,6.6532,6.6813,6.6707,6.6005,6.6286,6.6813,6.611,6.6356,6.6918,6.6918,6.6848,6.6813,6.6813,6.6848,6.6742,6.597,6.6391,6.7235,6.8258,6.9246,6.9704,6.9064,6.9059,6.8837,6.7552,6.8409,6.8873,6.7445,6.8302,6.8944,6.8123,6.7374,6.6809,6.6678,6.6103,6.5804,6.5804,6.5804,6.5804,6.5804,6.5804,6.5832,6.5958,6.5949,6.594,6.5914,6.644,6.6677,6.6677,6.5996,6.5674,6.5674,6.3981,6.3563,6.4251,6.2562,6.2125,4.2147,4.3968,0.0,0.0,5.0635,5.3396,5.5171,5.5959,5.6508,0.0,0.0,0.0,0.0,0.0,0.0,0.0,0.0,0.0,0.0,0.0,0.0,0.0,0.0,0.0,0.0,0.0,0.0,0.0,0.0,0.0,0.0,0.0,0.0,0.0,0.0,6.2882,6.2457,6.2994,6.3206,0.0,6.3488,6.37,6.3564,6.2556,6.2705,6.3863,6.446,6.4706,6.4706,6.4706,6.4706,6.4741,6.4917,6.4987,6.4987,6.5162,6.5198,6.5198,6.5022,6.5478,6.611,6.5935,6.6005,6.6145,6.6145,6.5689,6.5198,6.5198,6.5654,6.5935,6.5162,6.597,6.6918,6.6637,6.6846,6.7369,6.8034,6.824,6.8623,6.9551,6.9515,6.9194,6.8873,6.8551,6.8088,6.7338,6.6553,6.6053,6.5989,6.5911,6.5804,6.5804,6.5804,6.5804,6.5804,6.5895,6.5895,6.5867,6.5633,6.5394,6.5309,6.555,6.5633,6.5633,6.5048,6.4763,6.4838,6.3465,6.299,6.3285,6.2253,6.1836,4.1889,4.3823,0.0,4.8489,0.0,5.3785,5.4927,5.5626,5.6241,0.0,0.0,0.0,0.0,0.0,0.0,0.0,0.0,0.0,0.0,0.0,0.0,0.0,0.0,0.0,0.0,0.0,0.0,0.0,0.0,0.0,0.0,0.0,0.0,0.0,6.2506,6.247,6.2435,6.2733,6.2733,6.2379,6.2804,6.2917,6.2687,6.2234,6.235,6.3021,6.3509,6.3685,6.3618,6.4004,6.3969,6.3688,6.4425,6.4495,6.4214,6.4601,6.4706,6.4706,6.4706,6.4987,6.5338,6.5338,6.5338,6.5338,6.5338,6.5022,6.4706,6.4706,6.5022,6.5233,6.4811,6.5303,6.5829,6.5547,6.6529,6.7548,6.772,6.8208,6.8694,6.8801,6.9087,6.8944,6.7838,6.7201,6.6708,6.6352,6.5925,6.5675,6.5675,6.574,6.5804,6.5804,6.5804,6.5804,6.5804,6.551,6.5359,6.5359,6.4914,6.4567,6.4543,6.4441,6.4577,6.4975,6.4327,6.4057,6.422,6.3094,6.264,6.2803,6.2403,6.2005,4.2142,4.4228,4.683,4.9409,5.1715,0.0,5.4223,5.4864,5.5632,0.0,0.0,0.0,0.0,0.0,0.0,0.0,0.0,0.0,0.0,0.0,0.0,0.0,0.0,0.0,0.0,0.0,0.0,0.0,0.0,0.0,0.0,0.0,6.1355,6.2057,6.1936,6.2124,6.2622,6.2639,6.2328,6.1787,6.1867,6.1848,6.1799,6.2188,6.2446,6.2599,6.2798,6.2798,6.2635,6.3161,6.3056,6.2705,6.3863,6.4109,6.3863,6.4355,6.4601,6.4706,6.4706,6.4706,6.4706,6.4706,6.4706,6.4706,6.4706,6.4706,6.4706,6.4706,6.4706,6.4706,6.4706,6.4706,6.4706,6.4911,6.6703,6.8185,6.7617,6.8243,6.8551,6.741,6.8123,6.8266,6.6161,6.564,6.551,6.551,6.5445,6.5409,6.5267,6.5397,6.549,6.5347,6.5347,6.5312,6.5312,6.4769,6.4474,6.4696,6.4088,6.368,6.368,6.3382,6.3494,6.4093,6.3547,6.3252,6.3356,6.2595,6.2266,6.2333,6.2479,6.2238,4.1505,0.0,4.8138,0.0,5.1527,5.3354,0.0,0.0,5.6268,0.0,0.0,0.0,0.0,0.0,0.0,0.0,0.0,0.0,0.0,0.0,0.0,0.0,0.0,0.0,0.0,0.0,0.0,0.0,0.0,0.0,0.0,6.0671,6.0828,6.1272,6.1236,6.101,6.0518,6.1176,6.152,6.1623,6.201,6.2505,6.2923,6.1494,6.1835,6.3442,6.3573,6.3608,6.3372,6.2775,6.288,6.3372,6.288,6.3442,6.4495,6.3934,6.4144,6.4706,6.4706,6.4706,6.4706,6.4706,6.4706,6.4706,6.4706,6.4706,6.4706,6.4706,6.4706,6.4706,6.4706,6.4706,6.4706,6.4706,6.5686,6.6597,6.6794,6.71,6.7445,6.7873,6.7588,6.6981,6.5982,6.564,6.551,6.551,6.5415,6.5101,6.4362,6.4321,6.4073,6.3399,6.3456,6.3582,6.3582,6.3565,6.3617,6.3872,6.3203,6.2889,6.2889,6.2529,6.2295,6.2165,6.1855,6.166,6.1558,6.1448,6.1412,6.1412,6.2105,6.2078,4.277,4.5333,4.774,0.0,5.0715,5.2234,5.299,0.0,0.0,0.0,0.0,0.0,0.0,0.0,0.0,0.0,0.0,0.0,0.0,0.0,0.0,0.0,0.0,0.0,0.0,0.0,0.0,0.0,0.0,0.0,6.0609,6.0635,6.0914,6.1328,6.1386,6.1243,6.0963,6.1265,6.1386,6.1328,6.151,6.1961,6.2524,6.1813,6.1725,6.1912,6.1876,6.1847,6.1817,6.2244,6.2073,6.1722,6.2705,6.2951,6.288,6.3407,6.3793,6.4074,6.4074,6.4074,6.4074,6.4074,6.4006,6.4007,6.4532,6.4637,6.4568,6.4637,6.4706,6.4601,6.4179,6.4074,6.3969,6.3682,6.389,6.4336,6.4663,6.586,6.6957,6.741,6.6839,6.6232,6.5875,6.5611,6.5095,6.4208,6.4291,6.4195,6.3418,6.3412,6.3335,6.3017,6.3137,6.32,6.32,6.2959,6.2831,6.3048,6.2413,6.2119,6.229,6.1931,6.1688,6.1478,6.1745,6.1886,6.1989,6.1989,6.2091,6.2242,6.2572,6.2141,4.3348,4.5297,4.6864,4.8042,4.9582,5.1049,0.0,0.0,0.0,0.0,0.0,0.0,0.0,0.0,0.0,0.0,0.0,0.0,0.0,0.0,0.0,0.0,0.0,0.0,0.0,0.0,0.0,0.0,0.0,0.0,6.0512,6.0696,6.0998,6.1595,6.1595,6.1595,6.1595,6.1559,6.1494,6.1414,6.1141,6.1366,6.1965,6.1849,6.1361,6.0645,6.0733,6.0678,6.0685,6.1571,6.133,6.0563,6.2108,6.2248,6.1687,6.267,6.3126,6.3302,6.3302,6.3302,6.3302,6.3234,6.3166,6.3135,6.3832,6.4007,6.3903,6.4041,6.4144,6.4004,6.3442,6.3302,6.3193,6.2763,6.2622,6.2752,6.3137,6.4614,6.5925,6.6089,6.559,6.5197,6.5197,6.4941,6.4256,6.3023,6.3146,6.3119,6.238,6.2405,6.2464,6.2252,6.2407,6.2533,6.2533,6.2246,6.2105,6.2283,6.1882,6.1784,6.2024,6.1682,6.1382,6.1244,6.1375,6.1536,6.1739,6.1958,6.2022,6.2082,6.2341,6.1733,4.1855,4.398,4.5878,4.6354,4.8215,5.0073,0.0,0.0,0.0,0.0,0.0,0.0,0.0,0.0,0.0,0.0,0.0,0.0,0.0,0.0,0.0,0.0,0.0,0.0,0.0,0.0,0.0,0.0,0.0,0.0,6.0262,6.0512,6.0878,6.1595,6.1595,6.1595,6.1595,6.1386,6.1664,6.2199,6.1294,6.1183,6.1777,6.0909,6.0556,6.0645,6.1423,6.1552,6.1195,6.072,6.0762,6.116,6.0528,6.1125,6.2248,6.1652,6.1862,6.2459,6.2459,6.2459,6.2459,6.2293,6.2261,6.2261,6.2296,6.2296,6.2363,6.2463,6.2494,6.2494,6.2459,6.2459,6.2424,6.2389,6.2389,6.2587,6.3073,6.3396,6.3555,6.3591,6.3555,6.352,6.352,6.3271,6.2917,6.2752,6.2494,6.2013,6.1142,6.1138,6.0889,6.0282,6.0529,6.0751,6.0751,6.1105,6.1458,6.1631,6.1876,6.2024,6.2185,6.1784,6.1532,6.1396,5.9993,5.9307,5.9344,6.0162,6.0173,5.9615,6.0638,6.0429,4.1123,4.2809,4.4346,4.4924,4.644,4.7953,4.8612,0.0,0.0,0.0,0.0,0.0,0.0,0.0,0.0,0.0,0.0,0.0,0.0,0.0,0.0,0.0,0.0,0.0,0.0,0.0,0.0,0.0,0.0,0.0,5.8966,5.9608,6.0155,6.0597,6.0244,5.9993,5.9937,5.9731,5.9701,5.987,6.006,6.0189,6.0255,6.0441,6.0547,6.0645,6.0803,6.0846,6.0882,6.0903,6.0903,6.0691,6.0838,6.0879,6.0949,6.1195,6.1476,6.1687,6.1687,6.1687,6.1687,6.1488,6.1355,6.1325,6.1812,6.202,6.1915,6.1593,6.1936,6.2143,6.116,6.13,6.1647,6.1184,6.1206,6.1298,6.161,6.2577,6.3377,6.3377,6.3377,6.3234,6.277,6.2844,6.2493,6.1312,6.127,6.1142,6.0338,6.0233,6.0194,6.0107,6.0423,6.0397,5.9987,6.0772,6.1229,6.1118,6.1245,6.1511,6.1784,6.0903,6.0387,6.0296,5.8755,5.8501,5.97,5.9566,5.9615,5.9749,5.9539,5.9087,4.039,4.1565,4.2772,0.0,4.4669,4.6001,4.6922,0.0,0.0,0.0,0.0,0.0,0.0,0.0,0.0,0.0,0.0,0.0,0.0,0.0,0.0,0.0,0.0,0.0,0.0,0.0,0.0,0.0,0.0,0.0,5.8118,5.8816,5.9394,5.9716,5.9327,5.9075,5.8908,5.8988,5.8921,5.8804,5.9597,5.9689,5.9258,5.9823,6.007,6.007,6.0008,5.9972,6.0105,6.0727,6.041,5.9628,6.0276,6.0036,5.9405,5.9931,6.0282,6.0528,6.0528,6.0704,6.0779,6.0303,6.0035,6.0004,6.0282,6.0352,6.0314,5.9988,6.0393,6.0598,5.958,5.9931,6.0522,6.0403,6.0485,6.0671,6.0757,6.1757,6.2628,6.2688,6.2474,6.2117,6.1617,6.1483,6.0999,5.9628,5.9838,5.9958,5.9434,5.9609,5.9814,6.0171,6.0176,6.0033,5.974,6.0304,6.0572,6.0394,6.0674,6.093,6.1275,6.0374,5.9887,5.9801,5.7946,5.7574,5.8896,5.8288,5.819,5.8651,5.7804,5.7097,0.0,0.0,0.0,0.0,0.0,0.0,4.5773,0.0,0.0,0.0,0.0,0.0,0.0,0.0,0.0,0.0,0.0,0.0,0.0,0.0,0.0,0.0,0.0,0.0,0.0,0.0,0.0,0.0,0.0,5.7596,5.7928,5.8261,5.8609,5.8928,5.8892,5.8836,5.8667,5.9277,5.955,5.937,5.9999,5.9875,5.8983,5.8983,5.8983,5.8983,5.91,5.91,5.9018,5.998,5.9354,5.7895,5.8702,5.8527,5.7825,5.7825,5.8281,5.8983,5.8983,5.944,5.9832,5.8676,5.8368,5.8263,5.7532,5.7289,5.7352,5.7666,5.779,5.779,5.779,5.8386,5.9222,6.0086,6.045,6.06,6.0686,6.0903,6.1117,6.127,6.0683,6.011,6.011,5.9238,5.8332,5.7851,5.8107,5.8403,5.8368,5.9064,5.9748,6.0262,5.9805,5.949,5.9786,5.9562,5.9456,5.9579,6.009,6.043,6.0535,6.0246,6.0054,6.0013,5.759,5.6413,5.6638,5.6175,5.597,5.5921,5.5257,5.4382,3.872,0.0,0.0,0.0,0.0,0.0,0.0,0.0,0.0,0.0,0.0,0.0,0.0,0.0,0.0,0.0,0.0,0.0,0.0,0.0,0.0,0.0,0.0,0.0,0.0,0.0,0.0,0.0,5.6134,5.658,5.6376,5.7046,5.7348,5.6985,5.7061,5.7311,5.7676,5.8039,5.8374,5.8733,5.8923,5.8744,5.829,5.829,5.8229,5.8141,5.829,5.7912,5.7403,5.9522,5.9699,5.8597,5.8555,5.8078,5.7479,5.7479,5.7681,5.7989,5.7989,5.8094,5.8171,5.7607,5.7473,5.7567,5.723,5.7161,5.7248,5.6877,5.7307,5.779,5.779,5.7965,5.8237,5.8571,5.8789,5.9005,5.9112,5.9692,6.0474,6.1163,6.0683,6.0146,6.0316,5.9352,5.8508,5.8118,5.8027,5.7919,5.7758,5.8031,5.8359,5.8607,5.8816,5.8752,5.8351,5.9078,5.9465,5.9187,5.9491,5.9504,5.905,5.9185,5.8899,5.8099,5.6796,5.6034,5.5742,5.4967,5.4687,5.4977,5.4574,5.3547,3.8911,3.9571,0.0,0.0,0.0,0.0,4.3888,4.4777,0.0,0.0,0.0,0.0,0.0,0.0,0.0,0.0,0.0,0.0,0.0,0.0,0.0,0.0,0.0,0.0,0.0,0.0,0.0,5.4688,5.5529,5.5964,5.5764,5.6361,5.6546,5.6197,5.6684,5.6898,5.6837,5.7626,5.7982,5.801,5.8307,5.8155,5.7659,5.7659,5.7599,5.754,5.7659,5.7588,5.7409,5.8905,5.8677,5.7412,5.7514,5.7039,5.6314,5.6314,5.6621,5.706,5.706,5.7234,5.7381,5.6843,5.6773,5.6767,5.6356,5.6314,5.6369,5.6099,5.649,5.7032,5.7409,5.748,5.7645,5.8142,5.8273,5.8391,5.853,5.9037,5.9688,6.0741,6.0239,5.9757,5.9924,5.8824,5.7739,5.7304,5.7388,5.7419,5.714,5.7579,5.7832,5.7812,5.7747,5.7473,5.6958,5.7309,5.7556,5.7423,5.7657,5.7655,5.7309,5.7992,5.785,5.6829,5.6307,5.5238,5.3636,5.3344,5.3159,5.3131,5.308,5.2462,3.9683,3.9756,4.0124,0.0,0.0,0.0,4.2729,4.2789,4.2834,0.0,0.0,0.0,0.0,0.0,0.0,0.0,0.0,0.0,0.0,0.0,0.0,0.0,0.0,0.0,0.0,5.4992,5.5139,5.5199,5.5413,5.559,5.5901,5.6106,5.6197,5.6197,5.7041,5.7112,5.6339,5.7654,5.8045,5.7477,5.8,5.7836,5.7127,5.7056,5.6963,5.6963,5.7135,5.7433,5.7919,5.7919,5.681,5.5269,5.5942,5.5602,5.4687,5.4687,5.5139,5.5827,5.5897,5.6279,5.6662,5.6105,5.5862,5.575,5.5209,5.5059,5.5154,5.5413,5.5625,5.5883,5.6728,5.6963,5.7198,5.8023,5.8259,5.8294,5.8503,5.8595,5.8959,6.0084,5.9617,5.9132,5.9258,5.787,5.651,5.5928,5.6347,5.6564,5.6329,5.7022,5.7458,5.7148,5.6525,5.5973,5.5707,5.5135,5.493,5.5212,5.544,5.5581,5.5681,5.6751,5.6871,5.5932,5.5544,5.3939,5.1066,5.1646,5.1615,5.1035,5.1296,5.1383,0.0,0.0,0.0,0.0,0.0,0.0,4.3523,4.37,4.4155,0.0,0.0,0.0,0.0,0.0,0.0,0.0,0.0,0.0,0.0,0.0,0.0,0.0,0.0,0.0,0.0,5.4717,5.4807,5.5199,5.5472,5.5706,5.5901,5.6106,5.6197,5.6197,5.6395,5.668,5.7086,5.737,5.7761,5.8259,5.7911,5.7534,5.7206,5.6638,5.6298,5.6148,5.6354,5.5993,5.5305,5.5419,5.5273,5.5018,5.5104,5.4094,5.2605,5.2605,5.2831,5.3316,5.3905,5.3862,5.3669,5.4156,5.3878,5.3495,5.4126,5.4325,5.4489,5.5414,5.5648,5.5742,5.6056,5.6148,5.6184,5.6325,5.651,5.6801,5.7463,5.7774,5.8303,5.9367,5.8952,5.8481,5.8689,5.7297,5.601,5.5737,5.5044,5.4545,5.4327,5.4579,5.4831,5.4811,5.4876,5.4936,5.4842,5.4907,5.5073,5.535,5.544,5.5244,5.4917,5.5692,5.5681,5.4785,5.2951,5.1683,5.0926,5.0928,5.0843,5.0596,5.0695,5.1052,0.0,0.0,0.0,4.2013,0.0,0.0,0.0,4.2517,4.2513,0.0,0.0,0.0,0.0,0.0,0.0,0.0,0.0,0.0,0.0,0.0,0.0,0.0,0.0,0.0,0.0,5.3028,5.3182,5.4805,5.5142,5.5313,5.5446,5.5593,5.547,5.5024,5.5771,5.6162,5.6126,5.6851,5.7335,5.7448,5.7056,5.6934,5.6918,5.6114,5.5703,5.5632,5.5275,5.4775,5.4201,5.4256,5.3979,5.3521,5.3704,5.3151,5.2252,5.2035,5.2131,5.2287,5.2727,5.2987,5.3177,5.3739,5.3962,5.3962,5.4139,5.4291,5.4547,5.5552,5.5879,5.5993,5.6106,5.6162,5.6162,5.6162,5.6217,5.638,5.6882,5.7064,5.7424,5.8156,5.8042,5.7964,5.8601,5.7242,5.5993,5.5743,5.4891,5.4235,5.4028,5.4132,5.4092,5.385,5.3927,5.3881,5.3616,5.3675,5.3826,5.4099,5.4018,5.3822,5.3355,5.4454,5.4663,5.3732,5.2045,5.0715,4.9693,4.9554,4.9627,4.9791,4.9826,5.004,0.0,0.0,0.0,0.0,0.0,4.089,0.0,0.0,0.0,0.0,0.0,0.0,0.0,0.0,0.0,0.0,0.0,0.0,0.0,0.0,0.0,0.0,0.0,0.0,0.0,5.0803,5.1227,5.3752,5.415,5.4313,5.4456,5.4759,5.4688,5.4082,5.5131,5.5486,5.4989,5.612,5.6425,5.59,5.5988,5.6043,5.6098,5.5383,5.5062,5.5131,5.4382,5.3904,5.3602,5.3602,5.2927,5.1911,5.238,5.2358,5.1924,5.1683,5.1588,5.1623,5.1882,5.2382,5.2918,5.3509,5.4104,5.4524,5.4186,5.4323,5.4776,5.549,5.5836,5.6004,5.6114,5.6169,5.6204,5.6347,5.6383,5.6527,5.6779,5.6761,5.6848,5.7406,5.7338,5.7437,5.819,5.7013,5.5849,5.546,5.4675,5.4071,5.3871,5.3922,5.3806,5.3339,5.3231,5.3026,5.2552,5.248,5.2572,5.2761,5.2672,5.2397,5.2013,5.312,5.3371,5.2547,5.1435,5.0073,4.8551,4.8191,4.8436,4.9172,4.9066,4.9137,0.0,0.0,0.0,0.0,4.1574,0.0,0.0,0.0,0.0,0.0,0.0,0.0,0.0,0.0,0.0,0.0,0.0,0.0,0.0,0.0,0.0,0.0,0.0,0.0,0.0,0.0,4.9508,5.1492,5.2044,5.2328,5.235,5.3488,5.442,5.5009,5.4403,5.4384,5.4989,5.5202,5.4882,5.41,5.4919,5.5009,5.4486,5.4327,5.4394,5.4532,5.4271,5.3739,5.3028,5.2873,5.2254,5.1458,5.1911,5.1268,5.0007,5.0125,5.0066,5.011,5.1094,5.1095,5.092,5.1899,5.2292,5.2467,5.312,5.3901,5.467,5.4853,5.5056,5.5131,5.5294,5.5348,5.5526,5.624,5.6492,5.6779,5.7658,5.7385,5.7304,5.8383,5.7364,5.6418,5.6635,5.5942,5.501,5.4085,5.3182,5.2534,5.2534,5.2534,5.2546,5.2578,5.2625,5.2589,5.2516,5.248,5.2526,5.259,5.2536,5.2344,5.2013,5.1584,5.1136,5.0858,4.9683,4.896,4.864,4.7644,4.789,4.9269,4.8639,4.9067,0.0,0.0,0.0,0.0,0.0,0.0,0.0,0.0,3.9719,0.0,0.0,0.0,0.0,0.0,0.0,0.0,0.0,0.0,0.0,0.0,0.0,0.0,0.0,0.0,0.0,0.0,0.0,0.0,0.0,4.8872,5.0649,5.1179,5.1951,5.3032,5.3069,5.3282,5.3673,5.41,5.4189,5.4028,5.4454,5.4522,5.4403,5.3922,5.3504,5.3171,5.2521,5.1825,5.1095,5.1464,5.1365,5.093,5.1047,5.0751,5.0194,4.9965,4.9825,4.9801,5.0437,5.0783,5.1141,5.2362,5.2438,5.2172,5.3168,5.3419,5.3474,5.4044,5.4367,5.458,5.4633,5.4685,5.4916,5.5757,5.5989,5.6293,5.7241,5.7237,5.7152,5.734,5.6806,5.6041,5.5139,5.4692,5.4309,5.3889,5.3023,5.2423,5.2423,5.2423,5.247,5.248,5.248,5.248,5.248,5.248,5.2345,5.1972,5.1188,5.0842,5.1197,5.0472,5.0031,4.9907,4.9258,4.8562,4.7911,4.7366,4.766,4.8639,4.7807,4.7772,4.3814,0.0,0.0,0.0,0.0,0.0,0.0,0.0,0.0,0.0,0.0,0.0,0.0,0.0,0.0,0.0,0.0,0.0,0.0,0.0,0.0,0.0,0.0,0.0,0.0,0.0,0.0,0.0,4.4857,4.5734,4.8379,4.8924,4.9837,5.1379,5.1785,5.2268,5.273,5.33,5.3547,5.3591,5.3806,5.3907,5.3904,5.3098,5.2414,5.1979,5.1009,5.0279,4.9811,5.034,5.0509,5.0402,5.0222,5.0145,5.0152,4.998,4.985,4.9884,5.0285,5.0837,5.1472,5.2459,5.2392,5.2021,5.3033,5.2999,5.2732,5.3406,5.3758,5.3964,5.3964,5.4015,5.4331,5.5086,5.5317,5.5599,5.6328,5.6536,5.6588,5.6244,5.5905,5.5358,5.4237,5.3954,5.3826,5.3525,5.2925,5.248,5.248,5.248,5.248,5.248,5.2299,5.2154,5.2154,5.1973,5.162,5.1165,4.9997,4.961,5.0195,4.9548,4.9184,4.9105,4.8867,4.8285,4.7407,4.7312,4.7465,4.7911,4.7201,4.7013,0.0,0.0,0.0,4.116,0.0,0.0,0.0,0.0,3.9986,0.0,0.0,0.0,0.0,0.0,0.0,0.0,0.0,0.0,0.0,0.0,0.0,0.0,0.0,0.0,0.0,0.0,0.0,4.2226,4.273,4.3565,4.5082,4.6795,4.8835,5.114,5.0773,5.1315,5.285,5.2921,5.258,5.1979,5.2767,5.288,5.2365,5.1571,5.122,5.1285,5.0353,4.9947,4.9866,4.9775,4.9729,4.9683,4.9448,4.9256,4.9217,4.9694,5.0045,5.0228,5.0873,5.1176,5.1334,5.1369,5.1369,5.1475,5.2377,5.2747,5.2937,5.3003,5.3189,5.3324,5.3324,5.3324,5.3504,5.4245,5.4625,5.487,5.5051,5.5192,5.5332,5.5566,5.4683,5.3954,5.418,5.4,5.3562,5.2707,5.2516,5.248,5.248,5.248,5.248,5.248,5.1792,5.1321,5.1321,5.0597,5.0162,5.0126,4.9543,4.9232,4.9232,4.8781,4.8418,4.8224,4.8068,4.7907,4.7657,4.7407,4.732,4.7312,4.7088,4.739,0.0,0.0,4.4558,4.3746,0.0,0.0,0.0,0.0,0.0,0.0,0.0,0.0,0.0,0.0,0.0,0.0,0.0,0.0,0.0,0.0,0.0,0.0,0.0,0.0,0.0,0.0,0.0,3.9496,3.9389,4.0516,0.0,4.4119,4.5736,4.8816,4.9161,4.9959,5.128,5.078,5.1021,5.2054,5.1802,5.161,5.1637,5.1384,5.066,4.9691,4.9394,4.8916,4.8482,4.8945,4.9161,4.9117,4.8892,4.9088,4.9496,4.921,4.9082,4.924,5.0136,5.0571,5.0895,5.1479,5.1658,5.1643,5.2144,5.2251,5.2251,5.2364,5.2497,5.2678,5.2678,5.269,5.3002,5.3809,5.4085,5.4324,5.4974,5.5304,5.5294,5.4781,5.4452,5.3997,5.3361,5.3117,5.2954,5.2618,5.2526,5.248,5.248,5.2045,5.1719,5.1719,5.0995,5.0488,5.0488,4.9764,4.9336,4.9507,4.879,4.851,4.8708,4.8566,4.8419,4.8267,4.8187,4.7988,4.7699,4.7529,4.7407,4.732,4.7232,4.7331,4.6587,4.6378,0.0,4.5194,4.4097,0.0,4.2207,0.0,0.0,0.0,0.0,0.0,0.0,0.0,0.0,3.6136,3.468,0.0,0.0,0.0,0.0,0.0,0.0,0.0,0.0,0.0,3.5513,3.6993,3.6821,3.8147,0.0,0.0,4.3952,4.7018,4.8025,4.9072,5.0115,4.9615,5.0044,5.1286,5.0782,5.0669,5.085,5.056,4.9872,4.8894,4.8605,4.8206,4.7735,4.8279,4.8453,4.8374,4.8163,4.8353,4.8765,4.859,4.8629,4.8947,4.9593,5.0004,5.0354,5.1275,5.1477,5.1513,5.203,5.2102,5.2054,5.2198,5.234,5.2434,5.2434,5.2526,5.2727,5.3372,5.3526,5.3644,5.3989,5.4202,5.4069,5.3176,5.3072,5.2889,5.2206,5.1887,5.1863,5.2109,5.2137,5.1982,5.1692,5.1221,5.0895,5.0895,5.017,4.9546,4.9257,4.8786,4.8581,4.8712,4.8243,4.8111,4.8381,4.8457,4.8419,4.8304,4.8265,4.8108,4.7824,4.7705,4.7621,4.7578,4.7578,4.7578]},{"header":{"parameterUnit":"m.s-1","parameterCategory":1,"la1":30.6,"la2":29.2853,"lo1":-89.7004,"lo2":-87.6739,"dy":0.0162,"dx":0.0183,"nx":112,"ny":82,"refTime":"2023-04-09T00:00:00:Z","depth":0,"parameterNumber":3,"parameterNumberName":"V-component_of_WINDS"},"data":[0.0,0.0,0.0,0.0,0.0,0.0,0.0,0.0,0.0,0.0,0.0,0.0,0.0,0.0,0.0,0.0,0.0,0.0,0.0,0.0,0.0,0.0,0.0,0.0,0.0,0.0,0.0,0.0,0.0,0.0,0.0,0.0,0.0,0.0,0.0,0.0,0.0,0.0,0.0,0.0,0.0,0.0,0.0,0.0,0.0,0.0,0.0,0.0,0.0,0.0,0.0,0.0,0.0,0.0,0.0,0.0,0.0,0.0,0.0,0.0,0.0,0.0,0.0,0.0,0.0,0.0,0.0,0.0,0.0,0.0,0.0,0.0,0.0,0.0,0.0,0.0,0.0,0.0,0.0,0.0,0.0,0.0,0.0,0.0,0.0,0.0,0.0,0.0,0.0,0.0,0.0,1.9959,2.2001,2.3365,2.3554,2.3242,2.2601,2.117,0.0,0.0,0.0,0.0,0.0,0.0,0.0,0.0,0.0,0.0,0.0,0.0,0.0,0.0,0.0,0.0,0.0,0.0,0.0,0.0,0.0,0.0,0.0,0.0,0.0,0.0,0.0,0.0,0.0,0.0,0.0,0.0,0.0,0.0,0.0,0.0,0.0,0.0,0.0,0.0,0.0,0.0,0.0,0.0,0.0,0.0,0.0,0.0,0.0,0.0,0.0,0.0,0.0,0.0,0.0,0.0,0.0,0.0,0.0,0.0,0.0,0.0,0.0,0.0,0.0,0.0,0.0,0.0,0.0,0.0,0.0,0.0,0.0,0.0,0.0,0.0,0.0,0.0,0.0,0.0,0.0,0.0,0.0,0.0,0.0,0.0,0.0,0.0,0.0,0.0,0.0,0.0,0.0,0.0,0.0,0.0,0.0,0.0,0.0,0.0,0.0,0.0,0.0,0.0,2.0129,2.3137,2.4277,2.4888,2.4894,2.4544,2.3387,2.1603,0.0,0.0,0.0,0.0,0.0,0.0,0.0,0.0,0.0,0.0,0.0,0.0,0.0,0.0,0.0,0.0,0.0,0.0,0.0,0.0,0.0,0.0,0.0,0.0,0.0,0.0,0.0,0.0,0.0,0.0,0.0,0.0,0.0,0.0,0.0,0.0,0.0,0.0,0.0,0.0,0.0,0.0,0.0,0.0,0.0,0.0,0.0,0.0,0.0,0.0,0.0,0.0,0.0,0.0,0.0,0.0,0.0,0.0,0.0,0.0,0.0,0.0,0.0,0.0,0.0,0.0,0.0,0.0,0.0,0.0,0.0,0.0,0.0,0.0,0.0,0.0,0.0,0.0,0.0,0.0,0.0,0.0,0.0,0.0,0.0,0.0,0.0,0.0,0.0,0.0,0.0,0.0,0.0,0.0,0.0,0.0,0.0,0.0,0.0,0.0,0.0,0.0,0.0,1.9413,2.1604,2.4012,2.4736,2.5174,2.5348,2.4931,2.4031,2.2315,2.0358,0.0,0.0,0.0,0.0,0.0,0.0,0.0,0.0,0.0,0.0,0.0,0.0,0.0,0.0,0.0,0.0,0.0,0.0,0.0,0.0,0.0,0.0,0.0,0.0,0.0,0.0,0.0,0.0,0.0,0.0,0.0,0.0,0.0,0.0,0.0,0.0,0.0,0.0,0.0,0.0,0.0,0.0,0.0,0.0,0.0,0.0,0.0,0.0,0.0,0.0,0.0,0.0,0.0,0.0,0.0,0.0,0.0,0.0,0.0,0.0,0.0,0.0,0.0,0.0,0.0,0.0,0.0,0.0,0.0,0.0,0.0,0.0,0.0,0.0,0.0,0.0,0.0,0.0,0.0,0.0,0.0,0.0,0.0,0.0,0.0,0.0,0.0,0.0,0.0,0.0,0.0,0.0,0.0,0.0,0.0,0.0,0.0,0.0,0.0,0.0,0.0,0.0,2.1323,2.2961,2.4664,2.5135,2.5525,2.5858,2.5295,2.4253,2.2741,2.0687,0.0,0.0,0.0,0.0,0.0,0.0,0.0,0.0,0.0,0.0,0.0,0.0,0.0,0.0,0.0,0.0,0.0,0.0,0.0,0.0,0.0,0.0,0.0,0.0,0.0,0.0,0.0,0.0,0.0,0.0,0.0,0.0,0.0,0.0,0.0,0.0,0.0,0.0,0.0,0.0,0.0,0.0,0.0,0.0,0.0,0.0,0.0,0.0,0.0,0.0,0.0,0.0,0.0,0.0,0.0,0.0,0.0,0.0,0.0,0.0,0.0,0.0,0.0,0.0,0.0,0.0,0.0,0.0,0.0,0.0,0.0,0.0,0.0,0.0,0.0,0.0,0.0,0.0,0.0,0.0,0.0,0.0,0.0,0.0,0.0,0.0,0.0,0.0,0.0,0.0,0.0,0.0,0.0,0.0,0.0,0.0,0.0,0.0,0.0,0.0,0.0,0.0,2.1528,2.3599,2.5299,2.6079,2.6769,2.7282,2.5843,2.4175,2.2315,2.0072,0.0,0.0,0.0,0.0,0.0,0.0,0.0,0.0,0.0,0.0,0.0,0.0,0.0,0.0,0.0,0.0,0.0,0.0,0.0,0.0,0.0,0.0,0.0,0.0,0.0,0.0,0.0,0.0,0.0,0.0,0.0,0.0,0.0,0.0,0.0,0.0,0.0,0.0,0.0,0.0,0.0,0.0,0.0,0.0,0.0,0.0,0.0,0.0,0.0,0.0,0.0,0.0,0.0,0.0,0.0,0.0,0.0,0.0,0.0,0.0,0.0,0.0,0.0,0.0,0.0,0.0,0.0,0.0,0.0,0.0,0.0,0.0,0.0,0.0,0.0,0.0,0.0,0.0,0.0,0.0,0.0,0.0,0.0,0.0,0.0,0.0,0.0,0.0,0.0,0.0,0.0,0.0,0.0,0.0,0.0,0.0,0.0,0.0,0.0,0.0,0.0,0.0,2.2506,2.4541,0.0,2.6384,2.6672,2.7015,2.6186,2.4586,2.2421,0.0,0.0,0.0,0.0,0.0,0.0,0.0,0.0,0.0,0.0,0.0,0.0,0.0,0.0,0.0,0.0,0.0,0.0,0.0,0.0,0.0,0.0,0.0,0.0,0.0,0.0,0.0,0.0,0.0,0.0,0.0,0.0,0.0,0.0,0.0,0.0,0.0,0.0,0.0,0.0,0.0,0.0,0.0,0.0,0.0,0.0,0.0,0.0,0.0,0.0,0.0,0.0,0.0,0.0,0.0,0.0,0.0,0.0,0.0,0.0,0.0,0.0,0.0,0.0,0.0,0.0,0.0,0.0,0.0,0.0,0.0,0.0,0.0,0.0,0.0,0.0,0.0,0.0,0.0,0.0,0.0,0.0,0.0,0.0,0.0,0.0,0.0,0.0,0.0,0.0,0.0,0.0,0.0,0.0,0.0,0.0,0.0,0.0,0.0,0.0,0.0,0.0,2.0984,2.3332,2.5413,0.0,2.7,2.7224,2.7311,2.6743,2.5139,2.2576,0.0,0.0,0.0,0.0,0.0,0.0,0.0,0.0,0.0,0.0,0.0,0.0,0.0,0.0,0.0,0.0,0.0,0.0,0.0,0.0,0.0,0.0,0.0,0.0,0.0,0.0,0.0,0.0,0.0,0.0,0.0,0.0,0.0,0.0,0.0,0.0,0.0,0.0,0.0,0.0,0.0,0.0,0.0,0.0,0.0,0.0,0.0,0.0,0.0,0.0,0.0,0.0,0.0,0.0,0.0,0.0,0.0,0.0,0.0,0.0,0.0,0.0,0.0,0.0,0.0,0.0,0.0,0.0,0.0,0.0,0.0,0.0,0.0,0.0,0.0,0.0,0.0,0.0,0.0,0.0,0.0,0.0,0.0,0.0,0.0,0.0,0.0,0.0,0.0,0.0,0.0,0.0,0.0,0.0,0.0,0.0,0.0,0.0,0.0,0.0,0.0,0.0,2.1007,2.3964,2.6401,2.7503,2.7963,2.823,2.8613,2.7679,2.581,0.0,0.0,0.0,0.0,0.0,0.0,0.0,0.0,0.0,0.0,0.0,0.0,0.0,0.0,0.0,0.0,0.0,0.0,0.0,0.0,0.0,0.0,0.0,0.0,0.0,0.0,0.0,0.0,0.0,0.0,0.0,0.0,0.0,0.0,0.0,0.0,0.0,0.0,0.0,0.0,0.0,0.0,0.0,0.0,0.0,0.0,0.0,0.0,0.0,0.0,0.0,0.0,0.0,0.0,0.0,0.0,0.0,0.0,0.0,0.0,0.0,0.0,0.0,0.0,0.0,0.0,0.0,0.0,0.0,0.0,0.0,0.0,0.0,0.0,0.0,0.0,0.0,0.0,0.0,0.0,0.0,0.0,0.0,0.0,0.0,0.0,0.0,0.0,0.0,0.0,0.0,0.0,0.0,0.0,0.0,0.0,0.0,0.0,0.0,0.0,0.0,0.0,0.0,2.2023,2.4714,2.6796,2.7963,2.8083,2.8063,2.7635,2.7565,2.631,2.3771,0.0,0.0,0.0,0.0,0.0,0.0,0.0,0.0,0.0,0.0,0.0,0.0,0.0,0.0,0.0,0.0,0.0,0.0,0.0,0.0,0.0,0.0,0.0,0.0,0.0,0.0,0.0,0.0,0.0,0.0,0.0,0.0,0.0,0.0,0.0,0.0,0.0,0.0,0.0,0.0,0.0,0.0,0.0,0.0,0.0,0.0,0.0,0.0,0.0,0.0,0.0,0.0,0.0,0.0,0.0,0.0,0.0,0.0,0.0,0.0,0.0,0.0,0.0,0.0,0.0,0.0,0.0,0.0,0.0,0.0,0.0,0.0,0.0,0.0,0.0,0.0,0.0,0.0,0.0,0.0,0.0,0.0,0.0,0.0,0.0,0.0,0.0,0.0,0.0,0.0,0.0,0.0,0.0,0.0,0.0,0.0,0.0,0.0,0.0,0.0,0.0,0.0,2.2449,2.5185,2.745,2.8601,2.8642,2.8618,2.8304,2.8149,2.7175,2.4754,0.0,0.0,0.0,0.0,0.0,0.0,0.0,0.0,0.0,0.0,0.0,0.0,0.0,0.0,0.0,0.0,0.0,0.0,0.0,0.0,0.0,0.0,0.0,0.0,0.0,0.0,0.0,0.0,0.0,0.0,0.0,0.0,0.0,0.0,0.0,0.0,0.0,0.0,0.0,0.0,0.0,0.0,0.0,0.0,0.0,0.0,0.0,0.0,0.0,0.0,0.0,0.0,0.0,0.0,0.0,0.0,0.0,0.0,0.0,0.0,0.0,0.0,0.0,0.0,0.0,0.0,0.0,0.0,0.0,0.0,0.0,0.0,0.0,0.0,0.0,0.0,0.0,0.0,0.0,0.0,0.0,0.0,0.0,0.0,0.0,0.0,0.0,0.0,0.0,0.0,0.0,0.0,0.0,0.0,0.0,0.0,0.0,0.0,0.0,0.0,0.0,0.0,2.2627,2.566,2.8149,2.9286,2.9481,2.9536,2.9556,2.9406,2.8114,2.558,0.0,0.0,0.0,0.0,0.0,0.0,0.0,0.0,0.0,0.0,0.0,0.0,0.0,0.0,0.0,0.0,0.0,0.0,0.0,0.0,0.0,0.0,0.0,0.0,0.0,0.0,0.0,0.0,0.0,0.0,0.0,0.0,0.0,0.0,0.0,0.0,0.0,0.0,0.0,0.0,0.0,0.0,0.0,0.0,0.0,0.0,0.0,0.0,0.0,0.0,0.0,0.0,0.0,0.0,0.0,0.0,0.0,0.0,0.0,0.0,1.839,0.0,0.0,0.0,0.0,0.0,0.0,0.0,0.0,0.0,0.0,0.0,0.0,0.0,0.0,0.0,0.0,0.0,0.0,0.0,0.0,0.0,0.0,0.0,0.0,0.0,0.0,0.0,0.0,0.0,0.0,0.0,0.0,0.0,0.0,0.0,0.0,0.0,0.0,0.0,0.0,0.0,2.2923,2.6144,2.8495,2.8964,2.9663,2.9869,2.9226,2.9243,2.8542,2.6799,0.0,0.0,0.0,0.0,0.0,0.0,0.0,0.0,0.0,0.0,0.0,0.0,0.0,0.0,0.0,0.0,0.0,0.0,0.0,0.0,0.0,0.0,0.0,0.0,0.0,0.0,0.0,0.0,0.0,0.0,0.0,0.0,0.0,0.0,0.0,0.0,0.0,0.0,0.0,0.0,0.0,0.0,0.0,0.0,0.0,0.0,0.0,0.0,0.0,0.0,0.0,0.0,0.0,0.0,0.0,0.0,0.0,0.0,0.0,0.0,0.0,1.9955,0.0,0.0,0.0,0.0,0.0,0.0,0.0,0.0,0.0,0.0,0.0,0.0,0.0,0.0,0.0,0.0,0.0,0.0,0.0,0.0,0.0,0.0,0.0,0.0,0.0,0.0,0.0,0.0,0.0,0.0,0.0,0.0,0.0,0.0,0.0,0.0,0.0,0.0,0.0,0.0,2.3453,2.6725,2.9088,2.9561,2.9973,3.0336,3.015,2.9414,2.8537,2.7755,2.6254,0.0,0.0,0.0,0.0,0.0,0.0,0.0,0.0,0.0,0.0,0.0,0.0,0.0,0.0,0.0,0.0,0.0,0.0,0.0,0.0,0.0,0.0,0.0,0.0,0.0,0.0,0.0,0.0,0.0,0.0,0.0,0.0,0.0,0.0,0.0,0.0,0.0,0.0,0.0,0.0,0.0,0.0,0.0,0.0,0.0,0.0,0.0,0.0,0.0,0.0,0.0,0.0,0.0,0.0,2.2697,2.3457,2.3754,2.4059,2.4267,2.3305,2.2483,2.1855,0.0,0.0,0.0,0.0,0.0,0.0,0.0,0.0,0.0,0.0,0.0,0.0,0.0,0.0,0.0,0.0,0.0,0.0,0.0,0.0,0.0,0.0,0.0,0.0,0.0,2.5184,2.4568,0.0,0.0,0.0,0.0,0.0,0.0,0.0,0.0,0.0,0.0,0.0,0.0,2.4025,2.7131,2.9501,3.0363,3.0596,3.0749,3.13,2.9807,2.8706,2.8452,2.6849,2.535,0.0,0.0,0.0,0.0,0.0,0.0,0.0,0.0,0.0,0.0,0.0,0.0,0.0,0.0,0.0,0.0,0.0,0.0,0.0,0.0,0.0,0.0,0.0,0.0,0.0,0.0,0.0,0.0,0.0,0.0,0.0,0.0,2.0912,2.0537,0.0,0.0,0.0,0.0,0.0,0.0,0.0,0.0,0.0,0.0,0.0,0.0,0.0,0.0,2.2248,2.3362,2.4,2.4247,2.454,2.4715,2.4803,2.5081,2.5227,2.5271,2.5517,0.0,2.3232,2.2681,0.0,0.0,0.0,0.0,0.0,0.0,0.0,0.0,0.0,0.0,0.0,0.0,0.0,0.0,0.0,0.0,0.0,0.0,0.0,0.0,0.0,0.0,2.4301,2.6054,2.6676,2.6784,0.0,2.4318,2.266,2.2257,0.0,0.0,0.0,0.0,0.0,0.0,0.0,0.0,2.4844,2.729,2.9267,3.0335,3.0566,3.1007,3.1285,3.0188,2.9457,2.9072,2.7693,2.6534,2.604,2.4644,0.0,0.0,0.0,0.0,0.0,0.0,0.0,0.0,0.0,0.0,0.0,0.0,0.0,0.0,0.0,0.0,0.0,0.0,0.0,0.0,0.0,0.0,0.0,0.0,0.0,0.0,0.0,0.0,0.0,2.131,2.1489,2.1075,2.0719,2.0163,0.0,0.0,0.0,0.0,0.0,0.0,0.0,0.0,0.0,2.2196,2.316,2.3839,2.4202,2.4946,2.5511,2.5784,2.6111,2.6186,2.6283,2.6433,2.6598,2.6764,2.6861,2.6433,2.5489,2.45,2.3871,2.3349,0.0,0.0,0.0,0.0,0.0,2.1232,2.2498,0.0,0.0,0.0,0.0,0.0,0.0,0.0,0.0,0.0,0.0,0.0,0.0,0.0,0.0,2.8365,2.8743,2.8838,2.9186,2.7499,2.5688,0.0,2.397,2.2988,2.1569,0.0,0.0,0.0,0.0,0.0,2.6082,2.8426,3.0191,3.0629,3.1123,3.1359,3.1315,3.0397,2.9707,2.9528,2.8165,2.7278,2.7139,2.5951,2.4688,0.0,0.0,0.0,0.0,0.0,0.0,0.0,0.0,0.0,0.0,0.0,0.0,0.0,0.0,0.0,0.0,0.0,0.0,0.0,0.0,0.0,0.0,0.0,0.0,0.0,0.0,0.0,0.0,2.2084,2.2167,2.1723,2.1402,2.0849,0.0,0.0,0.0,0.0,0.0,0.0,2.1996,2.3015,2.3781,2.4303,2.4891,2.5467,2.6026,2.6222,2.6526,2.6937,2.7137,2.7311,2.7372,2.7423,2.7514,2.7727,2.7881,2.7679,2.7352,2.6207,2.5479,2.5062,2.427,2.3607,2.3104,2.3262,2.3386,2.3785,2.5551,2.6856,2.773,2.8131,0.0,2.7486,2.5461,0.0,0.0,0.0,0.0,2.4287,2.55,0.0,2.857,3.0018,3.0373,3.0437,3.0859,2.9743,2.8323,0.0,2.6185,2.5478,2.4155,0.0,0.0,0.0,0.0,2.6002,2.733,2.9363,3.0783,3.1043,3.157,3.1749,3.1498,3.0636,2.9986,2.9986,2.8669,2.8002,2.7931,2.6948,2.5769,2.4426,0.0,0.0,0.0,0.0,0.0,0.0,0.0,0.0,0.0,0.0,0.0,0.0,0.0,0.0,0.0,0.0,0.0,0.0,0.0,0.0,0.0,0.0,0.0,0.0,0.0,0.0,0.0,0.0,0.0,2.2153,2.1813,0.0,0.0,0.0,0.0,2.1598,2.2355,2.303,2.3954,2.5261,2.5922,2.59,2.6647,2.7132,2.7475,2.7379,2.7541,2.7969,2.7865,2.7861,2.7847,2.7955,2.7969,2.7954,2.8187,2.8177,2.8084,2.7447,2.6679,2.6161,2.6453,2.6004,2.5488,2.6258,2.6263,2.6232,2.811,2.8918,2.9464,3.0839,3.0575,2.9561,2.8363,2.737,0.0,0.0,2.6222,2.6205,2.7191,2.8297,2.9399,3.0203,3.0891,3.1367,3.1088,3.09,3.015,0.0,2.68,2.5623,2.5595,0.0,2.402,2.5076,2.5853,2.6796,2.8587,2.9699,3.0719,3.1553,3.1881,3.2005,3.199,3.116,3.0803,3.0803,2.9357,2.8551,2.8574,2.7337,2.6254,2.5772,2.4983,0.0,0.0,0.0,0.0,0.0,0.0,0.0,0.0,0.0,0.0,0.0,0.0,0.0,0.0,0.0,0.0,0.0,0.0,0.0,0.0,0.0,0.0,0.0,0.0,0.0,0.0,0.0,0.0,2.2766,2.2803,0.0,0.0,2.192,2.2311,2.3554,2.3878,2.4554,2.5967,2.6294,2.6706,2.7201,2.7348,2.757,2.8193,2.8372,2.8627,2.878,2.9198,2.9244,2.9128,2.9665,2.986,2.9992,3.0048,2.9681,2.9218,2.8975,2.847,2.7862,2.7723,2.7611,2.7419,2.7675,2.7629,2.7684,2.9345,3.0054,3.0496,3.1212,3.0786,2.9787,2.912,2.8854,2.8675,2.8212,2.8193,2.8578,2.8717,2.9973,3.107,3.1236,3.2097,3.2876,3.2419,3.1904,3.1352,3.0562,2.8983,2.7381,2.6721,2.648,2.6528,2.7158,2.7627,2.8379,2.9644,3.0391,3.1071,3.131,3.1597,3.1786,3.1691,3.1224,3.0744,3.0525,2.9977,2.9454,2.8776,2.8032,2.7213,2.6108,2.497,2.3572,0.0,0.0,0.0,0.0,0.0,0.0,0.0,0.0,0.0,0.0,0.0,0.0,0.0,0.0,0.0,0.0,0.0,0.0,0.0,0.0,0.0,0.0,0.0,0.0,0.0,0.0,2.3834,2.37,2.3947,2.3993,2.3414,2.3619,2.4217,2.5151,2.5576,2.6314,2.7275,2.7484,2.7635,2.8176,2.8086,2.8251,2.8987,2.9064,2.9154,2.9266,2.9837,3.0035,2.975,3.0623,3.0969,3.0969,3.1005,3.0681,3.0227,3.0372,3.0238,2.9872,2.8988,2.8607,2.8591,2.8341,2.8244,2.8253,3.0052,3.1306,3.228,3.2322,3.1935,3.1378,3.085,3.084,3.0724,2.9936,2.979,2.9915,3.0083,3.1011,3.1936,3.2275,3.3133,3.3735,3.283,3.2527,3.2094,3.1588,3.0007,2.8588,2.8429,2.8288,2.8495,2.9061,2.9824,3.0295,3.1028,3.1487,3.184,3.1671,3.1856,3.1919,3.1691,3.112,3.0689,3.0203,3.0086,2.9413,2.8146,2.7976,2.7101,2.5527,2.4475,2.3038,2.1481,0.0,0.0,0.0,0.0,0.0,0.0,0.0,0.0,0.0,0.0,0.0,0.0,0.0,0.0,0.0,0.0,0.0,0.0,0.0,0.0,0.0,0.0,0.0,2.3415,2.4107,2.4641,2.4781,2.5011,2.516,2.4838,2.5697,2.628,2.6295,2.7493,2.8067,2.7814,2.871,2.9054,2.8664,2.878,2.9081,2.9766,2.9333,2.9335,2.9625,2.9961,2.9974,2.9649,3.0557,3.1022,3.1006,3.0985,3.1121,3.1121,3.1548,3.1826,3.1918,3.0136,2.9564,2.9396,2.876,2.8191,2.8173,3.0375,3.2773,3.4899,3.411,3.4084,3.4361,3.3554,3.2977,3.2465,3.1628,3.0823,3.0389,3.1059,3.1323,3.1799,3.2928,3.3785,3.4009,3.243,3.2576,3.2665,3.1086,2.9745,2.9443,3.0721,3.0035,2.977,3.1044,3.1856,0.0,3.2991,3.2925,3.2823,3.3006,3.2678,3.2349,3.2005,3.1377,3.0691,2.9881,2.9573,2.8633,2.6763,2.6766,2.6006,2.4193,2.3458,2.2331,2.056,0.0,0.0,0.0,0.0,0.0,0.0,0.0,0.0,0.0,0.0,0.0,0.0,0.0,0.0,0.0,0.0,0.0,0.0,0.0,0.0,0.0,0.0,2.3349,2.3322,2.4255,2.5093,2.5342,2.5618,2.5928,2.6098,2.6445,2.6969,2.8019,2.8129,2.8691,2.9665,2.9414,2.9205,2.9015,2.9302,2.9471,2.9655,3.0068,3.042,3.0552,3.0646,3.0846,3.0998,3.1507,3.2057,3.2591,3.2642,3.2309,3.1794,3.2524,3.2651,3.2492,3.2251,3.2204,3.2187,3.1941,3.21,3.2256,3.3173,3.4108,3.499,3.477,3.4557,3.4415,3.3892,3.3058,3.2137,3.1318,3.0473,2.9833,2.9655,3.098,3.2243,3.2339,3.3702,3.5015,3.4283,3.4259,3.4366,3.4132,3.3028,3.2104,3.1482,3.1401,3.169,3.1915,0.0,0.0,3.3335,3.3073,3.2823,3.3006,3.2333,3.2008,3.2005,3.1253,3.0616,2.9895,2.9998,2.937,2.7877,2.8133,2.7228,2.4794,2.33,2.1987,0.0,0.0,0.0,0.0,0.0,0.0,0.0,0.0,0.0,0.0,0.0,0.0,0.0,0.0,0.0,0.0,0.0,0.0,0.0,0.0,0.0,0.0,2.4186,2.4657,2.4436,2.5308,2.5965,2.6448,2.68,2.7122,2.7327,2.7673,2.8114,2.8948,2.9026,2.9518,3.0306,2.9923,2.9586,2.9452,2.9787,2.9942,2.9945,3.062,3.0914,3.1146,3.13,3.1686,3.2122,3.2736,3.3381,0.0,3.3737,3.3534,3.3044,3.3644,3.3759,0.0,0.0,0.0,0.0,0.0,3.3226,3.4231,3.4269,3.4849,3.5504,3.5484,3.5504,3.5338,3.5061,3.4425,3.3631,3.286,3.2103,3.1437,3.1478,3.2232,3.3084,3.3388,3.4542,3.5305,3.4501,3.4718,3.507,3.4834,0.0,0.0,3.373,3.3322,3.3087,3.3421,3.3755,3.3983,0.0,3.3998,3.3526,3.3354,3.2505,3.2008,3.1667,3.1224,0.0,0.0,0.0,2.9515,2.7931,2.7186,0.0,0.0,0.0,2.264,0.0,0.0,0.0,0.0,1.9448,1.9161,0.0,0.0,0.0,0.0,0.0,0.0,0.0,0.0,0.0,0.0,0.0,0.0,0.0,0.0,0.0,0.0,2.5454,2.6277,2.6393,2.6753,2.7176,2.757,2.794,2.8249,2.8329,2.8927,2.928,2.9521,3.0034,3.0502,3.0362,0.0,0.0,0.0,0.0,3.0482,3.0327,3.0846,3.1194,3.1481,3.1779,3.2408,3.3204,3.3942,3.4555,3.5068,3.4761,3.4554,3.4528,3.4679,3.5192,3.5843,3.4302,3.375,3.3678,3.2718,3.3371,0.0,0.0,0.0,0.0,3.6311,3.6571,3.6746,3.6442,3.6183,3.5797,3.502,3.4205,3.3628,3.4275,3.4175,3.3918,3.5044,3.5515,3.5322,3.4192,3.4802,3.5288,3.4703,3.5475,3.6274,3.6522,3.5306,3.4514,3.5033,3.5367,0.0,3.5573,3.505,3.4591,3.3762,0.0,0.0,3.1388,3.1091,3.0588,2.9468,2.9762,2.9301,2.764,2.5664,2.4369,2.4296,2.4342,2.4035,2.3497,2.4329,2.4581,2.4258,2.2269,2.1622,0.0,0.0,0.0,0.0,0.0,0.0,0.0,0.0,0.0,0.0,0.0,0.0,0.0,0.0,0.0,2.5558,2.6182,2.6816,2.7305,2.7972,2.8174,2.7747,2.8058,2.8456,2.9028,2.9155,2.9601,3.0534,3.0756,3.0996,3.1211,3.1181,0.0,3.0171,3.1162,3.1352,3.0654,3.1668,3.2173,3.2142,0.0,0.0,3.3975,3.3536,3.4159,3.5452,3.5452,3.5399,3.5484,3.6426,3.7399,3.8045,3.6971,3.654,3.6485,3.5935,3.6103,3.6381,3.5888,3.6237,3.6696,3.6622,3.6934,3.7148,3.6841,3.574,0.0,3.4333,3.3033,3.1895,3.2114,3.2986,3.3868,3.4092,3.5054,3.596,3.5731,3.5833,3.6106,3.6537,3.6873,3.6996,3.7401,3.6891,3.6434,3.6107,3.6063,3.6112,3.5573,3.4875,3.4334,3.4082,3.2842,3.194,3.171,3.111,3.0598,3.0276,2.9705,2.9336,2.8569,2.7577,2.6864,2.6586,2.6019,2.5442,2.502,2.5291,2.5344,2.5166,2.3931,2.33,0.0,0.0,0.0,0.0,0.0,0.0,0.0,0.0,0.0,0.0,0.0,2.2131,0.0,0.0,2.5282,2.62,2.6899,2.7311,2.7673,2.83,2.871,2.8239,2.8522,2.898,2.9504,2.9697,3.013,3.0852,3.1061,3.1253,3.143,3.1453,3.1146,3.0514,3.1478,3.1668,3.1012,3.2,3.2507,3.2682,3.2523,3.3399,3.5163,3.4518,3.5224,3.6773,3.6322,3.6372,3.6505,3.734,3.8032,3.8359,3.8098,3.8217,3.8284,3.7741,3.7722,3.7986,3.7255,3.7255,3.7459,3.744,3.7564,3.7723,3.7413,3.6791,3.6201,3.5921,3.5083,3.4042,3.4067,3.4568,3.4878,3.4878,3.5485,3.6148,3.632,3.6354,3.6577,3.7347,3.7484,3.7487,3.7535,3.7485,3.7091,3.6427,3.6112,3.5922,3.5573,3.5225,3.4638,3.3945,3.3278,3.2416,3.1578,3.111,3.0851,3.1033,3.0366,2.972,2.9383,2.8289,2.7735,2.7735,2.6653,2.5972,2.5824,2.5819,2.5732,2.5718,2.4983,2.4568,0.0,0.0,0.0,0.0,0.0,0.0,0.0,0.0,2.0468,2.1682,2.2363,2.3123,2.4221,2.5313,2.6324,2.6819,2.7471,2.7931,2.7931,2.8471,2.8996,2.9042,2.9249,2.9568,2.9981,3.0323,3.0579,3.0918,3.1269,3.1397,3.1379,3.1458,3.1304,3.0917,3.1699,3.1921,3.1528,3.2253,3.2761,3.3063,3.3063,3.4163,3.6063,3.5595,3.623,3.7988,3.736,3.7355,3.7841,3.8154,3.8282,3.8319,3.8669,3.9067,3.9489,3.8476,3.8532,3.9201,3.8191,3.7963,3.8191,3.8019,3.818,3.8255,3.8255,3.8231,3.8275,3.8042,3.745,3.6841,3.674,3.6405,3.6217,3.6285,3.6251,3.6303,3.6662,3.6731,3.6936,3.7621,3.7758,3.7708,3.7569,3.7464,3.7119,3.6443,3.6096,3.5748,3.5573,3.5573,3.5114,3.3966,3.37,3.288,3.1373,3.1066,3.1091,3.136,3.084,3.0203,2.9881,2.8719,2.8146,2.8303,2.7065,2.6324,2.6235,2.6114,2.6066,2.6119,2.5879,2.5551,1.7943,1.8063,1.8386,1.9,1.9122,1.9619,0.0,0.0,2.1858,2.3092,2.4133,2.4964,2.5454,2.6565,2.7451,2.755,2.8201,2.8646,2.8646,2.8996,2.9505,3.0147,2.9904,3.0029,3.068,3.0894,3.0902,3.13,3.1331,3.1347,3.1379,3.1697,3.1713,3.1395,3.2332,3.2682,3.2364,3.3031,3.3381,3.3429,3.3429,3.4409,3.6063,3.5271,3.6046,3.7932,3.8249,3.8706,3.9123,3.9179,3.9355,3.9688,3.9726,4.0021,4.0219,3.8557,3.8601,3.9047,3.7865,3.7976,3.8601,3.8117,3.8475,3.9098,3.9098,3.9068,3.8996,3.8671,3.8146,3.7665,3.7369,3.6921,3.6645,3.7005,3.6816,3.6679,3.7056,3.7142,3.7261,3.7672,3.7437,3.7216,3.7569,3.6963,3.6443,3.6286,3.6616,3.66,3.5748,3.5573,3.5209,3.4303,3.3505,3.2535,3.1373,3.1285,3.0993,3.0557,3.0513,3.0203,2.9881,2.9793,2.9266,2.8621,2.8151,2.7506,2.668,2.6453,2.6466,2.672,2.6694,2.64,1.8851,1.9018,0.0,0.0,2.0246,2.0845,2.2357,2.2716,2.3169,2.4468,2.5407,2.6104,2.6261,2.7185,2.7908,0.0,2.8313,2.8773,2.8773,2.9075,2.9569,3.0357,3.0453,3.0776,3.1259,3.098,3.1093,3.1347,3.1395,3.1474,3.1681,3.184,3.2187,3.2601,3.3194,3.3629,3.416,3.3985,3.3968,3.4294,3.3804,3.4441,3.6063,3.5416,3.6241,3.8004,3.8481,3.864,3.8956,3.8956,3.8956,3.9114,3.9114,3.9588,4.004,3.9381,3.9637,4.024,3.8962,3.9018,3.9675,3.9291,3.9289,3.9622,3.9682,3.9377,3.9212,3.8937,3.8424,3.7892,3.7612,3.729,3.7005,3.7176,3.709,3.7073,3.745,3.7535,3.7638,3.8015,3.7742,3.728,3.7258,3.6789,3.6286,3.5922,3.6096,3.6096,3.5573,3.5573,3.5225,3.4349,3.2832,3.1885,3.1948,3.1256,3.0585,3.0642,3.0461,3.0073,2.9599,2.9264,2.9001,2.8823,2.7863,2.7135,2.6827,2.6374,2.6136,2.6254,2.6426,2.6441,1.9582,0.0,0.0,2.0751,2.1432,2.2271,2.3354,2.4024,2.4688,2.5802,2.6584,2.7018,2.719,2.7861,2.8355,2.817,2.8583,2.8916,2.8916,2.9139,2.9569,3.0357,3.0551,3.1007,3.1844,3.1462,3.1292,3.1501,3.1474,3.1649,3.1903,3.2251,3.2855,3.3578,3.3951,3.4453,3.5443,3.4734,3.4621,3.4783,3.4458,3.4929,3.6063,3.6224,3.6867,3.7845,3.8322,3.864,3.864,3.864,3.864,3.864,3.8798,3.9272,3.9902,3.9745,4.0216,4.0841,3.9588,3.9644,4.0426,3.9954,3.9894,4.0297,4.0087,3.9924,3.9721,3.9569,3.8997,3.8408,3.8229,3.7738,3.7381,3.7501,3.7433,3.7467,3.7844,3.7912,3.7998,3.8272,3.798,3.7447,3.7119,3.6616,3.6112,3.5748,3.5573,3.5542,3.5446,3.5257,3.494,3.4174,3.244,3.1555,3.2141,3.0947,3.0432,3.0665,3.0332,2.9998,2.9481,2.9119,2.8952,2.9019,2.7771,2.7189,2.6934,2.6174,2.5749,2.6,2.6118,2.6386,0.0,0.0,2.1008,2.1911,2.2952,2.3813,2.4447,2.5342,2.6328,2.6971,2.7442,2.79,2.8559,2.8785,2.8889,2.9139,2.9266,2.9282,2.9282,2.9282,2.9569,3.0357,3.0098,3.0871,0.0,3.2508,3.1977,3.1993,3.1852,3.1903,3.1919,3.3334,3.4041,3.3694,3.4709,3.5409,3.5532,3.5409,3.5109,3.4783,3.5578,3.6063,3.6207,3.7827,3.8163,3.7525,3.8322,3.864,3.864,3.864,3.864,3.864,3.9114,3.9588,3.9902,3.943,3.9883,4.0353,3.9114,3.9374,4.0348,3.9548,4.0084,4.108,4.0603,4.0712,4.095,4.0565,4.006,3.9582,3.921,3.8432,3.7827,3.8203,3.8015,3.7844,3.822,3.8306,3.8323,3.8323,3.798,3.7447,3.7119,3.6616,3.6112,3.5748,3.5573,3.5446,3.5097,3.4705,3.4139,3.3616,3.2821,3.1975,3.1138,3.0809,3.0494,3.0193,3.0179,2.9998,2.9481,2.9998,2.9841,2.9019,2.8524,2.803,2.7241,2.5989,2.5839,2.6587,2.63,2.6331,0.0,0.0,2.2774,2.3126,2.4,2.4887,2.5489,2.6147,2.6597,2.7078,2.7733,2.8077,2.7804,2.826,2.8739,2.8583,2.898,2.9298,2.9298,2.9298,2.9617,3.075,3.1136,0.0,0.0,0.0,0.0,3.269,3.272,3.283,3.3009,3.4275,3.5231,3.5669,3.6086,3.6477,3.717,3.6477,3.6385,3.6563,3.6546,3.6707,3.7028,3.7525,3.8004,3.8163,3.8163,3.8481,3.9114,3.9114,3.9272,3.943,3.9272,3.9588,3.9745,3.9114,3.9272,3.9625,3.9589,3.9935,4.0443,4.0502,4.0711,4.0989,4.0934,4.08,4.0536,4.0409,3.9787,3.916,3.9038,3.8646,3.8169,3.8306,3.822,3.8169,3.8306,3.8323,3.8323,3.8323,3.798,3.7447,3.7119,3.6616,3.6112,3.5748,3.5573,3.5446,3.5081,3.4518,3.4219,3.3981,3.3015,3.2603,3.2825,3.183,3.1,3.1013,3.0499,2.9998,2.9481,2.9452,2.9131,2.8538,2.8152,2.7337,2.6449,2.566,2.541,2.5852,2.575,2.6092,0.0,2.2695,2.3708,2.4071,2.4815,2.5681,2.6028,2.6588,2.7178,2.7286,2.7777,2.8073,2.7836,2.8164,2.844,2.8583,2.8885,2.9155,2.9282,2.9298,2.9633,3.0463,3.1136,3.2234,0.0,0.0,0.0,3.3905,3.3703,3.3735,3.43,3.5498,3.6463,3.685,3.7028,3.7508,3.8163,3.7508,3.7348,3.7845,3.7188,3.7188,3.7685,3.7685,3.7845,3.8322,3.8163,3.8481,3.9114,3.9272,3.943,3.943,3.9272,3.943,3.9588,3.8798,3.8956,3.9328,3.9579,3.9981,4.0527,4.0729,4.1045,4.1194,4.0987,4.0723,4.0554,4.0216,3.9706,3.9195,3.9025,3.8512,3.798,3.798,3.798,3.798,3.798,3.798,3.8152,3.8323,3.7808,3.7291,3.7119,3.6443,3.5922,3.5573,3.5462,3.5351,3.524,3.4658,3.4205,3.4157,3.3072,3.2798,3.3306,3.2158,3.1386,3.1497,3.0832,3.0165,2.9481,2.9285,2.8966,2.8538,2.8099,2.7348,2.6605,2.5916,2.5664,2.6006,2.5801,2.6092,2.2832,2.3477,2.3897,2.4949,2.5622,2.6145,2.6176,2.6965,2.7733,2.7733,2.7733,2.7943,0.0,0.0,2.809,2.9075,2.8996,2.8916,2.925,2.9298,2.9425,0.0,0.0,0.0,0.0,0.0,0.0,3.5602,0.0,3.4399,3.5429,3.6817,3.7525,3.7525,3.7845,3.8163,3.864,3.8181,3.8181,3.864,3.7863,3.7703,3.8004,3.8004,3.8004,3.8004,3.8004,3.8322,3.864,3.9114,3.9114,3.8798,3.9114,3.9272,3.9272,3.8798,3.8956,3.9328,3.9258,3.9825,4.0414,4.0529,4.1064,4.1509,4.0723,4.0723,4.0855,4.001,3.9671,3.9519,3.9178,3.8323,3.7619,3.7619,3.7619,3.7619,3.7619,3.7619,3.7808,3.8152,3.7619,3.6913,3.6913,3.6063,3.5558,3.5573,3.5272,3.5145,3.5478,3.4906,3.4265,3.3736,3.3029,3.2815,3.2632,3.2009,3.1497,3.1647,3.115,3.0484,2.9649,2.9467,2.9313,2.9005,2.8438,2.7936,2.7655,2.6825,2.6671,2.6991,2.6431,2.6331,2.3876,2.4669,2.5233,2.6037,2.6375,2.6672,2.7183,2.7772,2.8121,2.7717,2.7733,2.7566,0.0,0.0,0.0,2.8052,2.8743,0.0,2.9282,2.9298,0.0,3.0486,0.0,3.282,3.4501,3.4505,0.0,0.0,3.6218,3.5687,3.5522,3.7309,3.8322,3.8322,3.8322,3.8481,3.864,3.8773,3.8773,3.864,3.8453,3.8275,3.8481,3.7845,3.7845,3.8481,3.8163,3.864,3.9588,3.9745,3.9902,4.004,3.9745,3.9588,3.9272,3.9114,3.9272,3.9328,3.9597,3.9844,4.0124,4.0675,4.0934,4.0842,4.0969,4.0859,4.0453,3.9934,3.9813,3.9448,3.8845,3.8118,3.7619,3.7619,3.7447,3.7291,3.7464,3.7619,3.7619,3.7808,3.6887,3.5848,3.5505,3.4988,3.4737,3.5003,3.4752,3.4627,3.4795,3.4398,3.4008,3.3919,3.3777,3.3834,3.4167,3.3422,3.2767,3.2505,3.1813,3.0984,3.0012,2.9784,2.917,2.8207,2.7893,2.7297,2.658,2.6405,2.6242,2.6418,2.6248,2.6226,2.4324,2.5052,2.5697,2.607,2.642,2.6729,2.6827,2.7264,2.7589,2.6894,2.6988,2.717,2.6563,2.6842,0.0,0.0,0.0,0.0,2.925,2.9298,2.9617,0.0,3.1326,0.0,3.4351,3.4373,3.4809,0.0,3.6308,3.629,3.6701,3.7638,3.8456,3.864,3.864,3.864,3.864,3.886,3.886,3.864,3.854,3.854,3.864,3.8004,3.8004,3.864,0.0,3.8481,3.943,3.9745,3.9902,4.004,3.9902,3.9588,3.9272,3.9272,3.9272,3.9328,3.9898,4.0037,4.001,4.0492,4.0382,4.0235,3.9956,3.9866,3.9739,3.905,3.9095,3.9102,3.8542,3.7827,3.7291,3.7291,3.6946,3.6773,3.6946,3.6946,3.6896,3.6559,3.589,3.537,3.483,3.4518,3.4297,3.4478,3.4266,3.4049,3.4186,3.4055,3.4016,3.4016,3.3873,3.3944,3.4439,3.3778,3.3289,3.2943,3.2094,3.1048,3.0093,2.9707,2.8893,2.7934,2.7731,2.7324,2.6703,2.669,2.669,2.6703,2.6558,2.6413,2.4602,2.5081,2.5622,2.5711,2.6191,2.647,2.5825,2.6526,2.6902,2.5896,2.6096,2.646,2.6191,2.6491,2.6873,2.7679,0.0,2.8443,2.9202,2.9298,2.9536,3.0172,3.06,3.1739,3.3631,3.3438,3.3918,3.5559,3.5573,3.6261,3.7714,3.7979,3.8199,3.8621,3.864,3.864,3.864,3.8695,3.8695,3.864,3.8695,3.8695,3.864,3.8163,3.8322,3.864,0.0,0.0,3.8566,3.9411,3.955,3.9198,3.9569,3.9588,3.9272,3.9272,3.943,3.9467,4.0141,4.0132,3.9887,3.9848,3.9795,3.9595,3.883,3.8812,3.9012,3.8021,3.8195,3.8519,3.8288,3.774,3.7119,3.7119,3.6616,3.6286,3.6443,3.6237,3.5902,3.5141,3.5023,3.4943,3.4221,3.4314,3.4281,3.4067,3.3908,3.3816,3.3769,3.3809,3.3937,3.3937,3.3667,3.364,3.3968,3.364,3.3349,3.3031,3.2174,3.1061,2.9998,2.9193,2.8523,2.7826,2.77,2.7495,2.7201,2.7241,2.7228,2.7148,2.6921,2.68,2.5149,2.5257,2.5319,2.628,2.6147,2.5922,2.6405,2.6633,0.0,2.6234,2.5907,2.5873,2.6147,2.6358,2.6798,2.763,2.8206,2.871,2.9282,2.8995,2.9007,0.0,3.0844,3.204,0.0,0.0,0.0,0.0,0.0,0.0,3.7004,3.7677,3.8199,3.8621,3.864,3.864,3.864,3.897,3.897,3.864,3.897,3.8951,3.864,3.8481,3.8481,3.864,0.0,0.0,3.8319,3.9123,3.891,3.8319,3.9142,3.9114,3.8798,3.9588,3.9588,3.943,3.982,3.97,3.9496,3.9756,3.9431,3.8744,3.8594,3.8633,3.8545,3.8146,3.8459,3.8901,3.8153,3.7691,3.7464,3.7464,3.6946,3.6443,3.6773,3.6371,3.5621,3.4957,3.4686,3.4356,3.3398,3.3815,3.4188,3.3731,3.3738,3.3891,3.396,3.3794,3.3572,3.3572,3.3524,3.3492,3.364,3.3476,3.346,3.3397,3.1971,3.0914,3.0612,2.9043,2.7921,2.7781,2.7442,2.7188,2.6894,2.7148,2.7014,2.6547,2.6734,2.6533,2.5403,2.5437,2.5546,2.5996,2.5847,2.565,2.5801,0.0,0.0,2.5219,2.5187,2.5286,2.4998,2.5266,2.5805,2.7009,2.7351,2.7943,2.9075,2.898,2.9138,2.9997,3.0531,3.1581,0.0,0.0,0.0,0.0,0.0,0.0,3.6776,3.7531,3.8199,3.8621,3.864,3.864,3.864,3.8823,3.8823,3.864,3.8841,3.8823,3.864,3.864,3.864,3.864,3.864,0.0,3.8053,3.8929,3.903,3.8383,3.9105,3.9114,3.9114,3.9745,3.9588,3.943,4.0059,3.9588,3.8853,3.8919,3.8598,3.8311,3.8024,3.7791,3.7523,3.741,3.7718,3.7986,3.7836,3.7573,3.7291,3.7291,3.6453,3.5649,3.5978,3.5216,3.4398,3.4064,3.3818,3.3411,3.292,3.3459,3.3784,3.3278,3.3536,3.3707,3.3714,3.3533,3.364,3.3804,3.364,3.3576,3.3547,3.3369,3.3127,3.2936,3.1957,3.1118,3.0305,2.9371,2.8482,2.7468,2.7482,2.7268,2.6827,2.6961,2.6814,2.6386,2.6533,2.6361,2.5447,2.5437,2.5442,2.5502,2.5426,2.5348,2.5009,2.5186,2.4966,2.4156,2.4415,2.4524,2.4036,2.4323,2.4919,0.0,2.6538,2.7246,2.8774,2.8933,2.9266,3.0144,3.0447,0.0,3.3661,0.0,0.0,0.0,0.0,0.0,3.6655,3.7576,3.8163,3.8493,3.8603,3.864,3.864,3.864,3.864,3.864,3.864,3.864,3.864,3.864,3.864,3.864,3.864,0.0,0.0,3.8642,3.8687,3.8143,3.8687,3.8892,3.9123,3.9456,3.9355,3.9272,3.9883,3.9411,3.8481,3.8163,3.8004,3.7845,3.7365,3.7045,3.6811,3.6852,3.7067,3.7462,3.7655,3.7521,3.7119,3.6946,3.5978,3.5189,3.4938,3.4108,3.3348,3.3348,3.3011,3.2875,3.2564,3.3212,3.363,3.2895,3.3383,3.3766,3.3437,3.3486,3.364,3.4131,3.374,3.3579,3.3613,3.321,3.2922,3.2698,3.1982,3.1213,3.0381,2.9862,2.8879,2.762,2.7615,2.7468,2.7014,2.6947,2.676,2.648,2.6571,2.6544,2.5447,2.5301,2.5128,2.5085,2.4864,2.4628,2.458,0.0,2.4156,2.4023,2.3728,2.3762,2.4316,2.4372,2.4915,2.5959,2.6647,2.7423,2.8224,2.8753,2.947,3.0255,0.0,0.0,3.3687,0.0,0.0,0.0,0.0,0.0,0.0,3.7576,3.8034,3.8071,3.8438,3.864,3.864,3.864,3.864,3.864,3.864,3.864,3.864,3.864,3.864,3.864,0.0,0.0,0.0,3.775,3.7477,3.6533,3.7221,3.7759,3.8227,3.8713,3.8799,3.864,3.8798,3.8481,3.8004,3.8004,3.7685,3.7365,3.6885,3.7045,3.7436,3.7682,3.7742,3.7813,3.7655,3.7691,3.7291,3.6616,3.5994,3.5467,3.462,3.3934,3.3348,3.3348,3.3229,3.309,3.2639,3.341,3.3925,3.2815,3.3395,3.3937,3.3572,3.3508,3.364,3.4131,3.384,3.3629,3.3597,3.3305,3.3081,3.3516,3.2107,3.1396,3.1842,2.9862,2.8701,2.8728,2.7996,2.7669,2.7615,2.7348,2.7068,2.6774,2.6838,2.6874,2.5251,2.5301,2.5113,2.4923,2.4407,2.3998,2.4201,0.0,2.315,2.3403,2.3328,2.3229,2.3392,2.3297,2.3749,2.5221,2.5368,2.5736,2.7108,2.785,2.868,2.9965,3.0762,0.0,0.0,0.0,0.0,0.0,0.0,0.0,0.0,3.6678,3.7104,3.734,3.7897,3.8116,3.794,3.8353,3.864,3.864,3.864,3.864,3.864,3.8383,3.8401,3.8621,0.0,0.0,0.0,3.7022,3.6561,3.5628,3.6867,3.7521,3.7686,3.8409,3.8457,3.8291,3.8864,3.864,3.8004,3.8004,3.7845,3.7685,3.7525,3.7205,3.708,3.7077,3.7392,3.7448,3.7497,3.7352,3.6896,3.5822,3.5312,3.479,3.4287,3.3437,3.2767,3.2784,3.2434,3.2173,3.2067,3.2765,3.3122,3.2678,3.2983,3.3208,3.3524,3.3138,3.2996,3.3807,3.3516,3.3194,3.3289,3.2633,3.2347,3.2633,3.2221,3.1833,3.1823,3.063,2.9727,2.9146,2.8365,2.7789,2.7442,2.7321,2.7028,2.656,2.6598,2.6716,2.4969,2.5227,2.4979,2.4657,2.4145,2.3793,2.3898,2.3263,2.2652,2.2786,2.2814,2.2646,2.2808,2.2565,2.2822,2.4351,2.453,2.5025,2.6542,2.7614,2.8643,2.9916,0.0,0.0,0.0,0.0,0.0,0.0,0.0,0.0,0.0,3.5432,3.5932,3.6615,3.7167,3.7522,3.7366,3.7813,3.8189,3.8456,3.8328,3.8189,3.828,3.8034,3.7842,3.7625,0.0,0.0,0.0,3.6165,3.6013,3.5068,3.6485,3.7136,3.7283,3.8038,3.805,3.7732,3.8338,3.8031,3.7506,3.7665,3.7596,3.7685,3.7845,3.7525,3.692,3.7025,3.7014,3.7032,3.6809,3.6575,3.6207,3.5109,3.462,3.4302,3.3897,3.2918,3.2266,3.2404,3.1948,3.1446,3.1578,3.2309,3.2617,3.251,3.2677,3.3084,3.3508,3.2849,3.279,3.3436,3.2922,3.2698,3.2932,3.2264,3.1964,3.1919,3.2221,3.2204,3.1664,3.1257,3.0607,2.9522,2.8769,2.8063,2.7388,2.7308,2.7014,2.652,2.6743,2.7018,2.4573,2.4795,2.4979,2.4657,2.432,2.3941,2.3695,2.3049,2.2521,2.258,2.2254,2.2084,2.2365,2.2418,2.2687,2.337,2.4684,2.5802,2.6573,2.8164,2.9616,0.0,0.0,0.0,0.0,0.0,0.0,0.0,0.0,0.0,0.0,3.4139,3.4918,3.6218,3.6136,3.6659,3.7429,3.6968,3.7167,3.8016,3.7631,3.7477,3.7373,3.7458,3.6814,0.0,0.0,0.0,0.0,3.5602,3.5599,3.4605,3.5758,3.6476,3.6842,3.7277,3.7233,3.6814,3.6814,3.6617,3.6325,3.664,3.6746,3.6902,3.7685,3.7685,3.7436,3.7827,3.7232,3.6359,3.6041,3.5537,3.5032,3.4678,3.4255,3.385,3.3348,3.2736,3.2115,3.2083,3.1638,3.13,3.1315,3.1975,3.2525,3.2235,3.2999,3.3492,3.3492,3.3174,3.2952,3.2952,3.2332,3.2092,3.256,3.222,3.2001,3.1903,3.2221,3.2253,3.1791,3.1629,3.0836,2.9692,2.9008,2.8506,2.7696,2.7402,2.7108,2.6814,2.7299,2.8104,2.3384,2.3757,2.3918,2.3652,2.3307,2.305,2.2964,2.216,2.1658,2.1833,2.1808,2.1724,2.1804,2.1991,2.2257,2.2786,2.3567,2.4477,2.5531,0.0,0.0,2.9856,3.1905,0.0,0.0,0.0,0.0,0.0,0.0,0.0,0.0,3.4429,3.4493,3.5335,3.5897,3.6246,3.6569,3.6976,3.7176,3.7149,3.7022,3.7022,3.6976,3.6426,0.0,0.0,0.0,0.0,0.0,3.4742,3.4592,3.3517,3.5501,3.6441,3.6738,3.6865,3.7049,3.7196,3.7166,3.6886,3.6683,3.7149,3.6773,3.6446,3.736,3.747,3.7223,3.6881,3.6362,3.5991,3.5344,3.5173,3.4951,3.4391,3.3746,3.3437,3.3037,3.2235,3.1753,3.1915,3.146,3.1051,3.1608,3.1781,3.1934,3.2505,3.267,3.2834,3.3492,3.2806,3.2267,3.2587,3.1967,3.1665,3.206,3.174,3.1597,3.1554,3.2094,3.2316,3.1937,3.1671,3.1048,3.0174,2.9335,2.8428,2.7595,2.7499,2.7309,2.701,2.7689,2.8275,2.2323,2.3,2.337,2.3105,2.2793,2.2524,2.2455,2.1797,2.1216,2.1298,2.1222,2.1129,2.1363,2.191,2.223,2.2462,2.3577,0.0,0.0,0.0,0.0,3.0556,0.0,0.0,0.0,0.0,0.0,0.0,0.0,0.0,0.0,0.0,3.4574,3.5157,3.5406,3.57,3.6153,3.654,3.674,3.6732,3.6587,3.6435,3.6254,3.5861,0.0,0.0,0.0,0.0,0.0,3.4548,3.4486,3.3699,3.5649,3.6516,3.6534,3.6961,3.7035,3.6923,3.703,3.6758,3.6615,3.6913,3.6701,3.6517,3.6782,3.7029,3.6885,3.608,3.5764,3.5606,3.4636,3.4633,3.4564,3.3692,3.3312,3.2918,3.237,3.1813,3.1541,3.1751,3.1464,3.139,3.21,3.2296,3.2443,3.2811,3.2943,3.3075,3.3095,3.2427,3.2063,3.2221,3.1729,3.1474,3.1697,3.1522,3.1395,3.1395,3.1919,3.2078,3.1729,3.1465,3.1031,3.0331,2.9334,2.8437,2.7483,2.7374,2.7368,2.7333,2.7976,2.8446,0.0,2.2212,2.2944,2.2944,2.272,2.2382,2.1997,2.1638,0.0,2.0708,2.042,2.0388,2.0903,2.195,2.2525,2.2511,0.0,0.0,0.0,2.6697,0.0,0.0,0.0,0.0,0.0,0.0,0.0,0.0,0.0,0.0,0.0,0.0,3.5157,3.5605,3.4875,3.5025,3.6201,3.5754,3.5935,3.66,3.6235,3.5953,3.5369,3.5467,0.0,0.0,0.0,0.0,0.0,3.4961,3.5038,3.4605,3.6202,3.6516,3.6367,3.7107,3.6812,3.6201,3.6201,3.6176,3.6138,3.6053,3.6395,3.6529,3.6046,3.6224,3.642,3.5595,3.5271,3.5109,3.4294,3.3968,3.3804,3.2983,3.2819,3.2489,3.1813,3.1467,3.1452,3.1482,3.1617,3.1753,3.2608,3.3101,3.3301,3.2952,3.3548,3.3738,3.2618,3.2424,3.2372,3.1919,3.1601,3.1395,3.1395,3.1395,3.1395,3.1395,3.1729,3.176,3.1411,3.1275,3.0824,3.0002,2.8991,2.82,2.7442,2.7168,2.7333,2.7805,2.8118,2.8588,2.0013,0.0,2.124,2.124,2.1061,2.0757,0.0,2.027,1.9924,1.9994,1.9905,2.0073,2.0637,2.1686,2.2342,0.0,0.0,0.0,0.0,0.0,0.0,0.0,0.0,0.0,0.0,0.0,0.0,0.0,0.0,0.0,0.0,0.0,3.5306,3.6052,3.5605,3.5605,3.6201,3.6052,3.5515,3.4574,3.5068,3.4751,3.3845,3.4486,0.0,0.0,0.0,0.0,3.3866,3.4546,3.4658,3.4605,3.5906,3.6497,3.6664,3.6516,3.6516,3.6664,3.6367,3.6176,3.6138,3.5417,3.5398,3.5635,3.4836,3.5198,3.5595,3.4621,3.4458,3.4294,3.3804,3.3312,3.3148,3.3312,3.2489,3.1978,3.2324,3.1796,3.1377,3.1963,3.1895,3.1941,3.2692,3.3018,3.3129,3.3049,3.3509,3.3635,3.292,3.2597,3.2527,3.2388,3.1756,3.1395,3.1395,3.1395,3.1395,3.1395,3.1729,3.176,3.1411,3.1275,3.0877,3.0111,2.8604,2.7815,2.7588,2.7518,2.7647,2.8118,2.8588,2.8744,1.9074,1.9773,2.0394,2.0262,2.0081,1.9884,1.9879,1.9614,1.9472,1.9464,1.9537,1.9853,2.0235,2.1548,2.244,0.0,2.4213,0.0,0.0,0.0,0.0,0.0,0.0,0.0,0.0,0.0,0.0,0.0,0.0,0.0,0.0,0.0,3.5754,3.6201,3.6052,3.5903,3.6201,3.6201,3.5794,3.5002,3.5199,3.49,3.4408,3.4636,0.0,0.0,0.0,0.0,3.4984,3.4823,3.4989,3.5298,3.6127,3.6516,3.6516,3.6516,3.6664,3.6812,3.6349,3.6026,3.5833,3.5434,3.5087,3.4976,3.4651,3.4415,3.4321,3.4001,3.3597,3.3323,3.2838,3.2514,3.2352,3.2189,3.1864,3.1686,3.1701,3.1401,3.1325,3.2158,3.2201,3.2316,3.3305,3.3509,3.3487,3.3322,3.3603,3.3397,3.2592,3.2398,3.213,3.1975,3.166,3.1395,3.1395,3.1395,3.1395,3.1395,3.157,3.1586,3.1395,3.0965,3.0212,2.9212,2.8431,2.7805,2.7633,2.7805,2.8118,2.8289,2.8744,2.8886,1.8472,1.9207,1.9937,1.9689,1.955,1.953,1.9178,1.9382,1.9438,1.8835,1.9253,1.9594,1.9755,2.1354,0.0,0.0,0.0,0.0,0.0,0.0,0.0,0.0,0.0,0.0,0.0,0.0,0.0,0.0,0.0,0.0,0.0,0.0,0.0,3.6201,3.6201,3.6201,3.6201,3.6201,3.6182,3.5961,3.5718,3.5569,3.5366,3.5121,0.0,0.0,0.0,0.0,3.6182,3.5356,3.5558,3.6201,3.6516,3.6516,3.6201,3.6497,3.6516,3.6516,3.6274,3.5779,3.5528,3.5469,3.4967,3.439,3.4693,3.3892,3.3188,3.3497,3.3081,3.2444,3.2013,3.1822,3.1487,3.0907,3.1197,3.1471,3.0846,3.0961,3.141,3.2237,3.2491,3.2742,3.3925,3.4205,3.4054,3.3735,3.3684,3.3259,3.2195,3.1993,3.184,3.1549,3.1395,3.1395,3.1395,3.1395,3.1395,3.1395,3.1395,3.1395,3.1225,3.0392,2.9449,2.8218,2.8218,2.8047,2.7563,2.8104,2.8289,2.8431,2.8686,2.8812,1.8658,1.8892,1.8972,1.892,1.8933,1.8946,1.8542,1.8542,1.8542,1.8152,1.8364,1.8867,1.9594,2.1477,2.2778,0.0,0.0,0.0,0.0,0.0,0.0,0.0,0.0,0.0,0.0,0.0,0.0,0.0,0.0,0.0,0.0,0.0,0.0,3.6201,3.6201,3.6201,3.6201,3.6201,3.5739,3.4805,3.5294,3.5145,3.425,3.5163,3.5605,0.0,0.0,3.541,3.6182,3.5356,3.5558,3.6201,3.6219,3.6052,3.5754,3.5754,3.5605,3.536,3.5548,3.5404,3.5068,3.4968,3.462,3.4183,3.3934,3.3529,3.3076,3.3142,3.2868,3.2475,3.2793,3.2009,3.1388,3.1842,3.1365,3.0846,3.1471,3.1414,3.1448,3.219,3.256,3.2715,3.3182,3.36,3.3686,3.284,3.3128,3.2959,3.2146,3.1993,3.1993,3.184,3.1533,3.1395,3.1395,3.1395,3.1395,3.1395,3.1395,3.1071,3.0284,3.0023,2.9105,2.7874,2.7874,2.7874,2.772,2.8146,2.8431,2.873,2.8622,2.8505,1.8057,1.821,1.8229,1.8512,1.8892,1.9063,1.8907,1.8997,1.9113,1.8765,1.922,1.988,2.0415,0.0,2.3223,0.0,0.0,0.0,0.0,0.0,0.0,0.0,0.0,0.0,0.0,0.0,0.0,0.0,0.0,0.0,0.0,0.0,0.0,0.0,3.6091,3.6201,3.6201,3.6201,3.5961,3.5483,3.5515,3.5515,3.5204,3.5533,3.5605,3.5587,0.0,3.541,3.5885,3.5356,3.5558,3.6201,3.6201,3.5903,3.5605,3.5605,3.5605,3.5623,3.5671,3.5291,3.5041,3.4967,3.435,3.3751,3.397,3.3459,3.2852,3.3159,3.2504,3.1903,3.1905,3.1197,3.0648,3.0484,3.0566,3.0775,3.0916,3.1121,3.1526,3.2135,3.2203,3.2348,3.2819,3.3178,3.3213,3.2757,3.274,3.2588,3.2146,3.1678,3.1397,3.1397,3.1086,3.0807,3.0807,3.0807,3.0982,3.1363,3.1204,3.0788,2.9869,2.9549,2.8927,2.7864,2.7712,2.7712,2.7864,2.7856,2.7928,2.8373,2.8242,2.8081,1.7477,1.7554,1.778,1.8194,1.8744,1.9155,0.0,0.0,0.0,1.9216,0.0,0.0,0.0,2.2131,0.0,0.0,0.0,0.0,0.0,0.0,0.0,0.0,0.0,0.0,0.0,0.0,0.0,0.0,0.0,0.0,0.0,0.0,0.0,0.0,3.5815,3.5924,3.5776,3.5685,3.5869,3.6052,3.5664,3.5627,3.5924,3.5519,3.5389,3.5609,3.5319,3.541,3.5736,3.5298,3.5649,3.6201,3.6052,3.5754,3.5456,3.5456,3.5605,3.5623,3.5456,3.5025,3.4759,3.4772,3.4059,3.3416,3.4009,3.3602,3.2909,3.3213,3.2604,3.1565,3.132,3.0655,3.0159,2.9613,3.0205,3.0624,3.0299,3.0917,3.1533,3.184,3.1993,3.2146,3.2452,3.2892,3.3044,3.2588,3.2588,3.2435,3.1993,3.1462,3.095,3.0871,3.0616,3.041,3.033,3.0315,3.0553,3.1109,3.0886,3.0426,2.967,2.9213,2.8731,2.7982,2.7531,2.7531,2.7682,2.7618,2.7647,2.7798,2.7653,2.7642,1.7128,1.763,1.802,1.809,1.8295,1.8503,1.8844,1.9145,0.0,1.8997,0.0,0.0,0.0,2.2692,0.0,0.0,0.0,0.0,0.0,0.0,0.0,0.0,0.0,0.0,0.0,0.0,0.0,0.0,0.0,0.0,0.0,0.0,0.0,0.0,0.0,3.4935,3.464,3.4266,3.4591,3.5605,3.5262,3.5082,3.5046,3.4685,3.5012,3.5669,3.5632,3.5852,3.6052,3.5736,3.5885,3.6201,3.5754,3.5456,3.5007,3.5007,3.4574,3.3988,3.4441,3.429,3.3837,3.3871,3.3854,3.3837,3.3871,3.3702,3.3685,3.3685,3.3213,3.2517,3.2398,3.1633,3.0856,3.0996,3.0996,3.0778,3.0778,3.1087,3.1395,3.1395,3.1686,3.1993,3.1993,3.2757,3.3044,3.2588,3.2588,3.2435,3.1993,3.167,3.122,3.0902,3.0839,3.068,3.0346,3.0315,3.0346,3.0394,3.0378,3.0213,2.9766,2.901,2.8532,2.7925,2.7644,2.7361,2.6901,2.7502,2.7647,2.7481,2.7187,2.7203,1.6794,1.719,1.7539,1.7701,1.811,1.8565,1.9104,1.9855,2.055,2.0667,2.1038,0.0,0.0,0.0,0.0,0.0,0.0,0.0,0.0,0.0,0.0,0.0,0.0,0.0,0.0,0.0,0.0,0.0,0.0,0.0,0.0,0.0,0.0,0.0,0.0,3.4231,3.4067,3.3925,3.3996,3.4133,3.4594,3.4649,3.4649,3.4505,3.4523,3.454,3.4522,3.4591,3.4818,3.4818,3.4966,3.5114,3.467,3.4794,3.5007,3.4724,3.4574,3.4574,3.4724,3.4574,3.4139,3.4139,3.3988,3.3837,3.3837,3.3837,3.3837,3.3837,3.3213,3.2485,3.2309,3.149,3.081,3.0608,3.0701,3.0794,3.0794,3.1087,3.1395,3.1395,3.1549,3.1686,3.1993,3.2299,3.2452,3.2299,3.2452,3.2369,3.1381,3.1173,3.0916,3.0251,3.0013,2.9676,2.9388,2.9372,2.9372,2.9372,2.9739,2.9866,2.9408,2.8511,2.7891,2.773,2.6865,2.6571,2.7027,2.6996,2.6952,2.691,2.7144,2.7008,1.6289,1.6794,1.723,1.7318,1.7899,1.8628,1.8843,2.0099,2.1085,2.1306,2.2008,2.2778,0.0,0.0,0.0,0.0,0.0,0.0,0.0,0.0,0.0,0.0,0.0,0.0,0.0,0.0,0.0,0.0,0.0,0.0,0.0,0.0,0.0,0.0,0.0,0.0,3.3371,3.3247,3.3051,3.2763,3.3358,3.3714,3.3947,3.3822,3.3696,3.3695,3.3677,3.3744,3.3968,3.4115,3.4115,3.4133,3.4109,3.432,3.4698,3.4672,3.4574,3.4556,3.4584,3.4469,3.4122,3.4151,3.3885,3.3837,3.3837,3.3837,3.3837,3.3837,3.3365,3.2724,3.232,3.1606,3.0933,3.0608,3.0763,3.0901,3.0792,3.1083,3.1188,3.1077,3.1141,3.1373,3.1678,3.1912,3.1993,3.1993,3.2299,3.2168,3.1205,3.1098,3.0792,2.987,2.9504,2.9154,2.8851,2.8851,2.8851,2.8851,2.9375,2.9502,2.9211,2.8252,2.7695,2.7695,2.6677,2.6385,2.6838,2.659,2.6475,2.6503,2.6846,2.6706,1.5609,1.6289,1.6995,1.678,0.0,0.0,1.8144,1.9503,2.0746,2.0732,2.1944,2.3533,2.4909,0.0,0.0,0.0,0.0,0.0,0.0,0.0,0.0,0.0,0.0,0.0,0.0,0.0,0.0,0.0,0.0,0.0,0.0,0.0,0.0,0.0,0.0,0.0,3.2124,3.1748,3.1559,3.1559,3.1618,3.1966,3.268,3.228,3.2456,3.3269,3.3269,3.3482,3.3836,3.3401,3.3256,3.3308,3.4133,3.4292,3.4049,3.4716,3.4406,3.3768,3.3839,3.3811,3.3768,3.3391,3.3528,3.3837,3.3837,3.3837,3.3837,3.3837,3.3517,3.3112,3.2759,3.2037,3.1395,3.1379,3.1379,3.1284,3.0934,3.0855,3.0759,3.0394,3.0616,3.0871,3.0871,3.1462,3.1993,3.1993,3.2283,3.2304,3.1641,3.1442,3.1017,2.9886,2.9504,2.9298,2.9298,2.9298,2.9298,2.9298,2.9298,2.9298,2.9298,2.8563,2.813,2.813,2.742,2.6838,2.6399,2.6517,2.6517,2.6357,2.6129,2.6444,1.5497,1.6179,0.0,1.7445,0.0,0.0,0.0,2.055,0.0,0.0,2.3703,2.4239,2.4665,0.0,0.0,0.0,0.0,0.0,0.0,0.0,0.0,0.0,0.0,0.0,0.0,0.0,0.0,0.0,0.0,0.0,0.0,0.0,0.0,0.0,0.0,0.0,3.173,3.1628,3.1559,3.1559,3.1597,3.1649,3.1855,3.1756,3.1931,3.2156,3.2156,3.2381,3.2584,3.244,3.2595,3.2818,3.2809,3.2912,3.3025,3.3275,3.3162,3.3015,3.3042,3.3266,3.3426,3.3306,3.334,3.3443,3.3443,3.3237,3.3032,3.3032,3.2923,3.2742,3.2372,3.2292,3.2016,3.1227,3.1292,3.1437,3.1038,3.0855,3.0902,3.1045,3.1157,3.1389,3.1678,3.1622,3.1606,3.1653,3.1772,3.1544,3.0794,3.0194,2.9824,2.9472,2.9361,2.9154,2.8851,2.8563,2.8563,2.8851,2.8418,2.8418,2.9298,2.8274,2.7695,2.7695,2.6983,2.6546,2.6399,2.6661,2.657,2.6154,2.6564,2.6418,1.5536,1.6122,0.0,1.7911,1.8672,1.9584,2.1018,0.0,0.0,0.0,0.0,0.0,0.0,0.0,0.0,0.0,0.0,0.0,0.0,0.0,0.0,0.0,0.0,0.0,0.0,0.0,0.0,0.0,0.0,0.0,0.0,0.0,0.0,0.0,0.0,0.0,3.1418,3.1559,3.1491,3.1337,3.1183,3.0975,3.0696,3.1339,3.1634,3.1559,3.1559,3.1696,3.1902,3.1902,3.2039,3.2227,3.2159,3.2261,3.2484,3.2621,3.2689,3.2655,3.2518,3.2724,3.3015,3.2861,3.2912,3.3032,3.3032,3.2861,3.2689,3.2689,3.2714,3.2651,3.2132,3.2322,3.2392,3.1514,3.156,3.1636,3.1189,3.1006,3.0839,3.0775,3.0998,3.1245,3.1109,3.115,3.1213,3.0996,3.0969,3.0727,3.0454,2.9793,2.9298,2.9298,2.9298,2.9154,2.8995,2.8707,2.8563,2.8691,2.8274,2.8418,2.8995,2.8,2.742,2.742,2.6561,2.6199,2.6199,2.6339,2.6217,2.6018,2.6309,2.6177,1.5441,1.6124,1.7218,1.8194,1.8851,0.0,2.2849,2.2692,2.2282,0.0,0.0,0.0,0.0,0.0,0.0,0.0,0.0,0.0,0.0,0.0,0.0,0.0,0.0,0.0,0.0,0.0,0.0,0.0,0.0,0.0,0.0,0.0,0.0,0.0,0.0,0.0,3.0842,3.1158,3.1162,0.0,3.0497,3.0071,2.9402,3.0852,3.1456,3.1508,3.1542,3.1559,3.1559,3.1559,3.1559,3.1593,3.1953,3.2073,3.2124,3.245,3.2587,3.2535,3.2193,3.233,3.2587,3.2244,3.2364,3.2638,3.2638,3.2604,3.2587,3.2587,3.2604,3.2552,3.2176,3.2381,3.2611,3.2193,3.1923,3.1766,3.1474,3.1109,3.0648,3.0076,3.0458,3.0664,3.0029,3.041,3.0696,3.033,2.9997,2.992,3.0211,2.9777,2.9298,2.9298,2.9298,2.9298,2.9298,2.9298,2.9138,2.8851,2.8676,2.8501,2.866,2.752,2.6939,2.6939,2.633,2.587,2.587,2.5688,2.5681,2.5959,2.5754,2.5892,1.4615,1.5678,0.0,0.0,1.9818,2.1438,2.2571,2.3322,2.4132,0.0,0.0,0.0,0.0,0.0,0.0,0.0,0.0,0.0,0.0,0.0,0.0,0.0,0.0,0.0,0.0,0.0,0.0,0.0,0.0,0.0,0.0,0.0,0.0,0.0,0.0,2.9489,2.929,2.971,2.981,0.0,2.9943,3.0043,3.0148,3.0174,3.0583,3.1148,3.1439,3.1559,3.1559,3.1559,3.1559,3.1576,3.1662,3.1696,3.1696,3.1782,3.1799,3.1799,3.1713,3.1936,3.2244,3.2159,3.2193,3.2261,3.2261,3.2039,3.1799,3.1799,3.2022,3.2159,3.1782,3.2176,3.2638,3.2142,3.1705,3.1236,3.1005,3.074,3.0553,3.0966,3.095,3.0807,3.0664,3.0521,3.0315,2.9981,2.9631,2.9409,2.9553,2.9345,2.9298,2.9298,2.9298,2.9298,2.9298,2.8995,2.8995,2.9154,2.8029,2.759,2.7891,2.732,2.7018,2.7018,2.6281,2.5838,2.554,2.6126,2.6253,2.6052,2.5786,2.5772,1.4526,1.5734,0.0,1.8978,0.0,2.2141,2.2752,2.3612,2.4747,0.0,0.0,0.0,0.0,0.0,0.0,0.0,0.0,0.0,0.0,0.0,0.0,0.0,0.0,0.0,0.0,0.0,0.0,0.0,0.0,0.0,0.0,0.0,0.0,0.0,2.8815,2.8799,2.8783,2.9253,2.9253,2.9088,2.9286,2.9506,2.99,2.9851,3.0242,3.0737,3.0804,3.089,3.1028,3.1217,3.12,3.1063,3.1422,3.1456,3.1319,3.1508,3.1559,3.1559,3.1559,3.1696,3.1867,3.1867,3.1867,3.1867,3.1867,3.1713,3.1559,3.1559,3.1713,3.1816,3.1611,3.185,3.2107,3.1616,3.1555,3.1498,3.122,3.0905,3.0585,3.0632,3.0759,3.0696,3.0203,3.0096,3.005,2.9889,2.9697,2.9585,2.9585,2.9441,2.9298,2.9298,2.9298,2.9298,2.9298,2.8996,2.8759,2.8759,2.7722,2.7241,2.7397,2.6528,2.6091,2.6252,2.5664,2.5072,2.4652,2.5172,2.5149,2.4739,2.4581,2.5052,1.4511,1.5879,1.7742,1.9837,2.1421,0.0,2.3016,2.3998,2.506,0.0,0.0,0.0,0.0,0.0,0.0,0.0,0.0,0.0,0.0,0.0,0.0,0.0,0.0,0.0,0.0,0.0,0.0,0.0,0.0,0.0,0.0,0.0,2.7477,2.7629,2.79,2.8148,2.8374,2.8712,2.8734,2.8321,2.8521,2.884,2.9311,2.9496,2.9952,3.0532,3.0121,3.0121,3.0549,3.0806,3.0754,3.0583,3.1148,3.1268,3.1148,3.1388,3.1508,3.1559,3.1559,3.1559,3.1559,3.1559,3.1559,3.1559,3.1559,3.1559,3.1559,3.1559,3.1559,3.1559,3.1559,3.1559,3.1559,3.1135,3.1459,3.1795,3.1351,3.0921,3.0521,3.0013,3.033,3.0394,2.9457,2.9568,2.9855,2.9855,2.9997,2.9981,2.9916,2.9631,2.9329,2.9266,2.9266,2.925,2.925,2.8837,2.8537,2.813,2.7369,2.7031,2.7031,2.5608,2.5011,2.5408,2.4552,2.4122,2.3846,2.3871,2.3746,2.346,2.3515,2.436,1.3586,0.0,1.8478,0.0,2.1872,2.3061,0.0,0.0,2.5643,0.0,0.0,0.0,0.0,0.0,0.0,0.0,0.0,0.0,0.0,0.0,0.0,0.0,0.0,0.0,0.0,0.0,0.0,0.0,0.0,0.0,0.0,2.813,2.7882,2.728,2.7264,2.7004,2.6471,2.6918,2.691,2.6476,2.7447,2.8157,2.8842,2.8675,2.9328,3.0943,3.0493,3.051,3.0909,3.0617,3.0669,3.0909,3.0669,3.0943,3.1456,3.1183,3.1285,3.1559,3.1559,3.1559,3.1559,3.1559,3.1559,3.1559,3.1559,3.1559,3.1559,3.1559,3.1559,3.1559,3.1559,3.1559,3.1559,3.1559,3.1507,3.1409,3.0616,3.0226,3.0029,3.0219,3.0092,2.9822,2.9377,2.9568,2.9855,2.9855,3.0157,3.0184,3.0012,2.9823,2.9708,2.9395,2.9086,2.8809,2.8809,2.8467,2.8158,2.7772,2.7154,2.6695,2.6695,2.5422,2.4853,2.5591,2.4054,2.3361,2.363,2.3588,2.3574,2.3574,2.384,2.4766,1.4727,1.65,1.8206,0.0,2.0877,2.1904,2.2221,0.0,0.0,0.0,0.0,0.0,0.0,0.0,0.0,0.0,0.0,0.0,0.0,0.0,0.0,0.0,0.0,0.0,0.0,0.0,0.0,0.0,0.0,0.0,2.8263,2.8114,2.76,2.6666,2.6532,2.647,2.6034,2.6321,2.6532,2.6666,2.7225,2.7749,2.8494,2.817,2.8456,2.953,2.9513,2.9665,2.9817,3.0191,3.0275,3.0104,3.0583,3.0703,3.0669,3.0926,3.1114,3.1251,3.1251,3.1251,3.1251,3.1251,3.1391,3.1565,3.1649,3.17,3.1841,3.17,3.1559,3.1508,3.1302,3.1251,3.12,3.0717,3.0645,3.0343,2.9639,2.9841,3.0162,3.0013,2.9758,2.9488,2.9329,2.9728,3.0009,2.96,2.9979,3.0276,2.991,2.9738,2.9534,2.9385,2.8939,2.8802,2.8802,2.8196,2.781,2.7414,2.6815,2.6208,2.5801,2.4395,2.3834,2.4372,2.4011,2.3756,2.3486,2.3486,2.3215,2.2808,2.2929,2.3854,1.567,1.6823,1.7872,1.9045,2.0033,2.0885,0.0,0.0,0.0,0.0,0.0,0.0,0.0,0.0,0.0,0.0,0.0,0.0,0.0,0.0,0.0,0.0,0.0,0.0,0.0,0.0,0.0,0.0,0.0,0.0,2.8378,2.7981,2.7318,2.6145,2.6145,2.6145,2.6145,2.613,2.6579,2.7343,2.7382,2.7643,2.8402,2.8186,2.8126,2.8279,2.8643,2.8942,2.9108,2.9698,2.9747,2.9539,3.0292,3.0361,3.0087,3.0566,3.0789,3.0874,3.0874,3.0874,3.0874,3.1012,3.115,3.1478,3.1478,3.1565,3.1687,3.1408,3.1285,3.1217,3.0943,3.0874,3.0651,3.0105,3.0037,2.9763,2.8939,2.9276,2.9697,2.9425,2.9202,2.9028,2.9028,2.9595,2.9963,2.9556,3.0119,3.0445,3.0089,2.9766,2.946,2.936,2.8935,2.8663,2.8663,2.7877,2.7327,2.692,2.6267,2.5592,2.4902,2.3523,2.3103,2.3356,2.356,2.3468,2.293,2.3011,2.2727,2.1984,2.2536,2.3389,1.5545,1.6553,1.7496,1.8846,1.9971,2.0997,0.0,0.0,0.0,0.0,0.0,0.0,0.0,0.0,0.0,0.0,0.0,0.0,0.0,0.0,0.0,0.0,0.0,0.0,0.0,0.0,0.0,0.0,0.0,0.0,2.8905,2.8378,2.7584,2.6145,2.6145,2.6145,2.6145,2.6532,2.6972,2.7693,2.7611,2.8044,2.8807,2.8727,2.856,2.8279,2.8642,2.9194,2.9847,2.9125,2.9308,2.983,2.9521,2.9813,3.0361,3.0069,3.0172,3.0463,3.0463,3.0463,3.0463,3.0889,3.1042,3.1042,3.1059,3.1059,3.0923,3.0634,3.048,3.048,3.0463,3.0463,3.0446,3.0429,3.0429,3.002,2.9077,2.8558,2.8297,2.8313,2.8297,2.8281,2.8281,2.8834,2.9506,2.9763,3.048,3.075,3.0484,3.0316,3.0027,2.9402,2.8709,2.8329,2.8329,2.7366,2.6563,2.6161,2.5472,2.4902,2.4495,2.3254,2.27,2.2955,2.2133,2.1733,2.1746,2.1897,2.1753,2.1111,2.2974,2.4261,1.5273,1.6006,1.6801,1.7583,1.8528,1.9374,2.0136,0.0,0.0,0.0,0.0,0.0,0.0,0.0,0.0,0.0,0.0,0.0,0.0,0.0,0.0,0.0,0.0,0.0,0.0,0.0,0.0,0.0,0.0,0.0,2.781,2.7637,2.7098,2.6191,2.5727,2.562,2.5751,2.6127,2.6581,2.6969,2.7213,2.7589,2.8097,2.8345,2.8395,2.8279,2.8677,2.8859,2.8876,2.9376,2.9376,2.9274,2.9509,2.9693,2.9727,2.9847,2.9984,3.0087,3.0087,3.0087,3.0087,3.049,3.0758,3.1078,3.1325,3.1261,3.1208,3.0542,3.0376,3.0309,2.983,2.9898,2.9901,2.9512,2.9194,2.891,2.824,2.8189,2.8217,2.8217,2.8217,2.8154,2.7947,2.864,2.9307,2.9244,3.0049,3.0484,3.0083,3.0031,2.9848,2.9316,2.8659,2.8163,2.7654,2.7057,2.6306,2.516,2.4744,2.4075,2.3254,2.1567,2.0793,2.1056,2.0374,2.086,2.247,2.2271,2.2141,2.2339,2.3004,2.3723,1.5001,1.554,1.5992,0.0,1.7483,1.8469,1.9316,0.0,0.0,0.0,0.0,0.0,0.0,0.0,0.0,0.0,0.0,0.0,0.0,0.0,0.0,0.0,0.0,0.0,0.0,0.0,0.0,0.0,0.0,0.0,2.741,2.7115,2.6599,2.5965,2.5489,2.5381,2.5767,2.6263,2.6697,2.6954,2.7474,2.7833,2.8106,2.8374,2.8491,2.8491,2.8622,2.8605,2.8508,2.9291,2.9138,2.8601,2.9236,2.9282,2.8974,2.923,2.9402,2.9521,2.9521,2.9607,2.9808,3.0066,3.0425,3.0573,3.0715,3.0751,3.0566,2.9909,2.9619,2.9556,2.9059,2.923,2.9355,2.8973,2.8527,2.813,2.7849,2.782,2.7884,2.7747,2.7652,2.7494,2.7273,2.7858,2.8444,2.8601,2.9509,3.0057,2.9795,2.9882,2.9822,2.9185,2.8541,2.7834,2.7068,2.6377,2.5555,2.4554,2.3747,2.3084,2.2151,2.0347,1.9458,1.9719,1.9108,1.9965,2.2167,2.2229,2.2483,2.2808,2.3354,2.3943,0.0,0.0,0.0,0.0,0.0,0.0,1.943,0.0,0.0,0.0,0.0,0.0,0.0,0.0,0.0,0.0,0.0,0.0,0.0,0.0,0.0,0.0,0.0,0.0,0.0,0.0,0.0,0.0,0.0,2.8403,2.763,2.7013,2.6248,2.5623,2.5607,2.5736,2.612,2.6858,2.7296,2.7685,2.8458,2.8719,2.8768,2.8768,2.8768,2.8768,2.8348,2.8348,2.8785,2.877,2.8629,2.8237,2.8631,2.8545,2.8203,2.8203,2.8426,2.8768,2.8768,2.8991,2.9344,2.9736,2.974,2.9687,2.9314,2.919,2.9065,2.8438,2.8186,2.8186,2.8186,2.8477,2.8725,2.8821,2.851,2.8097,2.7816,2.7435,2.7051,2.68,2.6386,2.6137,2.6137,2.6374,2.7046,2.806,2.913,2.9758,2.974,3.0095,2.9952,2.8905,2.8046,2.7425,2.6775,2.5436,2.4476,2.4071,2.2766,2.1846,2.1437,1.9866,1.8935,1.9066,1.8435,1.9013,2.0615,2.1845,2.2471,2.2593,2.417,2.507,1.467,0.0,0.0,0.0,0.0,0.0,0.0,0.0,0.0,0.0,0.0,0.0,0.0,0.0,0.0,0.0,0.0,0.0,0.0,0.0,0.0,0.0,0.0,0.0,0.0,0.0,0.0,0.0,2.7835,2.7902,2.689,2.6753,2.6286,2.567,2.5405,2.5516,2.6133,2.5993,2.6296,2.6921,2.7164,2.7549,2.7959,2.7959,2.8086,2.8357,2.7959,2.7933,2.7997,2.855,2.8635,2.858,2.9195,2.9274,2.8815,2.8815,2.8759,2.8754,2.8754,2.8806,2.9003,2.9511,2.9601,2.9332,2.9476,2.944,2.9012,2.8358,2.8105,2.8186,2.8186,2.8271,2.8247,2.8094,2.7727,2.7358,2.6939,2.6889,2.6767,2.6753,2.6386,2.6152,2.5758,2.6116,2.6663,2.741,2.8145,2.872,2.8955,2.8933,2.8621,2.8111,2.7115,2.6312,2.5675,2.4774,2.3724,2.272,2.18,2.1072,2.0477,1.9088,1.8571,1.9018,1.8729,1.9157,2.0564,2.0962,2.168,2.2632,2.3588,2.3981,1.4937,1.5289,0.0,0.0,0.0,0.0,1.8067,1.8777,0.0,0.0,0.0,0.0,0.0,0.0,0.0,0.0,0.0,0.0,0.0,0.0,0.0,0.0,0.0,0.0,0.0,0.0,0.0,2.6969,2.7384,2.7295,2.6449,2.6282,2.6068,2.561,2.5386,2.5482,2.5902,2.5959,2.6119,2.6437,2.6726,2.6964,2.7194,2.7194,2.7319,2.7445,2.7194,2.716,2.7537,2.7939,2.8145,2.8157,2.8832,2.8906,2.8694,2.8694,2.8694,2.8604,2.8604,2.8692,2.8922,2.9119,2.9083,2.8924,2.887,2.8694,2.8412,2.7817,2.7552,2.7509,2.7537,2.757,2.7495,2.7267,2.7173,2.6918,2.652,2.644,2.6419,2.6253,2.6036,2.5674,2.5282,2.5273,2.5707,2.6569,2.7219,2.7696,2.8179,2.8083,2.7739,2.6958,2.6165,2.5439,2.4471,2.3738,2.2817,2.1756,2.1128,2.0558,2.0013,1.8843,1.8518,1.8877,1.884,1.9425,2.0723,2.1147,2.2019,2.3378,2.3494,2.3632,1.5432,1.546,1.5805,0.0,0.0,0.0,1.7699,1.8163,1.8847,0.0,0.0,0.0,0.0,0.0,0.0,0.0,0.0,0.0,0.0,0.0,0.0,0.0,0.0,0.0,0.0,2.802,2.7642,2.7521,2.7177,2.6813,2.6067,2.5717,2.561,2.561,2.5545,2.5577,2.5675,2.6275,2.6453,2.6194,2.6739,2.6816,2.6487,2.6454,2.6562,2.6562,2.6189,2.6477,2.7008,2.7008,2.725,2.7556,2.8044,2.8026,2.8015,2.8015,2.8246,2.8445,2.8481,2.8676,2.8871,2.8587,2.8463,2.8253,2.7677,2.7452,2.7349,2.7177,2.683,2.6655,2.6603,2.6562,2.652,2.6596,2.655,2.6566,2.62,2.6088,2.5942,2.5504,2.5306,2.4948,2.4545,2.4119,2.4425,2.5635,2.6126,2.6677,2.717,2.7351,2.6793,2.5593,2.5167,2.4483,2.3217,2.2556,2.1915,2.1194,2.0591,2.0093,1.9581,1.8989,1.8753,1.885,1.9261,2.0033,2.1152,2.179,2.2846,2.4206,2.3648,2.3552,0.0,0.0,0.0,0.0,0.0,0.0,1.8028,1.8213,1.8743,0.0,0.0,0.0,0.0,0.0,0.0,0.0,0.0,0.0,0.0,0.0,0.0,0.0,0.0,0.0,0.0,2.8636,2.8379,2.7521,2.7056,2.6571,2.6067,2.5717,2.561,2.561,2.5552,2.5681,2.6015,2.6145,2.6323,2.655,2.6087,2.6068,2.6221,2.5961,2.5954,2.6182,2.5831,2.5961,2.6231,2.599,2.6661,2.7882,2.8229,2.831,2.8118,2.8118,2.7943,2.7607,2.7912,2.7741,2.7346,2.7594,2.7452,2.7257,2.7134,2.7086,2.7019,2.6729,2.6692,2.6587,2.6288,2.6182,2.6199,2.6265,2.6052,2.5886,2.6036,2.5723,2.52,2.4894,2.457,2.4074,2.3563,2.3149,2.32,2.3947,2.4364,2.4714,2.5189,2.5017,2.4556,2.4118,2.3577,2.3036,2.2856,2.2184,2.1555,2.0832,2.0591,2.0107,1.9043,1.9312,1.9581,1.9535,2.0326,2.0881,2.1486,2.188,2.2371,2.2925,2.2704,2.2863,0.0,0.0,0.0,1.6974,0.0,0.0,0.0,1.7394,1.7609,0.0,0.0,0.0,0.0,0.0,0.0,0.0,0.0,0.0,0.0,0.0,0.0,0.0,0.0,0.0,0.0,2.7311,2.7097,2.673,2.6301,2.594,2.5561,2.5335,2.5133,2.5076,2.5416,2.5594,2.5578,2.6059,2.6129,2.5878,2.5702,2.5498,2.5342,2.513,2.5092,2.506,2.49,2.4963,2.5274,2.5156,2.5747,2.6685,2.7364,2.7669,2.7783,2.8106,2.8011,2.7801,2.7888,2.773,2.7535,2.7381,2.7199,2.7199,2.6845,2.6626,2.6457,2.6349,2.6205,2.5961,2.5717,2.5594,2.5594,2.5594,2.5472,2.5397,2.5326,2.5109,2.4671,2.394,2.3598,2.3272,2.2936,2.2548,2.2623,2.3232,2.3442,2.3582,2.4055,2.3819,2.352,2.2997,2.2613,2.2318,2.1935,2.1686,2.1203,2.0496,2.06,2.0123,1.8894,1.9417,1.9761,1.969,2.0501,2.0877,2.1093,2.1418,2.1836,2.2429,2.2445,2.2541,0.0,0.0,0.0,0.0,0.0,1.6625,0.0,0.0,0.0,0.0,0.0,0.0,0.0,0.0,0.0,0.0,0.0,0.0,0.0,0.0,0.0,0.0,0.0,0.0,0.0,2.4778,2.4709,2.5495,2.5107,2.4752,2.4531,2.4524,2.4492,2.4504,2.5125,2.5287,2.506,2.5872,2.5863,2.5035,2.5221,2.5098,2.4392,2.4369,2.4228,2.3972,2.3929,2.414,2.4428,2.4428,2.468,2.5179,2.6259,2.6822,2.7318,2.777,2.7865,2.7883,2.7731,2.7706,2.7694,2.6971,2.6828,2.7036,2.6575,2.6202,2.598,2.6023,2.5741,2.5375,2.513,2.5008,2.5024,2.5087,2.5103,2.4873,2.4688,2.4533,2.4131,2.3193,2.2731,2.248,2.2483,2.2171,2.2141,2.2689,2.2647,2.2674,2.3145,2.3027,2.2701,2.2094,2.2049,2.1829,2.1233,2.1203,2.0974,2.0385,2.0615,2.0245,1.8931,1.9203,1.9426,1.9516,2.0131,2.0485,2.0484,2.0829,2.1439,2.228,2.2231,2.2264,0.0,0.0,0.0,0.0,1.7221,0.0,0.0,0.0,0.0,0.0,0.0,0.0,0.0,0.0,0.0,0.0,0.0,0.0,0.0,0.0,0.0,0.0,0.0,0.0,0.0,0.0,2.1913,2.3875,2.3035,2.2482,2.2627,2.3535,2.4229,2.4635,2.465,2.4784,2.506,2.5157,2.5011,2.4655,2.4739,2.4348,2.3691,2.3763,2.351,2.3288,2.3598,2.3646,2.361,2.3956,2.4089,2.4132,2.5179,2.6122,2.7011,2.6792,2.6902,2.7066,2.6882,2.6457,2.5945,2.5735,2.5646,2.5732,2.5908,2.5999,2.593,2.5724,2.5381,2.5125,2.4763,2.4642,2.4722,2.504,2.4857,2.4688,2.4623,2.4064,2.3444,2.2851,2.2452,2.2082,2.174,2.1474,2.1392,2.1715,2.1757,2.1895,2.1895,2.1895,2.1765,2.1377,2.1262,2.1247,2.1218,2.1203,2.1089,2.0716,2.096,2.0487,1.8931,1.8394,1.8486,1.9015,1.9571,1.9905,2.0272,2.0716,2.1322,2.2065,2.1655,2.1846,0.0,0.0,0.0,0.0,0.0,0.0,0.0,0.0,1.5446,0.0,0.0,0.0,0.0,0.0,0.0,0.0,0.0,0.0,0.0,0.0,0.0,0.0,0.0,0.0,0.0,0.0,0.0,0.0,0.0,2.0119,2.1239,2.1988,2.2859,2.3889,2.4185,2.4282,2.446,2.4655,2.4553,2.4055,2.396,2.3707,2.3093,2.3027,2.2711,2.2296,2.2429,2.2266,2.2085,2.2511,2.2735,2.2942,2.3533,2.4616,2.599,2.6427,2.6772,2.6899,2.6536,2.6295,2.6198,2.568,2.5434,2.5446,2.536,2.5194,2.5078,2.5058,2.4633,2.4158,2.4039,2.392,2.3878,2.4099,2.4055,2.404,2.4003,2.3708,2.3091,2.2298,2.1948,2.1652,2.1166,2.1131,2.1256,2.1363,2.1423,2.1447,2.1447,2.1447,2.1332,2.1203,2.1203,2.1203,2.1203,2.1203,2.1016,2.0472,1.9906,1.9389,1.8888,1.837,1.821,1.8659,1.9155,1.9744,2.0091,2.0473,2.0971,2.1655,2.141,2.1394,2.1016,0.0,0.0,0.0,0.0,0.0,0.0,0.0,0.0,0.0,0.0,0.0,0.0,0.0,0.0,0.0,0.0,0.0,0.0,0.0,0.0,0.0,0.0,0.0,0.0,0.0,0.0,0.0,1.6995,1.7327,1.8935,1.9891,2.1154,2.2607,2.3327,2.3682,2.3892,2.415,2.3981,2.3302,2.3395,2.316,2.2466,2.2266,2.1979,2.1398,2.139,2.1213,2.1015,2.1368,2.157,2.1916,2.2229,2.325,2.4597,2.5466,2.6227,2.6663,2.5898,2.5763,2.5804,2.5303,2.499,2.4952,2.473,2.4433,2.417,2.4198,2.3794,2.3324,2.3324,2.3207,2.3062,2.3383,2.3338,2.3172,2.3044,2.2842,2.2291,2.1449,2.146,2.125,2.0684,2.0982,2.1203,2.1219,2.1249,2.1203,2.1203,2.1203,2.1203,2.1203,2.113,2.1072,2.1072,2.0998,2.0725,2.0284,1.9192,1.8672,1.8892,1.8279,1.8023,1.8238,1.8758,1.9386,1.9879,2.0205,2.0638,2.1081,2.1139,2.1178,0.0,0.0,0.0,1.9412,0.0,0.0,0.0,0.0,1.6257,0.0,0.0,0.0,0.0,0.0,0.0,0.0,0.0,0.0,0.0,0.0,0.0,0.0,0.0,0.0,0.0,0.0,0.0,1.4746,1.3987,1.3945,1.5084,1.7612,1.9483,2.0662,2.1945,2.2847,2.353,2.3562,2.3273,2.2601,2.2944,2.2582,2.169,2.1361,2.1085,2.072,2.0728,2.0689,2.0783,2.1,2.1109,2.1217,2.1758,2.2188,2.2559,2.357,2.4815,2.6008,2.4812,2.4273,2.3937,2.3954,2.3954,2.4003,2.4008,2.3761,2.3431,2.3184,2.2852,2.2635,2.2635,2.2635,2.2711,2.3165,2.2766,2.2169,2.1824,2.1463,2.1101,2.0362,2.0718,2.0982,2.0392,2.0864,2.1234,2.1161,2.1218,2.1203,2.1203,2.1203,2.1203,2.1203,2.0925,2.0735,2.0735,2.0442,2.0267,2.0252,1.9391,1.8898,1.8898,1.7875,1.7503,1.803,1.8331,1.875,1.9376,1.9879,2.0086,2.0205,2.0719,2.1099,0.0,0.0,2.2337,2.1336,0.0,0.0,0.0,0.0,0.0,0.0,0.0,0.0,0.0,0.0,0.0,0.0,0.0,0.0,0.0,0.0,0.0,0.0,0.0,0.0,0.0,0.0,0.0,1.2169,1.1295,1.1618,0.0,1.4762,1.6647,1.9106,2.0238,2.1464,2.2831,2.2609,2.245,2.223,2.2122,2.1774,2.0994,2.0891,2.0597,2.0077,2.0082,2.0012,1.9835,2.0149,2.0238,2.0345,2.088,2.1217,2.165,2.2947,2.3939,2.4416,2.3913,2.3447,2.2926,2.3055,2.3135,2.3263,2.2808,2.2855,2.2855,2.2497,2.2284,2.1955,2.1955,2.1825,2.1683,2.1877,2.1715,2.1536,2.1378,2.0953,2.0536,2.0346,2.0223,2.0323,2.035,2.0656,2.0859,2.0859,2.1089,2.1203,2.1203,2.1028,2.0896,2.0896,2.0603,2.0398,2.0398,2.0106,1.9808,1.9377,1.8851,1.8379,1.7849,1.7437,1.7384,1.7687,1.8016,1.8541,1.9272,1.9687,1.9879,2.0086,2.0292,2.0457,2.3865,2.3758,0.0,2.2287,2.1508,0.0,1.957,0.0,0.0,0.0,0.0,0.0,0.0,0.0,0.0,1.1654,1.0686,0.0,0.0,0.0,0.0,0.0,0.0,0.0,0.0,0.0,0.9019,0.9999,0.9266,0.9599,0.0,0.0,1.5134,1.7463,1.9403,2.0956,2.2182,2.196,2.176,2.1638,2.1425,2.0988,2.0545,2.0428,2.015,1.9755,1.9638,1.9477,1.9286,1.9506,1.9699,1.979,2.0197,2.0649,2.1077,2.2144,2.2805,2.2955,2.2863,2.2525,2.2025,2.2162,2.2383,2.2398,2.2085,2.2116,2.223,2.1888,2.1546,2.1318,2.1318,2.1089,2.0903,2.0755,2.0681,2.0592,2.0455,1.9996,1.9679,1.9618,1.9448,1.9381,1.9649,2.0047,2.043,2.0658,2.08,2.087,2.0754,2.0565,2.0434,2.0434,2.0143,2.0018,1.9901,1.9711,1.9382,1.8943,1.864,1.8108,1.749,1.7279,1.7384,1.7701,1.7806,1.8227,1.8959,1.9153,1.9361,1.9465,1.9465,1.9465]}]]